     2.10           OBSERVATION DATA    G (GPS)             RINEX VERSION / TYPE
teqc 2000Jul20 Karen Wendt 20040802 19:45:35UTC             PGM / RUN BY / DATE
Linux 2.0.36|Pentium II|gcc -static|Linux|486/DX+           COMMENT
teqc 2000Jul20 Karen Wendt 20040802 19:45:34UTC             COMMENT
BIT 2 OF LLI FLAGS DATA COLLECTED UNDER A/S CONDITION       COMMENT
prce Pierce_Ecc_1981_NCER                                   MARKER NAME
JMS USGS                                                    OBSERVER / AGENCY
LP020000801 ASHTECH Z-XII3 CD00                             REC # / TYPE / VERS
CR520031626 ASH701945E_M NONE                               ANT # / TYPE
 -2728118.0000 -4026385.0000  4113905.0000                  APPROX POSITION XYZ
        1.3349        0.0000        0.0000                  ANTENNA: DELTA H/E/N
     1     1                                                WAVELENGTH FACT L1/2
     5    C1    L1    L2    P1    P2                        # / TYPES OF OBSERV
    30.0000                                                 INTERVAL
                                                            COMMENT
National Earthquake Hazard Reduction Program                COMMENT
Crustal Strain Project                                      COMMENT
345 Middlefield Road, MS/977                                COMMENT
U.S. Geological Survey, Menlo Park, California 94025        COMMENT
Contact: kwendt@usgs.gov (Ph: 650-329-4866)                 COMMENT
Antenna height is vertical to base of antenna               COMMENT
                                                            COMMENT
SNR is mapped to RINEX snr flag value [1-9]                 COMMENT
L1: 1 -> 1; 90 -> 5; 210 -> 9                               COMMENT
L2: 1 -> 1; 150 -> 5; 250 -> 9                              COMMENT
  2004     7    21     0     0   30.0000000     GPS         TIME OF FIRST OBS
                                                            END OF HEADER
 04  7 21  0  0 30.0000000  0  8G 3G23G16G27G13G 8G20G 1
  23798687.257   -10540978.00349  -2955109.35945  23798686.193    23798697.340
  20988248.811     2055658.39249   1605766.26448  20988248.578    20988251.474
  23027131.954   -14477903.24549 -11269757.52946  23027131.689    23027139.076
  21842756.425   -19341577.94149 -15034959.30347  21842756.175    21842763.548
  20407308.291    -3841742.50449  -2984750.76646  20407308.485    20407313.962
  23762647.271    -9000489.92249  -6993749.77745  23762646.714    23762655.865
  23618624.493    14653064.02649  12471253.01545  23618623.417    23618628.731
  21823899.773   -18716045.98649   6523833.37147  21823899.518    21823906.386
 04  7 21  0  1  0.0000000  0  8G 3G23G16G27G13G 8G20G 1
  23787757.578   -10598409.96049  -2999861.46645  23787756.900    23787768.618
  20997909.701     2106426.67849   1645325.92747  20997909.420    20997912.238
  23042683.745   -14396177.18049 -11206074.90946  23042683.512    23042690.902
  21833758.019   -19388863.26549 -15071804.99347  21833757.964    21833765.402
  20402304.118    -3868039.69549  -3005242.05946  20402304.239    20402309.640
  23746341.765    -9086175.99549  -7060518.05745  23746340.980    23746350.345
  23639954.991    14765158.20849  12558599.00845  23639954.201    23639959.513
  21835603.861   -18654541.19749   6571759.16947  21835603.586    21835610.207
 04  7 21  0  1 30.0000000  0  8G 3G23G16G27G13G 8G20G 1
  23776893.886   -10655499.73149  -3044346.97445  23776893.327    23776904.121
  21007637.848     2157549.16849   1685161.61147  21007637.655    21007640.403
  23058302.026   -14314102.17049 -11142120.39746  23058301.829    23058309.125
  21824797.151   -19435952.96449 -15108498.23047  21824797.018    21824804.459
  20397365.547    -3893991.81149  -3025464.47046  20397365.747    20397370.962
  23730062.998    -9171719.95949  -7127175.65145  23730062.869    23730071.902
  23661307.937    14877372.69449  12646038.77945  23661307.648    23661313.700
  21847362.314   -18592750.95949   6619907.36147  21847362.016    21847368.217
 04  7 21  0  2  0.0000000  0  8G 3G23G16G27G13G 8G20G 1
  23766096.274   -10712245.93849  -3088564.76445  23766095.702    23766104.698
  21017433.412     2209024.59849   1725272.32047  21017433.184    21017435.711
  23073986.298   -14231681.71649 -11077896.70446  23073986.152    23073993.270
  21815873.319   -19482848.44249 -15145040.14947  21815873.046    21815880.358
  20392492.714    -3919598.39749  -3045417.65746  20392492.961    20392498.265
  23713811.759    -9257122.83749  -7193723.26045  23713811.280    23713820.387
  23682683.723    14989703.61149  12733569.27146  23682683.260    23682690.286
  21859174.742   -18530676.70549   6668276.83947  21859174.399    21859180.140
 04  7 21  0  2 30.0000000  0  8G 3G23G16G27G13G 8G20G 1
  23755364.425   -10768645.40949  -3132512.38845  23755363.943    23755371.915
  21027296.123     2260852.81949   1765657.90947  21027295.826    21027298.224
  23089735.689   -14148918.43049 -11013405.85646  23089735.489    23089742.621
  21806986.232   -19529549.75949 -15181430.77747  21806986.058    21806993.248
  20387686.218    -3944858.08849  -3065100.51646  20387686.298    20387691.633
  23697587.158    -9342383.42649  -7260160.06345  23697586.633    23697595.940
  23704081.136    15102148.30349  12821188.39145  23704080.467    23704088.325
  21871040.894   -18468318.56849   6716867.53247  21871040.594    21871046.301
 04  7 21  0  3  0.0000000  0  8G 3G23G16G27G13G 8G20G 1
  23744698.723   -10824693.39849  -3176186.08445  23744698.268    23744707.166
  21037226.200     2313036.09249   1806320.16847  21037225.822    21037228.365
  23105550.180   -14065812.49249 -10948648.01646  23105549.961    23105557.033
  21798136.771   -19576054.69649 -15217668.38147  21798136.454    21798143.460
  20382946.216    -3969767.13349  -3084510.16546  20382946.230    20382951.722
  23681389.424    -9427499.33849  -7326484.06946  23681389.485    23681398.998
  23725499.969    15214706.33049  12908895.85245  23725499.288    23725507.841
  21882961.450   -18405674.26449   6765681.20047  21882961.222    21882967.333
 04  7 21  0  3 30.0000000  0  8G 3G23G16G27G13G 8G20G 1
  23734099.735   -10880388.85049  -3219585.00645  23734099.454    23734109.898
  21047223.138     2365572.20049   1847257.37147  21047222.871    21047225.753
  23121429.065   -13982368.30349 -10883626.62546  23121428.888    23121435.875
  21789324.143   -19622365.21149 -15253754.46747  21789323.965    21789330.686
  20378272.611    -3994325.80749  -3103646.79446  20378272.915    20378278.425
  23665220.330    -9512471.84549  -7392696.31446  23665219.759    23665229.154
  23746940.079    15327373.29349  12996688.18045  23746939.166    23746948.096
  21894935.890   -18342745.97449   6814716.17647  21894935.733    21894942.705
 04  7 21  0  4  0.0000000  0  8G 3G23G16G27G13G 8G20G 1
  23723569.254   -10935729.63549  -3262707.56845  23723569.073    23723579.757
  21057287.350     2418460.56249   1888469.05747  21057287.084    21057290.345
  23137371.947   -13898589.08149 -10818344.15246  23137371.641    23137378.498
  21780548.421   -19668482.32849 -15289689.85047  21780548.200    21780554.824
  20373666.059    -4018533.64249  -3122510.03146  20373666.434    20373671.961
  23649077.881    -9597300.90449  -7458796.84546  23649077.264    23649086.588
  23768400.206    15440145.67849  13084562.64145  23768399.459    23768408.362
  21906963.924   -18279534.49349   6863971.89047  21906963.826    21906972.104
 04  7 21  0  4 30.0000000  0  8G 3G23G16G27G13G 8G20G 1
  23713107.543   -10990711.56049  -3305550.56245  23713107.216    23713116.996
  21067418.816     2471702.45949   1929956.22947  21067418.540    21067422.051
  23153378.109   -13814475.85649 -10752801.41646  23153377.850    23153384.536
  21771809.669   -19714404.55649 -15325473.38647  21771809.430    21771816.005
  20369127.144    -4042387.89149  -3141097.73946  20369127.167    20369132.658
  23632962.890    -9681984.61049  -7524784.09645  23632962.471    23632971.537
  23789879.420    15553022.36249  13172518.38145  23789879.359    23789888.388
  21919046.645   -18216038.46349   6913449.31747  21919046.430    21919055.654
 04  7 21  0  5  0.0000000  0  8G 3G23G16G27G13G 8G20G 1
  23702714.073   -11045332.21449  -3348112.08246  23702713.732    23702722.551
  21077617.368     2525297.18549   1971718.33747  21077617.179    21077620.844
  23169447.490   -13730031.39249 -10687000.55146  23169447.175    23169453.892
  21763107.848   -19760132.49549 -15361105.52747  21763107.594    21763114.279
  20364655.375    -4065887.12549  -3159408.81646  20364655.353    20364660.718
  23616875.760    -9766523.09849  -7590658.13845  23616875.179    23616883.903
  23811378.504    15666000.45949  13260553.15245  23811378.755    23811387.582
  21931183.686   -18152258.38049   6963148.07447  21931183.517    21931192.958
 04  7 21  0  5 30.0000000  0  8G 3G23G16G27G13G 8G20G 1
  23692389.166   -11099589.24449  -3390390.26346  23692388.990    23692397.226
  21087883.125     2579244.20649   2013754.94447  21087882.992    21087886.696
  23185579.120   -13645258.96649 -10620944.16146  23185579.017    23185585.791
  21754442.931   -19805666.67449 -15396586.68247  21754442.783    21754449.443
  20360251.019    -4089030.61849  -3177442.70646  20360251.381    20360256.711
  23600816.308    -9850916.21849  -7656418.89345  23600815.516    23600823.694
  23832896.677    15779076.81249  13348664.45945  23832896.798    23832905.011
  21943375.071   -18088194.80249   7013067.72847  21943374.797    21943383.939
 04  7 21  0  6  0.0000000  0  8G 3G23G16G27G13G 8G20G 1
  23682134.155   -11153478.79049  -3432382.10246  23682133.951    23682141.748
  21098216.165     2633544.50449   2056066.82248  21098216.019    21098219.917
  23201773.367   -13560159.74049 -10554633.13046  23201773.086    23201779.344
  21745815.254   -19851006.02549 -15431916.01647  21745815.055    21745821.736
  20355915.798    -4111815.79349  -3195197.38046  20355915.613    20355920.758
  23584784.525    -9935162.44149  -7722065.22245  23584783.974    23584791.678
  23854432.867    15892249.73549  13436851.00745  23854432.792    23854441.155
  21955620.609   -18023846.86949   7063208.94947  21955620.279    21955628.819
 04  7 21  0  6 30.0000000  0  8G 3G23G16G27G13G 8G20G 1
  23671949.018   -11206997.70449  -3474085.12045  23671948.942    23671956.748
  21108616.398     2688197.98949   2098653.93348  21108616.239    21108620.461
  23218029.179   -13474735.99149 -10488069.20946  23218028.883    23218034.881
  21737224.574   -19896150.64849 -15467093.61847  21737224.383    21737231.089
  20351648.370    -4134241.09349  -3212671.64346  20351648.326    20351653.149
  23568781.227   -10019260.38049  -7787596.01245  23568780.663    23568788.476
  23875986.048    16005516.96149  13525111.08045  23875986.190    23875994.926
  21967920.088   -17959214.64549   7113571.68347  21967919.755    21967927.769
 04  7 21  0  7  0.0000000  0  8G 3G23G16G27G13G 8G20G 1
  23661834.596   -11260144.68949  -3515498.35345  23661834.594    23661842.686
  21119083.512     2743203.43949   2141515.31648  21119083.373    21119087.825
  23234345.989   -13388991.50649 -10421255.35946  23234345.568    23234351.733
  21728670.689   -19941101.67549 -15502120.36348  21728670.534    21728677.293
  20347449.511    -4156306.16849  -3229865.22447  20347449.613    20347454.339
  23552806.306   -10103211.36349  -7853012.28545  23552805.243    23552813.202
  23897557.036    16118874.57449  13613441.56545  23897557.196    23897565.803
  21980273.296   -17894299.52549   7164154.85747  21980272.983    21980280.614
 04  7 21  0  7 30.0000000  0  8G 3G23G16G27G13G 8G20G 1
  23651791.867   -11312916.66049  -3556619.33345  23651791.946    23651800.534
  21129617.704     2798561.04749   2184651.10948  21129617.600    21129622.124
  23250722.673   -13302928.09249 -10354193.02845  23250722.420    23250728.913
  21720153.780   -19985858.86749 -15536996.07148  21720153.570    21720160.422
  20343319.601    -4178009.13949  -3246776.63347  20343319.772    20343324.337
  23536858.885   -10187014.39849  -7918313.28546  23536857.972    23536866.118
  23919145.181    16232320.39549  13701840.80045  23919145.260    23919153.639
  21992680.389   -17829101.09449   7214958.79947  21992680.124    21992687.423
 04  7 21  0  8  0.0000000  0  8G 3G23G16G27G13G 8G20G 1
  23641821.479   -11365310.13249  -3597445.38245  23641821.378    23641830.562
  21140219.230     2854271.29149   2228061.67848  21140219.060    21140223.462
  23267159.961   -13216547.99249 -10286883.90545  23267159.790    23267165.841
  21711673.712   -20030421.68549 -15571720.33048  21711673.511    21711680.410
  20339258.963    -4199347.97049  -3263404.31447  20339259.174    20339263.554
  23520939.691   -10270668.14449  -7983497.97646  23520939.163    23520947.494
  23940750.242    16345852.47649  13790307.23745  23940750.102    23940758.205
  22005141.601   -17763618.92049   7265983.82747  22005141.297    22005148.367
 04  7 21  0  8 30.0000000  0  8G 3G23G16G27G13G 8G20G 1
  23631923.253   -11417324.40049  -3637975.93645  23631923.091    23631932.646
  21150887.384     2910331.88649   2271745.23248  21150887.195    21150891.366
  23283657.149   -13129855.61749 -10219331.46145  23283656.849    23283662.667
  21703230.269   -20074792.24249 -15606294.77747  21703229.997    21703237.050
  20335267.593    -4220323.24549  -3279748.69047  20335267.817    20335272.167
  23505049.202   -10354174.28949  -8048567.63546  23505048.613    23505057.206
  23962371.159    16459466.39549  13878837.42746  23962370.576    23962378.615
  22017656.379   -17697855.20549   7317228.24047  22017656.053    22017662.944
 04  7 21  0  9  0.0000000  0  8G 3G23G16G27G13G 8G20G 1
  23622097.530   -11468956.97149  -3678209.07745  23622097.513    23622106.780
  21161622.116     2966742.43149   2315701.46947  21161621.894    21161625.800
  23300213.061   -13042853.60449 -10151537.76145  23300212.689    23300218.589
  21694823.270   -20118970.87849 -15640719.68547  21694822.987    21694830.111
  20331345.371    -4240933.73149  -3295808.81147  20331345.534    20331350.087
  23489186.811   -10437532.53749  -8113522.03446  23489186.175    23489194.911
  23984006.310    16573159.01749  13967428.93646  23984005.549    23984014.016
  22030224.272   -17631810.48549   7368691.61647  22030223.924    22030231.140
 04  7 21  0  9 30.0000000  0  8G 3G23G16G27G13G 8G20G 1
  23612345.036   -11520204.40049  -3718142.09645  23612345.125    23612353.978
  21172423.331     3023503.50849   2359930.82047  21172423.137    21172426.923
  23316827.434   -12955543.58949 -10083504.04645  23316827.246    23316833.100
  21686452.877   -20162956.84649 -15674994.44847  21686452.651    21686459.790
  20327492.709    -4261177.37049  -3311583.07246  20327492.990    20327497.866
  23473352.652   -10520741.44349  -8178360.06946  23473352.116    23473360.903
  24005655.883    16686928.56349  14056080.43646  24005655.111    24005664.330
  22042845.308   -17565484.14049   7420374.46147  22042844.997    22042852.924
 04  7 21  0 10  0.0000000  0  8G 3G23G16G27G13G 8G20G 1
  23602666.322   -11571064.09349  -3757772.97945  23602666.525    23602674.949
  21183291.267     3080614.97249   2404433.22447  21183290.953    21183294.742
  23333500.192   -12867928.36749 -10015232.45745  23333499.914    23333505.784
  21678119.223   -20206750.38849 -15709119.26647  21678119.060    21678126.103
  20323710.537    -4281052.82549  -3327070.41846  20323710.589    20323715.617
  23457547.193   -10603800.49349  -8243081.31146  23457546.430    23457555.275
  24027319.099    16800772.55849  14144789.95546  24027318.694    24027328.846
  22055519.685   -17498876.32349   7472276.60447  22055519.423    22055527.942
 04  7 21  0 10 30.0000000  0  8G 3G23G16G27G13G 8G20G 1
  23593062.676   -11621533.05249  -3797099.42945  23593062.751    23593070.734
  21194225.717     3138076.60949   2449208.51947  21194225.344    21194229.465
  23350229.980   -12780010.15949  -9946724.80945  23350229.873    23350235.896
  21669822.221   -20250351.61349 -15743094.22847  21669821.995    21669828.984
  20319998.492    -4300558.63749  -3342269.75346  20319998.498    20320003.621
  23441770.099   -10686709.16049  -8307685.39346  23441769.261    23441778.238
  24048996.755    16914688.41149  14233555.42446  24048996.375    24049006.870
  22068247.557   -17431987.14849   7524397.98546  22068247.382    22068256.230
 04  7 21  0 11  0.0000000  0  8G 3G23G16G27G13G 8G20G 1
  23583534.703   -11671609.63749  -3836120.10446  23583534.457    23583541.735
  21205226.678     3195887.46949   2494255.93247  21205226.237    21205230.792
  23367017.149   -12691792.07049  -9877983.52445  23367017.289    23367023.217
  21661561.669   -20293761.12349 -15776919.80647  21661561.393    21661568.335
  20316357.110    -4319693.90049  -3357180.35247  20316357.268    20316362.416
  23426021.111   -10769467.51549  -8372172.35946  23426020.664    23426029.791
  24070687.727    17028672.80649  14322374.33045  24070687.110    24070697.666
  22081028.667   -17364817.67349   7576737.81346  22081028.444    22081037.796
 04  7 21  0 11 30.0000000  0  8G 3G23G16G27G13G 8G20G 1
  23574081.526   -11721292.09649  -3874833.64846  23574081.161    23574088.097
  21216293.973     3254046.32049   2539574.50447  21216293.436    21216298.306
  23383861.779   -12603277.73249  -9809011.38546  23383861.628    23383867.108
  21653337.248   -20336980.05649 -15810596.88247  21653337.037    21653343.928
  20312786.599    -4338458.16049  -3371801.85347  20312786.720    20312791.624
  23410300.988   -10852076.23049  -8436542.72145  23410300.666    23410309.716
  24092391.473    17142722.16549  14411243.83945  24092390.593    24092400.091
  22093863.161   -17297369.11249   7629295.15346  22093863.087    22093872.455
 04  7 21  0 12  0.0000000  0  8G 3G23G16G27G13G 8G20G 1
  23564703.310   -11770577.41249  -3913237.75446  23564702.945    23564710.024
  21227427.218     3312553.28049   2585164.30847  21227426.788    21227432.004
  23400761.883   -12514469.35249  -9739810.10246  23400761.639    23400766.791
  21645149.177   -20380008.25949 -15844125.33547  21645148.985    21645155.848
  20309287.197    -4356849.77649  -3386132.97447  20309287.173    20309291.858
  23394609.516   -10934534.36349  -8500795.77945  23394609.458    23394618.100
  24114106.895    17256834.16749  14500162.15945  24114105.722    24114114.481
  22106752.004   -17229641.16749   7682070.14247  22106751.763    22106760.345
 04  7 21  0 12 30.0000000  0  8G 3G23G16G27G13G 8G20G 1
  23555401.035   -11819461.25749  -3951329.03646  23555400.884    23555408.027
  21238627.130     3371409.62149   2631026.36247  21238626.755    21238632.034
  23417717.403   -12425367.65949  -9670380.23446  23417717.132    23417722.344
  21636997.936   -20422844.13949 -15877503.91647  21636997.588    21637004.406
  20305858.864    -4374865.73249  -3400171.38847  20305858.847    20305863.665
  23378947.799   -11016839.68949  -8564929.67645  23378947.292    23378955.616
  24135832.504    17371007.90949  14589128.61045  24135831.941    24135840.615
  22119694.341   -17161632.57549   7735063.80447  22119694.053    22119701.638
 04  7 21  0 13  0.0000000  0  8G 3G23G16G27G13G 8G20G 1
  23546175.793   -11867942.22349  -3989106.36446  23546175.651    23546182.375
  21249893.366     3430614.12349   2677159.69947  21249893.085    21249898.167
  23434727.926   -12335976.33149  -9600724.73446  23434727.685    23434733.210
  21628882.693   -20465488.95849 -15910733.63747  21628882.437    21628889.315
  20302501.926    -4392505.92149  -3413916.98347  20302502.150    20302506.788
  23363314.857   -11098992.79849  -8628945.01045  23363313.806    23363322.080
  24157570.176    17485239.88849  14678140.35745  24157569.632    24157577.105
  22132689.635   -17093344.68749   7788275.10547  22132689.377    22132696.342
 04  7 21  0 13 30.0000000  0  8G 3G23G16G27G13G 8G20G 1
  23537028.025   -11916016.60749  -4026566.82146  23537027.704    23537033.787
  21261226.181     3490167.51249   2723564.89847  21261225.859    21261230.569
  23451793.672   -12246296.87549  -9530844.65746  23451793.381    23451799.113
  21620804.028   -20507941.60949 -15943813.59047  21620803.799    21620810.806
  20299217.057    -4409767.85149  -3427367.83747  20299217.285    20299222.112
  23347709.517   -11180992.45049  -8692840.80145  23347709.497    23347717.986
  24179318.458    17599528.37249  14767196.15445  24179317.668    24179324.503
  22145738.136   -17024776.77349   7841704.61947  22145737.924    22145744.723
 04  7 21  0 14  0.0000000  0  8G 3G23G16G27G13G 8G20G 1
  23527957.715   -11963682.35849  -4063708.89246  23527957.374    23527963.161
  21272625.327     3550069.46449   2770241.68947  21272625.028    21272629.273
  23468913.151   -12156331.86449  -9460742.11345  23468912.781    23468919.184
  21612761.833   -20550202.55949 -15976744.17247  21612761.617    21612768.792
  20296004.430    -4426650.07449  -3440522.82247  20296004.728    20296009.655
  23332135.235   -11262838.28349  -8756616.68246  23332134.799    23332143.269
  24201076.883    17713870.59849  14856293.85545  24201075.984    24201082.872
  22158839.839   -16955929.34449   7895351.93847  22158839.624    22158846.621
 04  7 21  0 14 30.0000000  0  8G 3G23G16G27G13G 8G20G 1
  23518965.459   -12010936.28849  -4100530.11646  23518965.110    23518971.362
  21284090.724     3610319.59449   2817189.78847  21284090.440    21284094.175
  23486086.223   -12066083.63549  -9390418.86545  23486086.210    23486092.833
  21604756.282   -20592271.72249 -16009525.30847  21604756.069    21604763.315
  20292864.716    -4443151.06249  -3453380.71247  20292864.812    20292869.476
  23316589.410   -11344529.45049  -8820272.08646  23316589.311    23316598.215
  24222844.725    17828264.26549  14945431.65145  24222844.174    24222850.946
  22171994.534   -16886802.41149   7949217.05547  22171994.198    22172001.718
 04  7 21  0 15  0.0000000  0  8G 3G23G16G27G13G 8G20G 1
  23510051.746   -12057776.38349  -4137028.87546  23510051.401    23510058.526
  21295622.228     3670917.15549   2864408.63047  21295621.967    21295625.382
  23503314.078   -11975555.35849  -9319877.37146  23503313.694    23503320.062
  21596787.138   -20634149.65949 -16042157.45947  21596786.955    21596794.212
  20289797.169    -4459270.02649  -3465940.95647  20289797.366    20289802.196
  23301073.349   -11426066.07449  -8883807.07046  23301073.353    23301082.483
  24244622.387    17942706.16849  15034607.05345  24244621.977    24244628.772
  22185201.807   -16817396.76149   8003299.33547  22185201.465    22185209.617
 04  7 21  0 15 30.0000000  0  8G 3G23G16G27G13G 8G20G 1
  23501216.542   -12104204.66649  -4173206.73046  23501216.307    23501223.958
  21307218.911     3731857.42249   2911894.53847  21307218.679    21307221.933
  23520593.043   -11884753.61949  -9249122.81345  23520592.463    23520599.211
  21588853.688   -20675840.73249 -16074643.99547  21588853.537    21588860.712
  20286801.806    -4475010.04249  -3478205.90747  20286802.099    20286806.963
  23285586.069   -11507451.69649  -8947224.37746  23285586.064    23285595.338
  24266408.160    18057189.63549  15123814.80245  24266407.695    24266415.162
  22198461.185   -16747716.88749   8057595.29147  22198460.876    22198469.527
 04  7 21  0 16  0.0000000  0  8G 3G23G16G27G13G 8G20G 1
  23492461.095   -12150213.25849  -4209057.54146  23492460.809    23492469.033
  21318881.851     3793145.39949   2959651.38847  21318881.605    21318884.636
  23537924.077   -11793675.83749  -9178153.15545  23537923.913    23537930.946
  21580956.843   -20717339.83249 -16106980.94148  21580956.694    21580963.748
  20283880.024    -4490364.40949  -3490170.33747  20283880.172    20283884.855
  23270128.378   -11588680.88849  -9010519.75346  23270128.496    23270137.826
  24288202.925    18171717.23849  15213056.96145  24288202.145    24288209.609
  22211773.661   -16677757.96549   8112108.71047  22211773.350    22211782.335
 04  7 21  0 16 30.0000000  0  9G 3G23G19G16G27G13G 8G20G 1
  23483784.802   -12195802.70349  -4244581.73045  23483784.397    23483793.463
  21330610.342     3854777.68649   3007676.50947  21330610.036    21330612.886
  24721657.860    -1634732.11049  -1037436.29046  24721657.292    24721664.603
  23555307.551   -11702327.59349  -9106972.72945  23555307.200    23555314.106
  21573095.910   -20758650.34949 -16139170.94048  21573095.716    21573102.654
  20281031.077    -4505335.07249  -3501835.78247  20281031.165    20281035.918
  23254700.574   -11669756.15149  -9073695.19146  23254700.216    23254709.565
  24310004.924    18286283.22349  15302329.03145  24310004.242    24310011.728
  22225138.375   -16607523.44449   8166836.89546  22225138.118    22225147.194
 04  7 21  0 17  0.0000000  0  9G 3G23G19G16G27G13G 8G20G 1
  23475188.701   -12240970.14749  -4279777.14845  23475188.149    23475198.158
  21342404.092     3916754.05749   3055969.73247  21342403.791    21342406.794
  24705923.463    -1717416.35649  -1101865.48446  24705922.637    24705930.737
  23572741.276   -11610711.10549  -9035583.33745  23572741.131    23572747.997
  21565270.688   -20799772.00949 -16171213.78248  21565270.653    21565277.396
  20278255.176    -4519920.29549  -3513200.90147  20278255.486    20278260.481
  23239301.383   -11750676.82249  -9136750.19646  23239301.406    23239310.573
  24331813.747    18400885.21649  15391629.12545  24331812.896    24331820.633
  22238556.068   -16537013.39249   8221779.77346  22238555.589    22238564.318
 04  7 21  0 17 30.0000000  0  9G 3G23G19G16G27G13G 8G20G 1
  23466673.544   -12285710.37149  -4314639.63745  23466673.342    23466684.366
  21354263.691     3979077.15349   3104533.14547  21354263.361    21354266.805
  24690198.840    -1800047.15749  -1166253.07146  24690198.042    24690206.637
  23590226.482   -11518825.92649  -8963984.52345  23590226.446    23590232.997
  21557482.187   -20840701.94249 -16203107.21548  21557482.046    21557488.641
  20275553.730    -4534116.07649  -3524262.53147  20275554.066    20275559.084
  23223932.569   -11831440.01649  -9199682.46146  23223932.696    23223941.529
  24353628.657    18515523.66649  15480957.65145  24353627.934    24353635.902
  22252026.352   -16466225.10349   8276939.43946  22252026.003    22252034.341
 04  7 21  0 18  0.0000000  0  9G 3G23G19G16G27G13G 8G20G 1
  23458240.619   -12330022.76449  -4349168.73845  23458240.598    23458251.840
  21366188.901     4041744.95249   3153365.17047  21366188.526    21366192.373
  24674484.777    -1882623.39449  -1230598.06746  24674484.002    24674491.990
  23607762.421   -11426676.43949  -8892179.79045  23607762.106    23607768.669
  21549729.748   -20881442.18449 -16234852.83447  21549729.563    21549735.965
  20272926.260    -4547922.46749  -3535020.75247  20272926.605    20272931.816
  23208593.588   -11912046.38249  -9262492.54546  23208593.875    23208602.400
  24375450.172    18630194.37949  15570311.26745  24375449.218    24375457.506
  22265549.352   -16395160.64449   8332314.27946  22265549.101    22265556.865
 04  7 21  0 18 30.0000000  0  9G 3G23G19G16G27G13G 8G20G 1
  23449889.936   -12373906.26749  -4383363.67045  23449889.510    23449900.849
  21378179.122     4104755.55649   3202464.31447  21378178.726    21378183.170
  24658781.029    -1965143.52949  -1294899.42846  24658780.343    24658788.394
  23625347.468   -11334266.63249  -8820172.23745  23625347.103    23625353.918
  21542012.991   -20921994.20149 -16266451.77747  21542012.785    21542019.130
  20270373.033    -4561339.72649  -3545475.74847  20270373.412    20270378.706
  23193284.960   -11992497.00549  -9325181.27246  23193284.703    23193293.186
  24397276.301    18744893.03349  15659686.68945  24397275.508    24397284.604
  22279124.628   -16323822.04649   8387902.73746  22279124.383    22279131.725
 04  7 21  0 19  0.0000000  0  9G 3G23G19G16G27G13G 8G20G 1
  23441621.305   -12417356.86549  -4417221.27945  23441620.814    23441632.363
  21390234.403     4168110.03149   3251831.41247  21390234.170    21390239.273
  24643089.005    -2047603.18849  -1359153.65046  24643088.306    24643096.696
  23642981.995   -11241597.45749  -8747962.53645  23642981.535    23642988.044
  21534332.180   -20962356.60949 -16297902.97947  21534331.993    21534338.398
  20267894.479    -4574365.00949  -3555625.31047  20267894.858    20267900.097
  23178005.370   -12072789.93349  -9387747.16146  23178005.461    23178014.050
  24419107.061    18859618.71449  15749083.17945  24419106.814    24419116.435
  22292752.486   -16252208.19749   8443705.70446  22292752.278    22292759.450
 04  7 21  0 19 30.0000000  0  9G 3G23G19G16G27G13G 8G20G 1
  23433436.215   -12460372.27949  -4450739.80546  23433435.669    23433446.486
  21402355.237     4231807.79149   3301466.00847  21402355.128    21402360.633
  24627409.008    -2129999.02049  -1423358.10845  24627408.391    24627416.606
  23660665.148   -11148671.48049  -8675552.79145  23660664.643    23660671.362
  21526687.196   -21002529.66349 -16329206.64947  21526687.125    21526693.685
  20265490.639    -4586997.17449  -3565468.55847  20265491.002    20265496.317
  23162756.459   -12152925.06749  -9450190.05646  23162756.178    23162764.724
  24440942.720    18974368.86849  15838498.77845  24440942.620    24440953.008
  22306433.022   -16180319.38149   8499722.92647  22306432.687    22306439.966
 04  7 21  0 20  0.0000000  0  9G 3G23G19G16G27G13G 8G20G 1
  23425334.415   -12502951.15149  -4483918.13046  23425333.739    23425343.371
  21414541.534     4295847.64349   3351367.16147  21414541.501    21414546.930
  24611741.543    -2212329.12849  -1487511.33445  24611741.047    24611748.990
  23678396.520   -11055492.00549  -8602945.47345  23678396.058    23678403.295
  21519078.261   -21042514.41949 -16360363.57547  21519078.033    21519084.905
  20263161.834    -4599235.88949  -3575005.21448  20263162.184    20263167.350
  23147537.332   -12232902.37949  -9512510.00246  23147536.903    23147545.438
  24462781.994    19089139.97649  15927930.69345  24462782.299    24462794.149
  22320165.548   -16108156.88749   8555953.41947  22320165.110    22320172.610
 04  7 21  0 20 30.0000000  0  9G 3G23G19G16G27G13G 8G20G 1
  23417315.651   -12545089.65149  -4516753.27846  23417315.119    23417323.959
  21426793.644     4360230.62249   3401535.66947  21426793.509    21426798.384
  24596087.677    -2294588.98649  -1551609.85445  24596086.995    24596095.432
  23696175.701   -10962060.31449  -8530141.60345  23696175.440    23696182.987
  21511505.188   -21082309.58149 -16391372.76747  21511505.195    21511512.184
  20260908.518    -4611078.36249  -3584233.10248  20260908.765    20260913.784
  23132348.362   -12312720.09849  -9574705.57046  23132348.118    23132356.682
  24484625.659    19203931.07349  16017378.18245  24484625.927    24484638.636
  22333950.110   -16035719.74449   8612397.90447  22333949.698    22333957.166
 04  7 21  0 21  0.0000000  0  9G 3G23G19G16G27G13G 8G20G 1
  23409381.087   -12586785.78249  -4549243.72946  23409380.842    23409389.288
  21439110.948     4424955.53449   3451970.60847  21439110.741    21439115.021
  24580447.382    -2376776.37749  -1615651.90045  24580446.731    24580455.879
  23714002.507   -10868379.58549  -8457143.67245  23714002.227    23714009.866
  21503968.338   -21121915.82749 -16422234.76147  21503968.203    21503975.477
  20258730.459    -4622524.06649  -3593151.83648  20258730.742    20258735.834
  23117189.891   -12392378.86749  -9636777.27246  23117189.483    23117198.269
  24506472.430    19318738.68249  16106838.56245  24506472.562    24506485.924
  22347786.593   -15963008.98549   8669055.58647  22347786.299    22347793.863
 04  7 21  0 21 30.0000000  0  9G 3G23G19G16G27G13G 8G20G 1
  23401531.292   -12628037.81349  -4581388.12646  23401531.156    23401539.417
  21451493.048     4490021.34949   3502671.19547  21451492.829    21451496.618
  24564821.571    -2458888.50049  -1679635.24745  24564820.910    24564830.730
  23731876.453   -10774452.68849  -8383953.98845  23731876.213    23731883.724
  21496467.315   -21161333.87249 -16452950.07947  21496467.146    21496474.619
  20256628.195    -4633572.29449  -3601760.84848  20256628.408    20256633.505
  23102061.169   -12471878.73649  -9698725.20246  23102061.126    23102070.024
  24528322.724    19433559.72349  16196309.38545  24528322.595    24528336.004
  22361674.954   -15890025.56149   8725925.76047  22361674.635    22361682.519
 04  7 21  0 22  0.0000000  0  9G 3G23G19G16G27G13G 8G20G 1
  23393766.524   -12668844.71549  -4613185.65046  23393766.491    23393774.392
  21463939.773     4555426.72549   3553636.37947  21463939.513    21463942.944
  24549210.313    -2540923.49449  -1743558.53245  24549209.955    24549219.685
  23749796.690   -10680283.32649  -8310575.31145  23749796.407    23749803.638
  21489001.574   -21200564.70749 -16483519.56047  21489001.524    21489009.415
  20254601.572    -4644222.65549  -3610059.82648  20254601.751    20254606.726
  23086963.102   -12551220.23249  -9760549.68546  23086962.868    23086971.819
  24550174.659    19548390.72349  16285787.99445  24550174.606    24550187.597
  22375614.418   -15816770.91349   8783007.26947  22375614.315    22375622.800
 04  7 21  0 22 30.0000000  0  9G 3G23G19G16G27G13G 8G20G 1
  23386087.256   -12709204.44849  -4644634.73146  23386087.117    23386094.320
  21476450.870     4621170.77849   3604865.46647  21476450.552    21476453.715
  24533615.726    -2622878.53949  -1807419.43145  24533615.111    24533624.115
  23767762.150   -10585874.20649  -8237009.82445  23767761.782    23767769.179
  21481571.836   -21239609.00249 -16513943.64947  21481571.608    21481579.669
  20252650.842    -4654474.22049  -3618048.05948  20252651.021    20252655.936
  23071895.144   -12630403.01649  -9822250.47246  23071894.830    23071903.776
  24572028.553    19663228.99749  16375272.15845  24572028.237    24572040.022
  22389605.589   -15743245.81749   8840299.49947  22389605.509    22389614.258
 04  7 21  0 23  0.0000000  0  9G 3G23G19G16G27G13G 8G20G 1
  23378493.560   -12749113.96549  -4675733.01346  23378493.295    23378499.616
  21489026.331     4687253.71749   3656358.61847  21489025.967    21489028.968
  24518036.364    -2704749.91149  -1871215.26545  24518035.657    24518045.037
  23785772.980   -10491227.08049  -8163258.84045  23785772.591    23785780.035
  21474177.383   -21278466.05949 -16544221.86647  21474177.346    21474185.563
  20250776.259    -4664325.21849  -3625724.16548  20250776.429    20250781.415
  23056857.504   -12709426.36749  -9883827.03546  23056857.220    23056866.208
  24593883.267    19778072.45449  16464760.42045  24593882.858    24593893.845
  22403648.437   -15669450.03349   8897802.66147  22403648.218    22403657.126
 04  7 21  0 23 30.0000000  0  9G 3G23G19G16G27G13G 8G20G 1
  23370985.385   -12788571.47449  -4706479.11446  23370985.074    23370990.726
  21501665.741     4753674.70249   3708115.18047  21501665.437    21501668.452
  24502473.577    -2786535.10749  -1934943.89745  24502472.760    24502481.687
  23803828.624   -10396345.06049  -8089324.83345  23803828.113    23803835.543
  21466818.982   -21317136.52449 -16574354.67647  21466818.661    21466826.861
  20248977.863    -4673774.77349  -3633087.46348  20248978.164    20248983.186
  23041850.031   -12788289.69549  -9945278.91946  23041850.009    23041859.022
  24615738.042    19892918.29449  16554250.46645  24615737.917    24615747.503
  22417742.370   -15595384.59649   8955515.96946  22417742.150    22417751.360
 04  7 21  0 24  0.0000000  0  9G 3G23G19G16G27G13G 8G20G 1
  23363563.371   -12827573.99349  -4736870.67146  23363563.142    23363568.483
  21514369.480     4820433.74549   3760135.17747  21514369.123    21514372.310
  24486927.730    -2868230.23649  -1998602.20945  24486926.695    24486933.006
  23821928.223   -10301229.86549  -8015209.14745  23821927.783    23821935.462
  21459495.801   -21355619.79649 -16604341.61947  21459495.670    21459503.624
  20247256.419    -4682821.06749  -3640136.52148  20247256.726    20247261.688
  23026873.773   -12866992.37249 -10006605.61246  23026873.516    23026882.333
  24637593.366    20007764.51049  16643740.80345  24637592.949    24637599.840
  22431887.913   -15521049.11649   9013439.67746  22431887.707    22431896.978
 04  7 21  0 24 30.0000000  0  9G 3G23G19G16G27G13G 8G20G 1
  23356228.211   -12866119.25749  -4766905.90946  23356228.050    23356233.314
  21527137.053     4887530.58949   3812418.42847  21527136.725    21527140.475
  24471398.960    -2949832.17449  -2062188.04945  24471397.705    24471403.058
  23840071.882   -10205884.05249  -7940913.71146  23840071.601    23840079.417
  21452208.344   -21393915.84549 -16634182.69147  21452208.255    21452216.105
  20245611.986    -4691462.43749  -3646870.06248  20245612.215    20245617.285
  23011928.147   -12945533.82949 -10067806.68746  23011927.734    23011936.296
  24659448.303    20122608.53049  16733229.48545  24659447.647    24659452.759
  22446084.921   -15446443.93749   9071573.53946  22446084.669    22446093.767
 04  7 21  0 25  0.0000000  0  9G 3G23G19G16G27G13G 8G20G 1
  23348980.562   -12904205.15549  -4796583.16946  23348980.278    23348985.898
  21539968.407     4954964.48349   3864964.32247  21539968.242    21539972.867
  24455888.135    -3031338.05349  -2125698.95544  24455887.044    24455891.106
  23858259.189   -10110310.19249  -7866440.61846  23858258.931    23858266.650
  21444956.795   -21432025.09149 -16663878.17947  21444956.456    21444963.955
  20244044.546    -4699698.27849  -3653287.60448  20244044.849    20244049.992
  22997012.882   -13023913.67449 -10128881.83146  22997012.410    22997021.046
  24681302.840    20237447.83749  16822714.46845  24681301.899    24681305.848
  22460332.873   -15371569.72349   9129917.04746  22460332.606    22460341.513
 04  7 21  0 25 30.0000000  0  9G 3G23G19G16G27G13G 8G20G 1
  23341820.569   -12941829.45449  -4825900.75146  23341820.245    23341826.734
  21552864.061     5022734.99649   3917772.50147  21552864.033    21552869.272
  24440395.503    -3112744.66249  -2189132.49544  24440394.898    24440399.423
  23876489.395   -10014510.53749  -7791791.59045  23876489.070    23876496.678
  21437740.218   -21469947.39449 -16693428.01147  21437740.181    21437747.446
  20242554.666    -4707527.35749  -3659388.18048  20242555.011    20242560.107
  22982128.280   -13102130.96949 -10189830.34246  22982127.934    22982136.605
  24703154.415    20352279.97249  16912193.92945  24703153.495    24703158.237
  22474631.734   -15296426.68149   9188470.00346  22474631.587    22474639.860
 04  7 21  0 26  0.0000000  0  9G 3G23G19G16G27G13G 8G20G 1
  23334748.830   -12978988.87749  -4854856.09246  23334748.342    23334756.287
  21565824.557     5090842.84849   3970843.54247  21565824.540    21565829.836
  24424922.819    -3194047.73948  -2252485.39545  24424917.362    24424929.017
  23894762.387    -9918486.63149  -7716967.80446  23894761.910    23894769.730
  21430559.752   -21507681.72949 -16722831.37847  21430559.582    21430566.515
  20241142.765    -4714946.78749  -3665169.56148  20241143.068    20241148.234
  22967275.174   -13180184.70049 -10250651.35746  22967274.866    22967283.023
  24725004.082    20467103.81249  17001666.90745  24725003.327    24725009.688
  22488981.992   -15221014.29949   9247232.83046  22488981.922    22488989.546
 04  7 21  0 26 30.0000000  0  9G 3G23G19G16G27G13G 8G20G 1
  23327765.615   -13015681.11249  -4883447.42646  23327765.306    23327774.550
  21578849.668     5159287.33749   4024176.87247  21578849.582    21578854.505
  24409468.976    -3275243.90049  -2315755.15545  24409464.826    24409481.516
  23913077.346    -9822240.66349  -7641971.04046  23913076.851    23913085.294
  21423414.944   -21545228.27649 -16752088.40147  21423414.808    21423421.389
  20239809.139    -4721955.54449  -3670630.93448  20239809.381    20239814.458
  22952453.217   -13258074.39749 -10311344.55446  22952452.878    22952460.555
  24746851.297    20581916.66749  17091131.31645  24746851.013    24746859.392
  22503383.982   -15145332.89449   9306205.30146  22503383.911    22503390.850
 04  7 21  0 27  0.0000000  0  9G 3G23G19G16G27G13G 8G20G 1
  23320871.894   -13051904.54749  -4911673.48946  23320871.667    23320881.727
  21591938.808     5228067.57649   4077771.79147  21591938.611    21591942.931
  24394040.352    -3356331.15249  -2378939.89345  24394037.686    24394051.472
  23931434.098    -9725775.87349  -7566803.72346  23931433.762    23931442.019
  21416305.775   -21582587.47549 -16781199.46747  21416305.580    21416311.922
  20238553.756    -4728552.93449  -3675771.76148  20238553.961    20238558.950
  22937662.109   -13335799.78149 -10371909.75146  22937661.898    22937669.510
  24768695.647    20696715.48749  17180584.78845  24768695.889    24768706.234
  22517837.247   -15069383.52149   9365386.59846  22517837.035    22517843.247
 04  7 21  0 27 30.0000000  0  8G 3G23G19G16G27G13G 8G 1
  23314067.902   -13087656.91049  -4939532.47246  23314067.678    23314078.330
  21605091.578     5297183.06249   4131627.95947  21605091.375    21605094.922
  24378631.365    -3437306.06849  -2442037.19145  24378629.196    24378643.295
  23949832.088    -9629094.47149  -7491467.61546  23949831.647    23949839.711
  21409232.253   -21619759.52949 -16810164.68347  21409231.987    21409238.108
  20237376.875    -4734737.88649  -3680591.21448  20237377.105    20237382.036
  22922902.739   -13413361.04549 -10432347.04546  22922902.394    22922909.917
  22532340.885   -14993166.79149   9424776.20846  22532340.605    22532346.715
 04  7 21  0 28  0.0000000  0  8G 3G23G19G16G27G13G 8G 1
  23307353.583   -13122937.66049  -4967023.96346  23307353.466    23307364.715
  21618307.571     5366631.66449   4185743.70647  21618307.337    21618310.253
  24363244.686    -3518167.18049  -2505045.76945  24363242.774    24363255.717
  23968270.409    -9532200.47249  -7415965.87146  23968270.011    23968278.020
  21402193.743   -21656746.07449 -16838985.36047  21402193.560    21402199.760
  20236278.560    -4740510.58649  -3685089.42148  20236278.726    20236283.611
  22908174.419   -13490758.99949 -10492657.07146  22908173.932    22908181.445
  22546895.055   -14916684.48949   9484372.73946  22546894.968    22546901.246
 04  7 21  0 28 30.0000000  0  8G 3G23G19G16G27G13G 8G 1
  23300729.262   -13157746.11249  -4994147.44146  23300729.411    23300741.067
  21631586.412     5436411.44149   4240117.49647  21631586.174    21631588.677
  24347880.510    -3598912.88149  -2567964.37546  24347878.762    24347889.883
  23986748.858    -9435097.90649  -7340301.55746  23986748.399    23986756.302
  21395190.405   -21693548.66649 -16867662.68247  21395190.169    21395196.363
  20235258.434    -4745871.48549  -3689266.75448  20235258.582    20235263.444
  22893476.664   -13567994.29849 -10552840.34746  22893476.317    22893483.735
  22561499.811   -14839938.90549   9544174.43247  22561499.618    22561506.277
 04  7 21  0 29  0.0000000  0  8G 3G23G19G16G27G13G 8G 1
  23294195.860   -13192079.38049  -5020900.62946  23294196.153    23294208.006
  21644928.233     5506522.65349   4294749.55747  21644927.978    21644930.175
  24332538.325    -3679538.98449  -2630789.83646  24332536.845    24332546.853
  24005266.252    -9337788.37549  -7264475.99546  24005265.791    24005273.701
  21388222.126   -21730166.39249 -16896195.97347  21388221.982    21388228.331
  20234317.089    -4750818.47949  -3693121.54848  20234317.273    20234322.028
  22878810.139   -13645066.16049 -10612896.22746  22878809.900    22878817.376
  22576154.392   -14762929.59049   9604181.67147  22576154.213    22576161.482
 04  7 21  0 29 30.0000000  0  8G 3G23G19G16G27G13G 8G 1
  23287753.902   -13225935.24749  -5047281.79646  23287753.982    23287765.721
  21658332.878     5576964.48349   4349639.23547  21658332.609    21658334.748
  24317218.691    -3760042.47049  -2693519.72046  24317217.491    24317227.168
  24023822.527    -9240274.36949  -7188491.10846  24023822.183    24023830.152
  21381289.114   -21766599.42949 -16924585.33747  21381289.002    21381295.306
  20233454.712    -4755350.32249  -3696652.85748  20233454.911    20233459.703
  22864175.183   -13721973.59549 -10672824.02646  22864174.812    22864182.483
  22590858.941   -14685657.00549   9664394.05246  22590858.783    22590866.658
 04  7 21  0 30  0.0000000  0  8G 3G23G19G16G27G13G 8G 1
  23281403.097   -13259311.66149  -5073289.37646  23281403.109    23281414.446
  21671800.101     5647736.55449   4404786.29347  21671799.856    21671802.370
  24301923.337    -3840420.45449  -2756151.83346  24301922.268    24301932.172
  24042417.744    -9142558.34249  -7112348.77845  24042417.290    24042425.137
  21374391.411   -21802847.90049 -16952830.87247  21374391.187    21374397.663
  20232671.479    -4759465.99749  -3699859.88148  20232671.743    20232676.570
  22849571.136   -13798717.03049 -10732624.06046  22849570.812    22849578.905
  22605613.338   -14608121.71049   9724811.09346  22605613.150    22605621.564
 04  7 21  0 30 30.0000000  0  8G 3G23G19G16G27G13G 8G 1
  23275143.943   -13292206.37649  -5098921.60446  23275143.822    23275154.609
  21685329.983     5718838.44249   4460190.36147  21685329.670    21685332.931
  24286653.069    -3920669.03449  -2818683.11946  24286652.040    24286661.574
  24061050.329    -9044642.20349  -7036050.56945  24061049.882    24061057.976
  21367528.674   -21838911.49949 -16980932.35447  21367528.358    21367535.066
  20231967.917    -4763164.08749  -3702741.50248  20231968.110    20231972.900
  22834998.647   -13875294.82549 -10792295.02146  22834998.460    22835006.709
  22620417.384   -14530323.84449   9785432.74246  22620417.222    22620426.473
 04  7 21  0 31  0.0000000  0  8G 3G23G19G16G27G13G 8G 1
  23268976.785   -13324616.89149  -5124176.53746  23268976.592    23268986.665
  21698922.404     5790270.13949   4515851.40847  21698922.209    21698926.099
  24271407.929    -4000784.82249  -2881110.91046  24271407.033    24271415.808
  24079720.579    -8946528.07249  -6959598.03045  24079720.396    24079728.397
  21360700.863   -21874789.84749 -17008889.47847  21360700.765    21360707.819
  20231344.067    -4766442.59349  -3705296.18348  20231344.172    20231348.996
  22820458.058   -13951706.70449 -10851836.69546  22820457.925    22820466.155
  22635271.147   -14452263.53349   9846258.93646  22635271.059    22635281.250
 04  7 21  0 31 30.0000000  0  8G 3G23G19G16G27G13G 8G 1
  23262901.617   -13356542.61749  -5149053.72246  23262901.478    23262911.027
  21712577.723     5862029.54349   4571767.80247  21712577.376    21712581.676
  24256188.273    -4080766.21349  -2943433.98946  24256187.500    24256195.889
  24098427.971    -8848219.70449  -6882994.16445  24098427.736    24098435.681
  21353908.214   -21910484.51749 -17036703.48047  21353908.037    21353915.420
  20230799.803    -4769302.22449  -3707524.47248  20230800.048    20230804.803
  22805949.555   -14027953.57349 -10911249.77746  22805948.920    22805956.987
  22650174.667   -14373942.76849   9907288.06946  22650174.690    22650185.334
 04  7 21  0 32  0.0000000  0  8G 3G23G19G16G27G13G 8G 1
  23256919.274   -13387980.85849  -5173551.02146  23256919.169    23256928.438
  21726295.483     5934116.52549   4627939.45147  21726295.109    21726299.647
  24240994.887    -4160609.43349  -3005649.41346  24240994.009    24241002.285
  24117172.038    -8749719.11649  -6806240.57545  24117171.739    24117179.522
  21347150.627   -21945994.84549 -17064373.83847  21347150.465    21347158.180
  20230335.734    -4771741.14449  -3709424.92448  20230336.010    20230340.659
  22791471.911   -14104034.36549 -10970533.45646  22791471.432    22791479.284
  22665128.325   -14295361.48549   9968520.17346  22665128.338    22665138.708
 04  7 21  0 32 30.0000000  0  8G 3G23G19G16G27G13G 8G 1
  23251030.073   -13418929.64549  -5197666.94846  23251029.866    23251039.076
  21740075.633     6006530.88649   4684366.20747  21740075.209    21740079.805
  24225828.100    -4240311.35349  -3067754.74846  24225827.169    24225835.499
  24135952.588    -8651028.36049  -6729338.77445  24135952.257    24135959.661
  21340428.158   -21981320.99949 -17091900.68047  21340428.049    21340435.839
  20229951.869    -4773757.94249  -3710996.45548  20229952.156    20229956.941
  22777026.270   -14179948.23849 -11029687.03946  22777025.693    22777033.192
  22680131.844   -14216519.96949  10029955.07046  22680131.681    22680141.599
 04  7 21  0 33  0.0000000  0  8G 3G23G19G16G27G13G 8G 1
  23245234.133   -13449387.40049  -5221400.29645  23245234.049    23245242.979
  21753917.987     6079271.50749   4741047.12747  21753917.526    21753921.940
  24210688.757    -4319869.34949  -3129747.99846  24210687.899    24210695.918
  24154768.393    -8552150.50949  -6652291.24345  24154767.993    24154775.243
  21333740.541   -22016463.15749 -17119284.22047  21333740.579    21333748.607
  20229648.419    -4775351.99949  -3712238.61748  20229648.756    20229653.667
  22762612.185   -14255695.15449 -11088710.64646  22762611.662    22762619.028
  22695184.514   -14137419.37749  10091591.74846  22695184.400    22695193.611
 04  7 21  0 33 30.0000000  0  8G 3G23G19G16G27G13G 8G 1
  23239532.347   -13479351.39149  -5244748.80645  23239532.147    23239540.634
  21767822.188     6152338.34949   4797982.27447  21767821.840    21767826.132
  24195577.582    -4399279.17849  -3191625.67045  24195576.452    24195584.006
  24173619.174    -8453086.91049  -6575098.92845  24173619.082    24173626.211
  21327088.602   -22051420.83649 -17146523.92347  21327088.414    21327096.453
  20229425.926    -4776521.58449  -3713149.97348  20229426.160    20229431.154
  22748230.475   -14331274.46449 -11147603.55046  22748229.508    22748236.868
  22710286.635   -14058059.48949  10153430.54546  22710286.575    22710294.767
 04  7 21  0 34  0.0000000  0  8G 3G23G19G16G27G13G 8G 1
  23233924.952   -13508819.91349  -5267711.23045  23233924.588    23233932.546
  21781788.564     6225731.02149   4855171.35847  21781788.211    21781792.362
  24180493.915    -4478537.90049  -3253385.59045  24180493.035    24180500.650
  24192505.150    -8353840.16249  -6497763.85045  24192505.147    24192512.071
  21320471.088   -22086194.02849 -17173619.91647  21320471.235    21320479.439
  20229284.205    -4777265.51249  -3713729.63248  20229284.458    20229289.604
  22733879.479   -14406685.79449 -11206365.57846  22733879.093    22733886.610
  22725437.880   -13978441.10949  10215470.81246  22725437.627    22725445.012
 04  7 21  0 34 30.0000000  0  8G 3G23G19G16G27G13G 8G 1
  23228412.350   -13537789.74249  -5290285.08845  23228411.895    23228419.909
  21795816.883     6299449.50449   4912614.30047  21795816.530    21795820.672
  24165440.317    -4557641.54249  -3315024.68445  24165439.655    24165446.746
  24211425.601    -8254411.72049  -6420287.18545  24211425.549    24211432.958
  21313889.627   -22120781.81549 -17200571.40947  21313889.411    21313897.618
  20229223.825    -4777581.80549  -3713976.08248  20229224.140    20229229.397
  22719561.848   -14481927.39749 -11264995.31146  22719561.165    22719568.560
  22740638.187   -13898563.76749  10277712.85646  22740637.963    22740644.454
 04  7 21  0 35  0.0000000  0  8G 3G23G19G16G27G13G 8G 1
  23222994.030   -13566262.07649  -5312471.29946  23222993.786    23223001.807
  21809906.453     6373490.27249   4970308.36647  21809906.126    21809910.200
  24150416.690    -4636589.80449  -3376542.70545  24150415.887    24150422.858
  24230379.852    -8154806.73849  -6342672.96045  24230379.776    24230387.734
  21307342.518   -22155187.20549 -17227380.79547  21307342.333    21307350.496
  20229244.588    -4777472.28849  -3713890.73348  20229244.985    20229250.248
  22705275.531   -14557001.64549 -11323494.71546  22705274.966    22705282.366
  22755887.163   -13818430.78149  10340154.09946  22755886.987    22755892.449
 04  7 21  0 35 30.0000000  0  8G 3G23G19G16G27G13G 8G 1
  23217671.033   -13594232.47649  -5334266.42645  23217670.832    23217678.925
  21824057.587     6447855.29849   5028255.11247  21824057.210    21824061.373
  24135423.217    -4715376.91049  -3437935.18245  24135422.446    24135430.883
  24249367.943    -8055025.16449  -6264921.11545  24249367.702    24249375.747
  21300830.583   -22189407.65249 -17254046.08647  21300830.432    21300838.505
  20229347.223    -4776933.35749  -3713470.78548  20229347.604    20229352.851
  22691021.347   -14631905.65149 -11381861.40846  22691020.854    22691028.555
  22771185.121   -13738040.14949  10402796.10346  22771184.877    22771189.885
 04  7 21  0 36  0.0000000  0  8G 3G23G19G16G27G13G 8G 1
  23212443.719   -13621699.63849  -5355669.41945  23212443.650    23212451.876
  21838269.957     6522543.11149   5086453.39047  21838269.621    21838273.739
  24120460.834    -4794000.61949  -3499200.33445  24120460.394    24120469.738
  24268388.642    -7955069.99249  -6187034.02445  24268388.435    24268396.160
  21294353.917   -22223443.89949 -17280567.81147  21294353.735    21294361.545
  20229531.677    -4775964.72049  -3712716.01148  20229531.996    20229537.254
  22676799.642   -14706639.71249 -11440095.69146  22676799.198    22676807.139
  22786531.428   -13657393.46549  10465637.60146  22786531.114    22786536.281
 04  7 21  0 36 30.0000000  0  8G 3G23G19G16G27G13G 8G 1
  23207312.999   -13648662.23549  -5376679.23545  23207312.902    23207321.002
  21852543.865     6597552.62849   5144902.34447  21852543.469    21852547.122
  24105530.167    -4872458.06249  -3560335.94345  24105530.069    24105539.930
  24287442.069    -7854943.89749  -6109013.78845  24287442.063    24287449.266
  21287912.233   -22257296.46449 -17306946.42647  21287911.875    21287919.610
  20229798.081    -4774565.64849  -3711625.82648  20229798.312    20229803.571
  22662610.762   -14781204.13249 -11498197.74746  22662610.211    22662617.994
  22801925.882   -13576491.67649  10528677.88746  22801925.616    22801931.354
 04  7 21  0 37  0.0000000  0  8G 3G23G19G16G27G13G 8G 1
  23202278.353   -13675120.39649  -5397295.96046  23202278.186    23202286.018
  21866878.468     6672881.55649   5203600.17947  21866878.076    21866881.398
  24090632.515    -4950747.84049  -3621340.85745  24090632.251    24090642.047
  24306527.709    -7754651.35849  -6030863.79545  24306527.471    24306534.075
  21281505.028   -22290967.11649 -17333183.28147  21281504.671    21281512.112
  20230146.125    -4772736.66349  -3710200.65548  20230146.381    20230151.624
  22648453.450   -14855599.90549 -11556168.47246  22648453.162    22648460.896
  22817368.602   -13495337.05849  10591915.15546  22817368.315    22817375.576
 04  7 21  0 37 30.0000000  0  8G 3G23G19G16G27G13G 8G 1
  23197339.966   -13701072.49149  -5417518.32846  23197339.786    23197347.387
  21881273.496     6748528.71649   5262546.00147  21881273.170    21881276.495
  24075767.815    -5028867.04049  -3682212.85346  24075767.322    24075776.100
  24325644.003    -7654194.64549  -5952585.91145  24325643.707    24325650.271
  21275132.305   -22324456.20349 -17359278.67047  21275132.072    21275139.346
  20230575.975    -4770477.09849  -3708439.96148  20230576.274    20230581.624
  22634329.085   -14929826.68349 -11614007.44246  22634328.151    22634335.948
  22832859.302   -13413930.43249  10655348.82146  22832858.962    22832868.029
 04  7 21  0 38  0.0000000  0  9G 3G23G19G16G27G13G10G 8G 1
  23192498.127   -13726515.95649  -5437344.37146  23192498.098    23192505.481
  21895729.172     6824494.26249   5321739.89547  21895728.952    21895732.255
  24060935.795    -5106811.90649  -3742949.00446  24060935.360    24060943.366
  24344791.386    -7553575.56049  -5874181.50345  24344791.161    24344797.009
  21268794.605   -22357762.90749 -17385231.92647  21268794.140    21268801.101
  20231088.144    -4767785.40049  -3706342.55148  20231088.339    20231093.865
                   -605750.65349   -461472.84143
  22620236.146   -15003883.58049 -11671714.07847  22620235.517    22620243.405
  22848397.616   -13332271.83349  10718978.82546  22848397.653    22848407.937
 04  7 21  0 38 30.0000000  0  8G 3G23G19G16G27G13G 8G 1
  23187753.577   -13751448.42249  -5456772.21746  23187753.652    23187761.021
  21910245.791     6900778.15849   5381181.80847  21910245.442    21910248.342
  24046137.753    -5184578.68849  -3803546.41446  24046137.164    24046144.676
  24363969.408    -7452795.63749  -5795651.70545  24363968.876    24363974.192
  21262491.412   -22390886.64049 -17411042.62147  21262491.074    21262497.891
  20231682.825    -4764659.54249  -3703906.84948  20231683.117    20231688.733
  22606176.119   -15077769.56049 -11729287.49847  22606175.480    22606183.393
  22863985.053   -13250361.28149  10782805.14846  22863985.041    22863995.400
 04  7 21  0 39  0.0000000  0  8G 3G23G19G16G27G13G 8G 1
  23183106.614   -13775868.98849  -5475801.17346  23183106.539    23183114.209
  21924822.661     6977378.75249   5440870.51747  21924822.171    21924824.789
  24031374.086    -5262164.88649  -3864003.09346  24031373.456    24031380.179
  24383176.925    -7351857.99949  -5716999.07645  24383176.569    24383181.175
  21256222.841   -22423828.15149 -17436711.30346  21256222.424    21256229.234
  20232360.399    -4761099.75549  -3701133.01348  20232360.658    20232366.061
  22592148.219   -15151484.96149 -11786728.02146  22592147.712    22592155.846
  22879620.685   -13168200.23849  10846826.70746  22879620.576    22879630.664
 04  7 21  0 39 30.0000000  0  9G 3G23G19G16G27G13G10G 8G 1
  23178557.517   -13799774.55649  -5494428.85746  23178557.439    23178565.345
  21939459.495     7054296.78749   5500806.63047  21939459.039    21939462.228
  24016645.621    -5339565.94549  -3924315.48346  24016644.882    24016651.009
  24402414.428    -7250763.76649  -5638224.39245  24402414.289    24402418.103
  21249988.794   -22456586.09849 -17462236.95446  21249988.629    21249995.577
  20233121.041    -4757103.25949  -3698018.88848  20233121.242    20233126.261
                   -480016.48649   -351795.08443
  22578153.333   -15225027.83049 -11844034.10646  22578152.731    22578160.973
  22895304.293   -13085787.85349  10911044.13146  22895304.128    22895313.591
 04  7 21  0 40  0.0000000  0  9G 3G23G19G16G27G13G10G 8G 1
  23174106.074   -13823165.28649  -5512655.37445  23174106.111    23174114.658
  21954156.163     7131529.47349   5560987.94047  21954155.785    21954159.514
  24001952.545    -5416780.82349  -3984482.80946  24001951.625    24001957.299
  24421681.333    -7149517.09249  -5559330.95445  24421681.122    24421685.000
  21243789.616   -22489162.53849 -17487621.16046  21243789.411    21243796.451
  20233964.504    -4752671.33249  -3694565.46648  20233964.638    20233969.316
                   -561898.67949   -415588.01443
  22564191.082   -15298399.63549 -11901206.90746  22564190.437    22564198.700
  22911035.085   -13003126.83349  10975455.28946  22911034.759    22911043.337
 04  7 21  0 40 30.0000000  0  8G 3G23G19G16G27G13G 8G 1
  23169753.484   -13846038.06349  -5530478.28545  23169753.444    23169762.702
  21968912.831     7209077.41649   5621414.87247  21968912.489    21968916.489
  23987295.093    -5493804.94249  -4044501.50246  23987294.183    23987299.814
  24440976.505    -7048118.92349  -5480319.49645  24440976.326    24440981.215
  21237625.208   -22521556.15949 -17512862.92147  21237625.148    21237632.156
  20234891.296    -4747801.33549  -3690770.68448  20234891.446    20234895.858
  22550261.152   -15371598.69049 -11958245.11046  22550260.790    22550269.306
  22926812.747   -12920216.57549  11040060.64846  22926812.448    22926820.220
 04  7 21  0 41  0.0000000  0  8G 3G23G19G16G27G13G 8G 1
  23165499.921   -13868390.61749  -5547895.83145  23165499.788    23165509.500
  21983729.604     7286940.90849   5682087.67347  21983729.261    21983733.665
  23972674.438    -5570634.44349  -4104368.54146  23972673.544    23972679.409
  24460300.089    -6946570.80149  -5401191.09045  24460299.748    24460305.597
  21231495.994   -22553765.95049 -17537961.44647  21231495.821    21231502.787
  20235901.787    -4742491.56549  -3686633.21348  20235901.966    20235906.234
  22536364.608   -15444623.91049 -12015147.83546  22536364.190    22536372.960
  22942637.464   -12837056.72049  11104860.45646  22942637.054    22942644.646
 04  7 21  0 41 30.0000000  0  8G 3G23G19G16G27G13G 8G 1
  23161345.413   -13890222.83949  -5564907.95445  23161345.175    23161355.009
  21998605.950     7365117.48849   5743004.43347  21998605.762    21998610.361
  23958091.232    -5647267.44549  -4164082.48846  23958090.211    23958096.628
  24479651.508    -6844876.44349  -5321948.73545  24479651.120    24479657.850
  21225401.514   -22585793.52049 -17562917.97846  21225401.301    21225408.099
  20236995.786    -4736742.73649  -3682153.60948  20236995.939    20237000.250
  22522501.039   -15517476.54949 -12071916.09446  22522500.737    22522509.445
  22958508.355   -12753649.54549  11169853.00646  22958508.237    22958516.423
 04  7 21  0 42  0.0000000  0  8G 3G23G19G16G27G13G 8G 1
  23157290.171   -13911533.32949  -5581513.46245  23157289.872    23157299.721
  22013542.121     7443606.12249   5804164.38647  22013541.842    22013546.338
  23943545.649    -5723701.26049  -4223641.23445  23943544.641    23943552.072
  24499030.842    -6743038.49649  -5242594.58145  24499030.653    24499037.536
  21219341.468   -22617639.11249 -17587732.73446  21219341.226    21219347.974
  20238173.344    -4730554.03349  -3677331.24448  20238173.534    20238177.978
  22508670.815   -15590155.78649 -12128549.19246  22508670.511    22508679.015
  22974426.438   -12669995.94549  11235037.53746  22974426.596    22974435.330
 04  7 21  0 42 30.0000000  0  8G 3G23G19G16G27G13G 8G 1
  23153334.407   -13932321.76649  -5597712.19345  23153333.971    23153343.340
  22028537.221     7522404.66349   5865565.83147  22028536.931    22028541.427
  23929037.364    -5799934.01248  -4283043.30745  23929036.578    23929045.653
  24518437.163    -6641060.32649  -5163131.16345  24518436.789    24518443.995
  21213315.969   -22649304.15849 -17612406.78546  21213315.567    21213322.278
  20239434.539    -4723925.74749  -3672166.35548  20239434.801    20239439.375
  22494873.329   -15662662.89949 -12185048.18446  22494873.063    22494881.269
  22990391.925   -12586097.92949  11300412.52046  22990391.923    22990400.737
 04  7 21  0 43  0.0000000  0  8G 3G23G19G16G27G13G 8G 1
  23149478.171   -13952584.70649  -5613501.45445  23149477.891    23149486.854
  22043591.727     7601514.29149   5927209.65147  22043591.378    22043595.692
  23914566.160    -5875960.46448  -4342284.79845  23914566.793    23914578.252
  24537869.359    -6538942.65649  -5083559.04645  24537869.156    24537877.141
  21207324.834   -22680786.56349 -17636938.51746  21207324.784    21207331.290
  20240780.007    -4716855.32149  -3666656.94148  20240780.319    20240784.958
  22481109.160   -15734995.42049 -12241411.12647  22481108.812    22481116.723
  23006404.114   -12501954.58349  11365978.66346  23006403.998    23006412.295
 04  7 21  0 43 30.0000000  0  8G 3G23G19G16G27G13G 8G 1
  23145721.320   -13972321.68548  -5628880.96444  23145721.392    23145730.673
  22058705.252     7680933.23749   5989094.48547  22058704.776    22058708.657
  23900138.565    -5951779.18249  -4401364.08545  23900138.340    23900150.253
  24557328.002    -6436688.66149  -5003880.66945  24557327.815    24557335.567
  21201368.872   -22712087.47749 -17661328.83046  21201368.518    21201374.942
  20242209.766    -4709342.57649  -3660802.85748  20242210.079    20242214.677
  22467377.854   -15807154.22149 -12297638.70647  22467377.598    22467385.312
  23022462.752   -12417567.50349  11431734.74646  23022462.581    23022470.357
 04  7 21  0 44  0.0000000  0  8G 3G23G19G16G27G13G 8G 1
  23142065.164   -13991531.89949  -5643849.91744  23142065.043    23142074.941
  22073876.622     7760659.99649   6051219.17147  22073876.243    22073880.194
  23885750.792    -6027386.94749  -4460279.15245  23885750.708    23885762.948
  24576811.516    -6334301.22749  -4924098.28845  24576811.398    24576818.847
  21195446.979   -22743207.48949 -17685578.16346  21195446.737    21195453.043
  20243723.659    -4701387.23049  -3654603.89348  20243723.932    20243728.604
  22453679.695   -15879139.03049 -12353730.69547  22453679.361    22453687.051
  23038567.445   -12332937.86749  11497679.86446  23038567.271    23038575.116
 04  7 21  0 44 30.0000000  0  8G 3G23G19G16G27G13G 8G 1
  23138510.887   -14010214.21249  -5658407.54244  23138510.521    23138519.984
  22089106.371     7840693.39849   6113582.82747  22089106.100    22089110.305
  23871404.703    -6102781.23049  -4519027.90845  23871404.498    23871416.096
  24596319.612    -6231782.94749  -4844213.97845  24596319.682    24596327.788
  21189559.291   -22774146.97449 -17709686.85446  21189559.064    21189565.490
  20245321.618    -4692989.05249  -3648059.86548  20245321.926    20245326.755
  22440014.379   -15950950.18349 -12409687.39447  22440014.112    22440021.901
  23054718.127   -12248066.94449  11563812.99146  23054717.850    23054725.518
 04  7 21  0 45  0.0000000  0  8G 3G23G19G16G27G13G 8G 1
  23135056.779   -14028368.22149  -5672553.48344  23135056.391    23135064.891
  22104394.258     7921031.51649   6176183.91847  22104393.947    22104398.165
  23857099.999    -6177960.08949  -4577608.72546  23857099.442    23857109.787
  24615852.619    -6129137.18949  -4764230.30345  24615852.411    24615860.638
  21183705.944   -22804906.90749 -17733655.60846  21183705.576    21183712.194
  20247003.842    -4684148.00349  -3641170.74148  20247004.201    20247009.158
  22426382.040   -16022588.14749 -12465509.14547  22426381.779    22426389.631
  23070914.369   -12162956.45349  11630132.77246  23070914.009    23070921.738
 04  7 21  0 45 30.0000000  0  8G 3G23G19G16G27G13G 8G 1
  23131704.035   -14045991.46949  -5686285.84045  23131703.783    23131711.483
  22119739.787     8001674.51249   6239022.58047  22119739.494    22119743.795
  23842836.508    -6252919.24749  -4636018.40746  23842835.946    23842844.960
  24635409.232    -6026365.37249  -4684148.44345  24635409.171    24635417.248
  21177886.501   -22835486.30149 -17757483.71346  21177886.424    21177893.228
  20248770.856    -4674862.24849  -3633935.08848  20248771.188    20248776.209
  22412783.237   -16094051.52849 -12521194.83747  22412782.674    22412790.560
  23087155.971   -12077606.22149  11696639.42046  23087155.675    23087163.892
 04  7 21  0 46  0.0000000  0  8G 3G23G19G16G27G13G 8G 1
  23128452.551   -14063081.63949  -5699602.84145  23128452.085    23128459.748
  22135143.056     8082622.21049   6302098.69447  22135142.861    22135147.654
  23828615.810    -6327654.96049  -4694253.91946  23828615.221    23828622.413
  24654989.743    -5923468.78549  -4603969.34645  24654989.806    24654997.916
  21172101.770   -22865884.40749 -17781170.55346  21172101.759    21172108.831
  20250622.674    -4665130.31649  -3626351.76848  20250623.016    20250628.136
  22399217.216   -16165339.55649 -12576743.91247  22399216.895    22399224.950
  23103443.366   -11992016.24849  11763332.85746  23103443.078    23103451.397
 04  7 21  0 46 30.0000000  0  8G 3G23G19G16G27G13G 8G 1
  23125302.528   -14079637.71549  -5712503.66445  23125302.126
  22150604.096     8163873.51449   6365411.39847  22150603.927    22150609.420
  23814438.114    -6402164.41649  -4752313.12646  23814437.436    23814443.167
  24674593.884    -5820450.00749  -4523695.00045  24674593.973    24674602.034
  21166351.790   -22896101.57449 -17804716.38446  21166351.600    21166358.653
  20252559.620    -4654951.40649  -3618420.15648  20252559.974    20252565.127
  22385684.954   -16236451.58149 -12632155.82747  22385684.583    22385692.731
  23119776.462   -11906187.43749  11830212.34146  23119776.181    23119784.025
 04  7 21  0 47  0.0000000  0  8G 3G23G19G16G27G13G 8G 1
  23122253.960   -14095658.18749  -5724987.14145  23122253.627    23122261.005
  22166122.616     8245427.54649   6428959.98847  22166122.743    22166128.825
  23800303.605    -6476444.27049  -4810193.44146  23800302.873    23800307.729
  24694220.817    -5717310.97349  -4443326.95045  24694220.758    24694228.614
  21160636.017   -22926137.58449 -17828121.07146  21160635.866    21160642.994
  20254581.899    -4644324.80249  -3610139.68948  20254582.254    20254587.322
  22372186.277   -16307387.10049 -12687430.23347  22372186.028    22372194.021
  23136154.818   -11820120.63849  11897277.30946  23136154.563    23136162.290
 04  7 21  0 47 30.0000000  0  8G 3G23G19G16G27G13G 8G 1
  23119307.419   -14111141.15149  -5737051.78045  23119307.227    23119315.113
  22181699.510     8327284.16949   6492744.33347  22181699.539    22181705.785
  23786213.132    -6550490.79649  -4867891.94246  23786212.298    23786216.352
  24713869.944    -5614053.65349  -4362866.70645  24713869.824    24713877.766
  21154954.843   -22955991.99249 -17851384.21446  21154954.769    21154961.742
  20256689.780    -4633249.05449  -3601509.22048  20256690.055    20256695.067
  22358721.696   -16378145.19249 -12742566.34647  22358721.429    22358729.014
  23152578.266   -11733816.12949  11964527.53946  23152577.924    23152586.035
 04  7 21  0 48  0.0000000  0  8G 3G23G19G16G27G13G 8G 1
  23116463.305   -14126085.76149  -5748696.91745  23116462.947    23116471.875
  22197333.979     8409441.85249   6556763.25047  22197333.865    22197339.783
  23772167.194    -6624301.90149  -4925406.96746  23772166.432    23772170.091
  24733541.228    -5510680.91749  -4282316.57845  24733541.124    24733549.038
  21149308.188   -22985665.28449 -17874506.26846  21149308.208    21149315.152
  20258882.980    -4621724.13649  -3592528.75548  20258883.227    20258888.309
  22345290.648   -16448726.46349 -12797564.68647  22345290.387    22345297.737
  23169046.707   -11647275.20449  12031961.93746  23169046.453    23169054.648
 04  7 21  0 48 30.0000000  0  8G 3G23G19G16G27G13G 8G 1
  23113721.516   -14140491.13649  -5759921.89345  23113721.166    23113731.392
  22213025.626     8491899.20249   6621015.65147  22213025.511    22213030.509
  23758166.387    -6697874.59149  -4982736.24546  23758165.815    23758169.948
  24753234.489    -5407195.20749  -4201678.43745  24753234.063    24753242.343
  21143696.350   -23015157.78949 -17897487.42246  21143696.064    21143702.698
  20261161.710    -4609749.34349  -3583197.73248  20261161.959    20261167.139
  22331893.196   -16519130.27549 -12852424.74947  22331892.902    22331900.106
  23185559.475   -11560499.15349  12099579.56146  23185559.024    23185567.674
 04  7 21  0 49  0.0000000  0  7G 3G23G19G27G13G 8G 1
  23111082.481   -14154354.05449  -5770724.16745  23111082.161    23111093.663
  22228774.740     8574657.34249   6685502.43947  22228774.548    22228778.853
  23744211.240    -6771203.78649  -5039875.84246  23744210.678    23744216.268
  21138118.915   -23044467.53249 -17920326.18046  21138118.725    21138125.283
  20263526.532    -4597322.20449  -3573514.22648  20263526.782    20263531.984
  22318529.892   -16589354.83549 -12907145.11047  22318529.603    22318536.567
  23202115.898   -11473486.89849  12167381.27045  23202115.832    23202125.159
 04  7 21  0 49 30.0000000  0  7G 3G23G19G27G13G 8G 1
  23108547.494   -14167672.97948  -5781102.61644  23108546.876    23108559.196
  22244580.717     8657715.63249   6750223.13347  22244580.437    22244584.343
  23730302.668    -6844285.86249  -5096822.82146  23730302.584    23730309.604
  21132576.187   -23073594.12749 -17943022.23746  21132576.032    21132582.557
  20265977.676    -4584441.44049  -3563477.25548  20265977.866    20265983.141
  22305200.971   -16659398.82449 -12961724.76647  22305200.651    22305207.483
  23218717.691   -11386238.57949  12235366.87345  23218717.738    23218726.661
 04  7 21  0 50  0.0000000  0  7G 3G23G19G27G13G 8G 1
  23106116.290   -14180449.62149  -5791058.38244  23106115.779    23106127.382
  22260442.823     8741070.35449   6815174.80847  22260442.526    22260446.135
  23716442.721    -6917121.06849  -5153577.40846  23716442.617    23716449.821
  21127068.106   -23102540.47349 -17965577.81146  21127067.776    21127074.290
  20268514.645    -4571109.36749  -3553088.61448  20268514.839    20268520.162
  22291905.552   -16729265.47649 -13016166.24447  22291905.336    22291912.310
  23235363.761   -11298758.11349  12303533.37045  23235364.004    23235372.319
 04  7 21  0 50 30.0000000  0  7G 3G23G19G27G13G 8G 1
  23103788.766   -14192684.96349  -5800592.35644  23103788.139    23103798.203
  22276360.594     8824718.34149   6880354.98447  22276360.307    22276363.792
  23702630.208    -6989708.28849  -5210138.87545  23702629.563    23702637.109
  21121593.368   -23131308.89049 -17987994.75446  21121593.225    21121599.927
  20271137.435    -4557327.35049  -3542349.38448  20271137.553    20271142.809
  22278643.987   -16798956.20749 -13070470.64747  22278643.337    22278650.752
  23252053.954   -11211048.63249  12371878.34945  23252054.108    23252061.979
 04  7 21  0 51  0.0000000  0  7G 3G23G19G27G13G 8G 1
  23101564.368   -14204376.53549  -5809702.59644  23101563.380    23101572.009
  22292334.007     8908659.89749   6945763.92847  22292333.749    22292337.355
  23688865.134    -7062043.13449  -5266503.65746  23688864.599    23688872.153
  21116153.086   -23159897.68649 -18010271.74646  21116152.833    21116159.769
  20273846.137    -4543093.09249  -3531257.76848  20273846.288    20273851.488
  22265415.822   -16868468.88449 -13124636.32747  22265415.364    22265423.090
  23268788.726   -11123109.46849  12440402.27145  23268788.622    23268796.313
 04  7 21  0 51 30.0000000  0  7G 3G23G19G27G13G 8G 1
  23099443.613   -14215523.14649  -5818388.21345  23099442.499    23099449.891
  22308362.730     8992894.25349   7011401.07747  22308362.574    22308366.786
  23675149.539    -7134122.45149  -5322669.25746  23675148.924    23675155.643
  21110746.674   -23188306.82549 -18032408.72146  21110746.545    21110753.853
  20276640.923    -4528406.17649  -3519813.42648  20276641.103    20276646.290
  22252221.912   -16937803.37649 -13178663.15547  22252221.507    22252229.411
  23285566.884   -11034941.59649  12509104.45946  23285566.836    23285574.626
 04  7 21  0 52  0.0000000  0  7G 3G23G19G27G13G 8G 1
  23097426.307   -14226123.56349  -5826648.21545  23097425.695    23097432.157
  22324446.651     9077420.31249   7077265.54547  22324446.758    22324451.910
  23661482.916    -7205943.23249  -5378633.44346  23661482.207    23661488.443
  21105374.499   -23216536.60549 -18054405.93046  21105374.254    21105382.069
  20279522.078    -4513266.05149  -3508015.91248  20279522.149    20279527.301
  22239062.228   -17006959.28049 -13232550.82547  22239061.598    22239069.605
  23302388.925   -10946545.98949  12577984.06746  23302388.760    23302396.459
 04  7 21  0 52 30.0000000  0  7G 3G23G19G27G13G 8G 1
  23095513.210   -14236175.44449  -5834480.78245  23095512.779    23095519.155
  22340586.908     9162238.21649   7143357.37047  22340586.944    22340592.473
  23647865.724    -7277501.36249  -5434393.02946  23647865.093    23647871.323
  21100036.708   -23244585.57649 -18076262.22646  21100036.689    21100044.732
  20282489.641    -4497670.92949  -3495863.86648  20282489.784    20282494.949
  22225936.420   -17075935.18249 -13286298.24347  22225935.915    22225943.972
  23319254.228   -10857922.27049  12647041.44046  23319253.995    23319261.986
 04  7 21  0 53  0.0000000  0  7G 3G23G19G27G13G 8G 1
  23093704.979   -14245679.00249  -5841886.14845  23093704.589    23093711.089
  22356781.994     9247345.42049   7209674.63846  22356781.903    22356787.704
  23634299.299    -7348795.28549  -5489946.65746  23634298.565    23634304.550
  21094733.516   -23272455.20649 -18097978.80746  21094733.409    21094741.545
  20285543.805    -4481621.28749  -3483357.66248  20285543.940    20285549.103
  22212844.929   -17144731.90449 -13339906.04147  22212844.408    22212852.478
  23336162.185   -10769072.76149  12716274.77046  23336161.941    23336170.392
 04  7 21  0 53 30.0000000  0  8G 3G23G19G27G13G28G 8G 1
  23092000.314   -14254636.23148  -5848865.78444  23091999.811    23092006.859
  22373031.358     9332738.32149   7276214.57146  22373031.342    22373037.324
  23620783.002    -7419824.73949  -5545294.22446  23620782.083    23620787.918
  21089464.271   -23300148.26949 -18119557.75346  21089463.897    21089471.675
  20288684.002    -4465119.12249  -3470498.85148  20288684.206    20288689.346
  24774191.740    -3630150.54749  -2806459.37545  24774189.469    24774197.203
  22199787.015   -17213351.78249 -13393376.03347  22199786.627    22199794.552
  23353112.454   -10680001.14849  12785681.11746  23353112.265    23353120.739
 04  7 21  0 54  0.0000000  0  8G 3G23G19G27G13G28G 8G 1
  23090400.497   -14263043.05249  -5855416.57544  23090400.120    23090407.269
  22389336.499     9418419.29849   7342978.92546  22389336.274    22389341.849
  23607317.876    -7490583.24849  -5600430.66946  23607317.084    23607323.315
  21084228.770   -23327661.49349 -18140996.61446  21084228.631    21084236.235
  20291911.044    -4448160.97649  -3457284.71348  20291911.272    20291916.339
  24754111.563    -3735665.38449  -2888678.63945  24754109.729    24754119.629
  22186763.482   -17281791.69849 -13446705.78547  22186763.084    22186770.798
  23370105.187   -10590705.14649  12855262.34546  23370104.933    23370113.536
 04  7 21  0 54 30.0000000  0  8G 3G23G19G27G13G28G 8G 1
  23088906.184   -14270895.58149  -5861535.45844  23088905.662    23088913.461
  22405696.495     9504389.62549   7409968.74646  22405696.189    22405701.331
  23593905.841    -7561065.14549  -5655351.57846  23593904.959    23593911.613
  21079028.712   -23354992.14449 -18162293.17346  21079028.172    21079035.192
  20295225.565    -4430743.15549  -3443712.38348  20295225.798    20295230.763
  24734048.357    -3841087.83749  -2970825.89845  24734047.266    24734058.521
  22173774.679   -17350047.97149 -13499892.44347  22173774.306    22173781.903
  23387140.456   -10501182.97849  12925019.83046  23387140.310    23387149.394
 04  7 21  0 55  0.0000000  0  8G 3G23G19G27G13G28G 8G 1
  23087517.574   -14278193.66749  -5867222.29444  23087516.965    23087524.610
  22422111.355     9590647.65749   7477182.72647  22422111.054    22422115.352
  23580546.658    -7631268.33149  -5710055.29146  23580545.758    23580552.604
  21073862.619   -23382140.87949 -18183448.04146  21073862.228    21073868.920
  20298627.405    -4412866.08149  -3429782.19348  20298627.633    20298632.548
  24714004.627    -3946416.36349  -3052900.03045  24714004.210    24714015.195
  22160820.518   -17418121.53349 -13552936.73847  22160820.054    22160827.731
  23404218.561   -10411436.27749  12994952.29246  23404218.069    23404227.911
 04  7 21  0 55 30.0000000  0  8G 3G23G19G27G13G28G 8G 1
  23086234.194   -14284937.75649  -5872477.45744  23086233.434    23086241.318
  22438580.910     9677190.98049   7544619.00847  22438580.463    22438584.236
  23567240.549    -7701191.09449  -5764540.47246  23567239.759    23567246.657
  21068731.007   -23409109.20349 -18204462.31946  21068730.491    21068736.663
  20302116.374    -4394530.76849  -3415494.93548  20302116.617    20302121.623
  24693979.251    -4051650.58649  -3134900.62745  24693978.755    24693990.419
  22147901.089   -17486013.14349 -13605839.24347  22147900.687    22147908.078
  23421338.044   -10321467.43949  13065057.83546  23421337.855    23421348.542
 04  7 21  0 56  0.0000000  0  8G 3G23G19G27G13G28G 8G 1
  23085056.264   -14291127.24849  -5877300.40244  23085055.649    23085063.528
  22455104.079     9764018.22649   7612276.56047  22455103.654    22455107.358
  23553988.595    -7770830.75149  -5818805.03946  23553987.744    23553994.605
  21063633.336   -23435897.04749 -18225335.96245  21063632.940    21063638.984
  20305692.606    -4375736.52349  -3400850.07648  20305692.921    20305698.081
  24673972.437    -4156788.91349  -3216826.46245  24673971.843    24673983.288
  22135016.240   -17553722.54549 -13658599.76047  22135015.927    22135023.173
  23438500.974   -10231277.60549  13135335.53946  23438500.584    23438511.385
 04  7 21  0 56 30.0000000  0  8G 3G23G19G27G13G28G 8G 1
  23083983.923   -14296761.57849  -5881690.78544  23083983.092    23083990.939
  22471680.798     9851127.81949   7680154.10647  22471680.478    22471683.822
  23540790.830    -7840184.87049  -5872847.12646  23540790.030    23540796.983
  21058569.699   -23462505.04449 -18246069.49445  21058569.296    21058575.497
  20309356.265    -4356483.85349  -3385848.00948  20309356.555    20309361.791
  24653984.729    -4261829.87349  -3298676.37145  24653983.871    24653994.094
  22122166.320   -17621250.06149 -13711218.53847  22122165.863    22122172.951
  23455704.764   -10140868.36049  13205784.28846  23455704.415    23455716.008
 04  7 21  0 57  0.0000000  0  8G 3G23G19G27G13G28G 8G 1
  23083017.229   -14301839.06449  -5885647.23545  23083016.570    23083025.031
  22488311.277     9938519.60849   7748251.51947  22488310.886    22488313.505
  23527648.022    -7909249.61249  -5926663.72246  23527647.269    23527654.068
  21053540.618   -23488932.50149 -18266662.27145  21053540.148    21053546.385
  20313107.485    -4336770.92949  -3370487.30648  20313107.838    20313112.979
  24634015.084    -4366770.70749  -3380448.30145  24634014.307    24634024.407
  22109350.786   -17688594.41649 -13763694.63447  22109350.535    22109357.585
  23472951.174   -10050239.78849  13276403.83446  23472950.872    23472962.065
 04  7 21  0 57 30.0000000  0  8G 3G23G19G27G13G28G 8G 1
  23082156.482   -14306358.78649  -5889169.07545  23082156.326    23082165.000
  22504994.884    10026192.39749   7816567.94547  22504994.497    22504997.087
  23514561.146    -7978021.90349  -5980252.40146  23514560.329    23514566.645
  21048545.122   -23515179.03749 -18287114.16645  21048544.975    21048551.527
  20316946.348    -4316597.17749  -3354767.49048  20316946.780    20316951.826
  24614064.753    -4471609.67249  -3462140.85345  24614064.168    24614073.320
  22096570.552   -17755755.24049 -13816027.68847  22096570.203    22096577.335
  23490239.724    -9959392.84049  13347193.56846  23490239.215    23490249.547
 04  7 21  0 58  0.0000000  0  8G 3G23G19G27G13G28G 8G 1
  23081402.218   -14310321.40349  -5892256.82345  23081402.028    23081411.168
  22521731.340    10114143.67849   7885101.38847  22521731.030    22521733.964
  23501530.294    -8046500.18549  -6033612.00846  23501529.439    23501535.503
  21043584.638   -23541246.37249 -18307426.30045  21043584.162    21043591.071
  20320872.746    -4295963.94449  -3338689.62848  20320873.202    20320878.149
  24594134.738    -4576346.08349  -3543753.46445  24594133.586    24594142.401
  22083825.238   -17822733.21049 -13868218.27347  22083824.776    22083831.870
  23507568.691    -9868329.97949  13418151.57246  23507568.208    23507577.925
 04  7 21  0 58 30.0000000  0  8G 3G23G19G27G13G28G 8G 1
  23080754.053   -14313726.73849  -5894910.31145  23080753.966    23080763.374
  22538520.332    10202372.07849   7953850.74046  22538519.959    22538523.078
  23488555.745    -8114681.88349  -6086740.57046  23488554.862    23488561.301
  21038657.145   -23567134.44249 -18327598.87845  21038657.311    21038664.636
  20324886.760    -4274870.62249  -3322253.25148  20324887.133    20324892.099
  24574224.183    -4680978.45749  -3625285.02045  24574222.021    24574231.697
  22071114.526   -17889528.47549 -13920266.50147  22071114.056    22071121.135
  23524938.800    -9777052.46849  13489276.74645  23524938.402    23524946.396
 04  7 21  0 59  0.0000000  0  8G 3G23G19G27G13G28G 8G 1
  23080212.812   -14316573.36249  -5897128.48145  23080212.561    23080221.789
  22555361.283    10290877.14649   8022815.67546  22555361.010    22555364.669
  23475638.121    -8182563.31449  -6139635.19646  23475637.324    23475644.191
  21033765.255   -23592842.63549 -18347631.17044  21033765.188    21033772.861
  20328988.499    -4253315.98449  -3305457.41648  20328988.794    20328993.869
  24554333.231    -4785504.26249  -3706733.62245  24554331.201    24554340.993
  22058438.644   -17956140.38749 -13972171.84947  22058438.191    22058445.273
  23542349.695    -9685560.58449  13560569.02345  23542349.210    23542355.586
 04  7 21  0 59 30.0000000  0  8G 3G23G19G27G13G28G 8G 1
  23079777.619   -14318859.74849  -5898910.07446  23079777.592    23079786.609
  22572255.020    10379658.08549   8091995.60846  22572254.765    22572259.107
  23462778.710    -8250141.40749  -6192293.38646  23462777.887    23462784.713
  21028907.659   -23618370.68849 -18367523.20344  21028907.769    21028915.044
  20333178.033    -4231299.73649  -3288301.90048  20333178.294    20333183.418
  24534461.605    -4889921.39149  -3788097.52945  24534461.116    24534471.173
  22045797.880   -18022567.84849 -14023933.47247  22045797.352    22045804.481
  23559800.659    -9593855.27849  13632027.61545  23559800.339    23559805.580
 04  7 21  1  0  0.0000000  0  8G 3G23G19G27G13G28G 8G 1
  23079449.190   -14320585.81649  -5900255.05846  23079449.150    23079458.059
  22589201.028    10468713.15749   8161389.14546  22589200.882    22589205.721
  23449976.991    -8317413.41849  -6244713.10846  23449976.111    23449983.137
  21024083.533   -23643718.90748 -18387275.03844  21024083.792    21024092.000
  20337455.402    -4208821.80549  -3270786.63748  20337455.632    20337460.772
  24514612.358    -4994228.48149  -3869375.68445  24514612.129    24514622.294
  22033192.274   -18088811.39749 -14075551.77947  22033191.559    22033198.576
  23577292.276    -9501937.97449  13703651.29145  23577291.949    23577295.306
 04  7 21  1  0 30.0000000  0  8G 3G23G19G27G13G28G 8G 1
  23079227.477   -14321750.12649  -5901162.29346  23079227.534    23079236.522
  22606199.930    10558042.11149   8230996.05046  22606199.812    22606204.229
  23437234.002    -8384375.71549  -6296891.54846  23437233.290    23437240.451
  21019294.195   -23668886.65548 -18406886.34144  21019295.098
  20341820.923    -4185880.91949  -3252910.62648  20341821.140    20341826.245
  24494784.892    -5098422.76649  -3950565.87145  24494784.602    24494794.854
  22020621.611   -18154869.50149 -14127025.59147  22020621.131    22020628.041
  23594823.605    -9409808.97249  13775439.98445  23594822.988    23594825.750
 04  7 21  1  1  0.0000000  0  8G 3G23G19G27G13G28G 8G 1
  23079112.658   -14322352.46449  -5901631.64146  23079112.793    23079121.954
  22623250.995    10647643.35849   8300815.13946  22623250.958    22623254.704
  23424551.474    -8451026.06949  -6348826.84446  23424550.431    23424557.197
  21014537.904   -23693873.80349 -18426356.88344  21014539.217    21014545.709
  20346274.579    -4162477.04849  -3234673.83248  20346274.767    20346279.867
  24474978.880    -5202502.83549  -4031667.09245  24474978.536    24474988.047
  22008086.413   -18220742.17149 -14178354.91247  22008085.989    22008092.846
  23612393.837    -9317469.60949  13847392.65445  23612393.740    23612398.505
 04  7 21  1  1 30.0000000  0  8G 3G23G19G27G13G28G 8G 1
  23079104.954   -14322392.33149  -5901662.71246  23079105.119    23079114.511
  22640353.648    10737515.48849   8370845.32946  22640353.509    22640356.959
  23411928.422    -8517361.48849  -6400516.72146  23411927.429    23411933.720
  21009818.144   -23718680.85449 -18445687.03844  21009819.064    21009825.358
  20350816.436    -4138609.90649  -3216076.04048  20350816.573    20350821.740
  24455194.758    -5306466.83149  -4112677.90045  24455194.682    24455204.150
  21995586.531   -18286429.02149 -14229539.43547  21995586.233    21995593.068
  23630005.366    -9224921.01849  13919508.31845  23630005.098    23630011.682
 04  7 21  1  2  0.0000000  0  8G 3G23G19G27G13G28G 8G 1
  23079204.029   -14321869.94149  -5901255.65146  23079204.310    23079214.072
  22657507.389    10827656.57249   8441085.07646  22657507.213    22657510.585
  23399365.830    -8583379.58349  -6451959.31946  23399364.846    23399369.961
  21005131.888   -23743308.16049 -18464877.13644  21005132.729    21005138.774
  20355446.253    -4114280.10549  -3197117.75048  20355446.378    20355451.655
  24435433.639    -5410313.96649  -4193597.61545  24435433.062    24435442.638
  21983121.923   -18351930.80249 -14280579.75547  21983121.592    21983128.633
  23647655.565    -9132165.25049  13991785.51945  23647655.420    23647663.918
 04  7 21  1  2 30.0000000  0  8G 3G23G19G27G13G28G 8G 1
  23079410.390   -14320785.03349  -5900410.26646  23079410.716    23079420.583
  22674711.968    10918065.44649   8511533.48647  22674711.764    22674715.436
  23386863.857    -8649078.03249  -6503152.83546  23386862.862    23386866.663
  21000480.237   -23767755.99549 -18483927.38945  21000480.760    21000487.152
  20360164.159    -4089487.30549  -3177798.69748  20360164.301    20360169.610
  24415694.842    -5514042.34349  -4274424.80145  24415693.708    24415703.300
  21970692.529   -18417247.32649 -14331475.69847  21970692.176    21970699.192
  23665345.187    -9039203.34749  14064223.26246  23665345.203    23665355.081
 04  7 21  1  3  0.0000000  0  8G 3G23G19G27G13G28G 8G 1
  23079724.283   -14319136.39749  -5899125.59846  23079724.440    23079734.380
  22691966.871    11008741.50349   8582190.10647  22691966.559    22691971.120
  23374423.204    -8714453.36049  -6554094.56346  23374422.264    23374425.352
  20995862.899   -23792023.78449 -18502837.33845  20995863.096    20995869.371
  20364970.331    -4064230.57749  -3158118.14448  20364970.524    20364975.809
  24395978.756    -5617649.40049  -4355157.41645  24395977.806    24395986.931
  21958298.507   -18482377.64949 -14382226.53947  21958298.276    21958305.105
  23683073.995    -8946035.80349  14136821.30346  23683074.000    23683085.300
 04  7 21  1  3 30.0000000  0  8G 3G23G19G27G13G28G 8G 1
  23080145.272   -14316924.41849  -5897401.94746  23080145.458    23080155.298
  22709271.788    11099682.41249   8653053.09647  22709271.519    22709277.072
  23362044.594    -8779503.40049  -6604782.80446  23362043.594    23362046.546
  20991279.204   -23816112.21149 -18521607.53645  20991279.369    20991285.296
  20369864.706    -4038510.22449  -3138076.31848  20369864.966    20369870.201
  24376286.575    -5721134.36849  -4435794.96545  24376285.350    24376294.236
  21945940.125   -18547322.08549 -14432832.52547  21945939.692    21945946.447
  23700842.274    -8852664.65049  14209577.97446  23700842.297    23700853.927
 04  7 21  1  4  0.0000000  0  8G 3G23G19G27G13G28G 8G 1
  23080673.867   -14314147.35249  -5895237.97346  23080673.942    23080683.752
  22726627.316    11190888.16049   8724122.46847  22726627.124    22726633.236
  23349728.176    -8844224.33349  -6655214.62046  23349727.251    23349730.858
  20986730.165   -23840020.18949 -18540237.11845  20986730.049    20986735.948
  20374847.554    -4012325.13549  -3117672.34648  20374847.856    20374853.047
  24356616.110    -5824494.62749  -4516335.26845  24356616.204    24356625.643
  21933617.164   -18612079.55649 -14483292.85647  21933616.683    21933623.522
  23718650.032    -8759089.95549  14282493.23946  23718649.639    23718661.139
 04  7 21  1  4 30.0000000  0  8G 3G23G19G27G13G28G 8G 1
  23081309.922   -14310805.41649  -5892633.84846  23081310.021    23081319.696
  22744033.278    11282356.92849   8795396.80547  22744033.133    22744039.466
  23337475.028    -8908613.84649  -6705388.17246  23337474.202    23337478.384
  20982214.814   -23863748.28949 -18558726.53345  20982214.775    20982220.451
  20379918.744    -3985675.60249  -3096906.46848  20379919.036    20379924.219
  24336971.847    -5927728.51949  -4596777.18345  24336972.025    24336980.843
  21921329.613   -18676650.02849 -14533607.49247  21921329.259    21921336.253
  23736495.580    -8665313.40749  14355565.78646  23736495.146    23736506.745
 04  7 21  1  5  0.0000000  0  8G 3G23G19G27G13G28G 8G 1
  23082053.702   -14306897.95249  -5889589.07446  23082053.666    23082063.342
  22761489.381    11374087.67849   8866875.27347  22761489.129    22761495.365
  23325285.923    -8972668.97349  -6755301.19246  23325285.071    23325289.784
  20977733.532   -23887296.25749 -18577075.55745  20977733.359    20977739.762
  20385078.485    -3958560.99949  -3075778.20948  20385078.784    20385083.851
  24317351.770    -6030834.38749  -4677119.22945  24317351.747    24317360.507
  21909078.127   -18741032.88749 -14583775.90846  21909077.671    21909084.522
  23754379.073    -8571335.93249  14428794.91746  23754378.814    23754390.223
 04  7 21  1  5 30.0000000  0  8G 3G23G19G27G13G28G 8G 1
  23082905.064   -14302425.12949  -5886103.74146  23082904.977    23082914.465
  22778994.759    11466078.66149   8938556.51047  22778994.520    22779000.523
  23313160.627    -9036387.39149  -6804951.85147  23313159.865    23313165.266
  20973285.921   -23910664.40149 -18595284.50545  20973285.907    20973292.937
  20390326.779    -3930981.77049  -3054287.91948  20390326.990    20390331.917
  24297756.893    -6133810.88349  -4757360.49245  24297756.442    24297764.845
  21896861.823   -18805227.80649 -14633797.89846  21896861.668    21896868.501
  23772301.103    -8477159.16649  14502179.31846  23772300.757    23772311.267
 04  7 21  1  6  0.0000000  0  8G 3G23G19G27G13G28G 8G 1
  23083864.137   -14297385.87949  -5882177.05546  23083864.083    23083873.500
  22796549.463    11558329.12249   9010439.92746  22796549.387    22796555.003
  23301100.210    -9099765.51349  -6854337.30847  23301099.414    23301105.245
  20968872.996   -23933852.05348 -18613352.79145  20968872.794    20968880.899
  20395663.536    -3902937.10749  -3032434.95848  20395663.716    20395668.608
  24278186.416    -6236655.22649  -4837498.83245  24278185.882    24278194.526
  21884682.033   -18869234.50749 -14683673.18146  21884681.441    21884688.197
  23790260.545    -8382783.58449  14575718.63246  23790260.245    23790270.384
 04  7 21  1  6 30.0000000  0  8G 3G23G19G27G13G28G 8G 1
  23084930.872   -14291779.97249  -5877808.81446  23084930.875    23084940.319
  22814153.739    11650838.07449   9082524.77346  22814153.530    22814158.911
  23289105.145    -9162800.81549  -6903455.63146  23289104.228    23289110.405
  20964495.448   -23956859.25148 -18631280.42445  20964494.512    20964502.683
  20401088.754    -3874426.96749  -3010219.26848  20401088.960    20401093.958
  24258640.972    -6339365.96749  -4917533.03345  24258640.593    24258649.341
  21872537.477   -18933052.46549 -14733401.44946  21872537.237    21872543.839
  23808257.445    -8288210.40249  14649411.94546  23808257.256    23808267.457
 04  7 21  1  7  0.0000000  0  8G 3G23G19G27G13G28G 8G 1
  23086105.489   -14285607.68749  -5872999.24646  23086105.512    23086114.916
  22831806.488    11743603.45049   9154809.39046  22831806.210    22831811.693
  23277175.601    -9225490.70049  -6952304.85746  23277174.638    23277181.220
  20960151.179   -23979686.11849 -18649067.67945  20960150.200    20960159.095
  20406602.531    -3845451.35949  -2987640.85148  20406602.743    20406607.914
  24239121.900    -6441941.81249  -4997462.11645  24239120.677    24239129.651
  21860429.261   -18996682.26849 -14782983.07246  21860428.880    21860435.513
  23826291.615    -8193441.42049  14723257.81646  23826291.501    23826301.719
 04  7 21  1  7 30.0000000  0  8G 3G23G19G27G13G28G 8G 1
  23087388.032   -14278868.17749  -5867747.67946  23087388.074    23087397.308
  22849507.030    11836624.12949   9227292.96446  22849506.937    22849512.330
  23265311.855    -9287832.28349  -7000882.71946  23265311.061    23265318.043
  20955842.233   -24002332.72049 -18666714.32145  20955841.313    20955849.714
  20412204.947    -3816009.78649  -2964699.35148  20412205.175    20412210.511
  24219627.733    -6544380.71149  -5077284.52845  24219626.014    24219636.218
  21848357.121   -19060122.58249 -14832417.04746  21848356.607    21848363.160
  23844363.148    -8098477.47249  14797255.56046  23844362.980    23844372.642
 04  7 21  1  8  0.0000000  0  8G 3G23G19G27G13G28G 8G 1
  23088779.008   -14271560.24249  -5862053.17946  23088778.891    23088787.838
  22867256.650    11929900.15549   9299975.47046  22867256.647    22867261.682
  23253515.402    -9349821.89849  -7049186.28546  23253514.587    23253521.430
  20951568.297   -24024797.70449 -18684219.53245  20951566.769    20951574.720
  20417896.271    -3786101.21849  -2941393.97248  20417896.594    20417901.892
  24200160.207    -6646679.84449  -5156998.04945  24200158.789    24200169.484
  21836321.010   -19123372.31649 -14881702.51847  21836320.650    21836327.235
  23862471.280    -8003318.59749  14871405.24745  23862471.116    23862480.511
 04  7 21  1  8 30.0000000  0  8G 3G23G19G27G13G28G 8G 1
  23090277.779   -14263685.44949  -5855916.97146  23090277.493    23090286.208
  22885054.976    12023428.18149   9372854.39146  22885054.697    22885059.573
  23241786.372    -9411458.45749  -7097214.74546  23241785.357    23241792.013
  20947327.753   -24047082.77149 -18701584.49445  20947326.966    20947334.247
  20423676.256    -3755727.06349  -2917725.80248  20423676.593    20423681.778
  24180719.285    -6748839.20649  -5236602.62345  24180718.179    24180728.844
  21824321.030   -19186433.15849 -14930840.80647  21824320.687    21824327.224
  23880615.673    -7907967.77249  14945704.45545  23880615.664    23880624.330
 04  7 21  1  9  0.0000000  0  8G 3G23G19G27G13G28G 8G 1
  23091884.851   -14255241.02449  -5849336.89046  23091884.371    23091892.875
  22902900.670    12117209.26449   9445930.53646  22902900.442    22902905.166
  23230125.469    -9472736.88949  -7144964.15246  23230124.449    23230130.745
  20943122.904   -24069185.76349 -18718807.59945  20943122.285    20943128.059
  20429545.232    -3724885.20749  -2893693.18048  20429545.610    20429550.710
  24161305.690    -6850854.81749  -5316095.19245  24161305.185    24161315.536
  21812357.519   -19249302.26249 -14979829.66147  21812357.229    21812363.781
  23898797.008    -7812423.99249  15020153.95645  23898796.940    23898804.303
 04  7 21  1  9 30.0000000  0  8G 3G23G19G27G13G28G 8G 1
  23093599.520   -14246229.54249  -5842314.95846  23093599.174    23093607.418
  22920794.613    12211239.54349   9519200.80446  22920794.383    22920797.847
  23218532.865    -9533657.04549  -7192434.34746  23218531.835    23218537.598
  20938950.719   -24091108.77949 -18735890.44544  20938950.076    20938956.039
  20435502.861    -3693577.81649  -2869297.79748  20435503.245    20435508.319
  24141920.533    -6952727.43049  -5395476.28445  24141919.488    24141929.046
  21800430.069   -19311981.50749 -15028670.60247  21800429.846    21800436.551
  23917012.800    -7716690.88648  15094751.12445  23917012.592    23917021.445
 04  7 21  1 10  0.0000000  0  8G 3G23G19G27G13G28G 8G 1
  23095422.570   -14236648.40449  -5834849.11446  23095422.362    23095430.427
  22938736.047    12305520.24749   9592666.19046  22938735.684    22938738.487
  23207009.408    -9594213.66149  -7239621.26046  23207008.303    23207013.548
  20934816.033   -24112849.59148 -18752831.24844  20934814.441    20934818.296
  20441549.565    -3661802.51649  -2844537.81648  20441549.899    20441555.029
  24122562.783    -7054452.71149  -5474742.61345  24122561.678    24122570.462
  21788539.469   -19374468.47849 -15077361.69747  21788539.009    21788545.743
  23935263.900    -7620767.15548  15169496.79745  23935264.434    23935275.105
 04  7 21  1 10 30.0000000  0  7G 3G23G19G13G28G 8G 1
  23097354.711   -14226494.53649  -5826937.01446  23097354.654    23097362.669
  22956724.611    12400052.75849   9666327.82746  22956724.410    22956727.616
  23195555.797    -9654401.18849  -7286520.60746  23195554.802    23195560.060
  20447685.889    -3629556.24349  -2819410.84048  20447686.151    20447691.343
  24103234.190    -7156026.16249  -5553890.58945  24103233.088    24103241.151
  21776685.590   -19436759.66049 -15125900.24147  21776685.294    21776692.171
  23953552.915    -7524651.09949  15244392.29345  23953553.791    23953565.802
 04  7 21  1 11  0.0000000  0  7G 3G23G19G13G28G 8G 1
  23099395.133   -14215773.20249  -5818582.71846  23099394.962    23099403.066
  22974760.213    12494830.40849   9740180.46646  22974759.974    22974763.609
  23184171.774    -9714222.68149  -7333134.71346  23184170.913    23184176.595
  20453910.723    -3596844.72049  -2793921.33448  20453910.972    20453916.157
  24083933.604    -7257451.55149  -5632923.19245  24083932.571    24083939.626
  21764868.164   -19498860.77549 -15174290.65447  21764867.646    21764874.649
  23971878.492    -7428349.51549  15319432.41045  23971879.272    23971891.944
 04  7 21  1 11 30.0000000  0  7G 3G23G19G13G28G 8G 1
  23101543.297   -14204485.06249  -5809786.76446  23101543.034    23101551.154
  22992841.867    12589851.26249   9814222.64646  22992841.628    22992845.675
  23172858.141    -9773675.75149  -7379461.74046  23172857.315    23172863.142
  20460224.146    -3563667.85549  -2768069.22748  20460224.391    20460229.525
  24064661.292    -7358727.61349  -5711839.44345  24064660.551    24064667.046
  21753086.354   -19560771.37849 -15222532.63847  21753086.003    21753093.278
  23990240.765    -7331864.29749  15394615.54345  23990241.207    23990252.988
 04  7 21  1 12  0.0000000  0  7G 3G23G19G13G28G 8G 1
  23103799.288   -14192629.74249  -5800548.85046  23103798.923    23103807.195
  23010969.370    12685114.02249   9888453.30646  23010969.367    23010973.728
  23161615.291    -9832757.67349  -7425499.54846  23161614.388    23161619.961
  20466626.029    -3530025.92649  -2741854.74848  20466626.279    20466631.418
  24045418.333    -7459852.54849  -5790637.91845  24045417.374    24045423.614
  21741341.079   -19622491.31149 -15270626.03546  21741340.674    21741348.239
  24008637.727    -7235196.55649  15469940.94446  24008637.953    24008649.159
 04  7 21  1 12 30.0000000  0  7G 3G23G19G13G28G 8G 1
  23106162.999   -14180206.59249  -5790868.46846  23106162.757    23106171.113
  23029143.579    12780617.97549   9962871.88746  23029143.445    23029147.904
  23150443.599    -9891464.99049  -7471245.44746  23150442.752    23150448.188
  20473116.488    -3495918.25749  -2715277.36148  20473116.816    20473121.961
  24026204.412    -7560823.96749  -5869316.79145  24026203.266    24026209.630
  21729632.485   -19684019.29549 -15318569.88747  21729632.189    21729639.785
  24027068.739    -7138346.81849  15545408.16946  24027068.824    24027079.377
 04  7 21  1 13  0.0000000  0  8G 3G23G19G13G28G10G 8G 1
  23108635.086   -14167214.81349  -5780744.98846  23108634.825    23108643.131
  23047363.707    12876362.43249  10037477.89646  23047363.392    23047368.074
  23139343.898    -9949794.29349  -7516696.79446  23139343.046    23139348.556
  20479695.883    -3461343.72849  -2688336.18948  20479696.181    20479701.303
  24007018.798    -7661639.29149  -5947874.02545  24007018.427    24007025.560
                  -1389667.31749  -1071936.09243
  21717960.545   -19745354.56949 -15366363.57446  21717960.399    21717967.918
  24045533.763    -7041315.70249  15621016.68746  24045533.733    24045543.374
 04  7 21  1 13 30.0000000  0  8G 3G23G19G13G28G10G 8G 1
  23111215.614   -14153653.70349  -5770177.90046  23111215.418    23111223.645
  23065629.074    12972346.88249  10112270.93446  23065628.797    23065633.962
  23128316.975   -10007742.16549  -7561850.90046  23128316.030    23128321.373
  20486364.182    -3426301.56649  -2661030.60748  20486364.465    20486369.560
  23987864.145    -7762296.08149  -6026307.78145  23987864.038    23987871.661
                  -1441556.95049  -1112368.57743
  21706325.804   -19806495.53649 -15414005.85546  21706325.733    21706333.055
  24064032.780    -6944103.40549  15696766.44945  24064032.836    24064041.839
 04  7 21  1 14  0.0000000  0  8G 3G23G19G13G28G10G 8G 1
  23113904.495   -14139524.21749  -5759167.93146  23113904.257    23113912.320
  23083939.465    13068569.04849  10187249.18246  23083939.311    23083944.922
  23117362.496   -10065306.89849  -7606706.45346  23117361.615    23117366.536
  20493121.315    -3390793.14949  -2633361.70148  20493121.507    20493126.577
  23968739.425    -7862793.43849  -6104617.29545  23968739.537    23968747.798
                  -1492930.21149  -1152399.08343
  21694727.938   -19867442.90249 -15461497.30846  21694727.713    21694734.991
  24082566.146    -6846712.20349  15772655.61045  24082566.215    24082574.436
 04  7 21  1 14 30.0000000  0  8G 3G23G19G13G28G10G 8G 1
  23116701.484   -14124826.85549  -5747715.46346  23116701.211    23116709.150
  23102294.901    13165027.22249  10262411.34146  23102294.823    23102300.751
  23106480.879   -10122486.33149  -7651261.80046  23106480.257    23106485.368
  20499967.126    -3354818.62549  -2605329.60548  20499967.218    20499972.292
  23949646.260    -7963130.43849  -6182801.85345  23949645.507    23949654.325
                  -1543785.92149  -1192027.01944                  23522779.294
  21683166.685   -19928197.19649 -15508838.31246  21683166.456    21683173.847
  24101133.488    -6749143.94049  15848682.71745  24101133.362    24101141.037
 04  7 21  1 15  0.0000000  0  8G 3G23G19G13G28G10G 8G 1
  23119606.314   -14109561.41849  -5735820.34546  23119606.169    23119614.040
  23120695.405    13261719.89149  10337756.22146  23120695.264    23120701.133
  23095673.539   -10179277.73549  -7695514.81746  23095672.988    23095678.323
  20506901.615    -3318377.69649  -2576934.08448  20506901.727    20506906.838
  23930583.078    -8063305.09649  -6260859.92845  23930582.413    23930591.352
  23513191.841    -1594122.43249  -1231250.20445  23513193.455    23513199.295
  21671642.516   -19988757.33149 -15556027.99646  21671642.245    21671649.695
  24119734.024    -6651399.75049  15924846.93245  24119733.696    24119741.149
 04  7 21  1 15 30.0000000  0  9G 3G23G19G27G13G28G10G 8G 1
  23122618.997   -14093729.37349  -5723483.70146  23122618.824    23122626.787
  23139139.873    13358644.34949  10413281.70546  23139139.538    23139145.396
  23084940.575   -10235680.06449  -7739464.63646  23084939.959    23084945.465
                  -1309466.76249  -1017402.06343
  20513924.396    -3281472.42049  -2548176.73448  20513924.506    20513929.718
  23911551.425    -8163316.99049  -6338791.16345  23911550.738    23911559.746
  23503712.824    -1643939.40049  -1270068.56845  23503711.579    23503720.337
  21660154.895   -20049124.80349 -15603067.56346  21660154.577    21660162.251
  24138366.813    -6553482.32649  16001146.11145  24138366.587    24138374.167
 04  7 21  1 16  0.0000000  0  9G 3G23G19G27G13G28G10G 8G 1
  23125739.483   -14077329.62949  -5710704.69746  23125739.454    23125747.334
  23157627.407    13455800.46849  10488987.75346  23157627.109    23157633.387
  23074282.486   -10291689.07849  -7783107.96746  23074281.777    23074287.329
                  -1329031.92149  -1032648.25343
  20521035.772    -3244101.14749  -2519056.27048  20521036.002    20521041.327
  23892551.140    -8263163.24749  -6416593.29045  23892550.491    23892559.378
  23494332.655    -1693233.86249  -1308479.77345  23494331.283    23494340.328
  21648704.215   -20109297.65549 -15649955.47046  21648703.835    21648711.750
  24157032.725    -6455391.56449  16077580.37045  24157032.335    24157040.572
 04  7 21  1 16 30.0000000  0  9G 3G23G19G27G13G28G10G 8G 1
  23128968.532   -14060360.81849  -5697482.25946  23128968.418    23128976.115
  23176159.517    13553188.52749  10564874.47446  23176159.358    23176165.074
  23063700.020   -10347300.81749  -7826441.74046  23063699.343    23063704.958
                  -1348413.44149  -1047750.64345                  20884174.667
  20528236.111    -3206262.53749  -2489571.65448  20528236.438    20528241.848
  23873583.741    -8362840.35549  -6494263.67245  23873582.733    23873591.491
  23485052.334    -1742002.64549  -1346481.42645  23485051.377    23485060.008
  21637290.843   -20169273.98949 -15696690.24147  21637290.625    21637298.597
  24175730.923    -6357127.21649  16154149.86645  24175730.554    24175739.450
 04  7 21  1 17  0.0000000  0  9G 3G23G19G27G13G28G10G 8G 1
  23132306.018   -14042823.10349  -5683816.49646  23132305.758    23132313.220
  23194735.791    13650807.03349  10640940.74046  23194735.520    23194740.512
  23053193.879   -10402512.67649  -7869463.93946  23053193.186    23053198.959
  20880517.009    -1367611.31849  -1062709.99945  20880516.339    20880521.098
  20535525.398    -3167956.62849  -2459722.90348  20535525.712    20535531.203
  23854648.032    -8462346.62449  -6571800.89945  23854647.381    23854656.133
  23475872.705    -1790244.19349  -1384072.21645  23475871.622    23475879.778
  21625915.286   -20229053.42149 -15743271.58247  21625914.931    21625923.010
  24194460.804    -6258690.54349  16230853.64145  24194460.756    24194470.844
 04  7 21  1 17 30.0000000  0  9G 3G23G19G27G13G28G10G 8G 1
  23135751.529   -14024717.94149  -5669708.54646  23135751.133    23135758.241
  23213354.959    13748653.09149  10717184.35746  23213354.739    23213359.378
  23042764.183   -10457323.26649  -7912173.47147  23042763.376    23042769.194
  20876897.042    -1386626.55849  -1077527.10245  20876898.604    20876902.712
  20542903.423    -3129184.77549  -2429511.07048  20542903.644    20542909.211
  23835745.860    -8561681.87649  -6649204.88345  23835744.866    23835753.415
  23466792.735    -1837958.10749  -1421251.81545  23466791.648    23466799.781
  21614576.869   -20288636.60149 -15789700.00847  21614576.610    21614584.712
  24213224.980    -6160084.18949  16307689.65745  24213224.665    24213235.123
 04  7 21  1 18  0.0000000  0  9G 3G23G19G27G13G28G10G 8G 1
  23139304.854   -14006045.78749  -5655158.78646  23139304.493    23139311.335
  23232017.559    13846725.41749  10793604.23846  23232017.389    23232021.509
  23032410.831   -10511730.45549  -7954568.67546  23032410.015    23032415.935
  20873313.984    -1405459.37249  -1092201.98845  20873314.276    20873319.094
  20550369.995    -3089947.70349  -2398936.73548  20550370.155    20550375.672
  23816876.198    -8660844.59549  -6726474.36345  23816874.850    23816883.526
  23457814.270    -1885143.03549  -1458019.23045  23457813.133    23457820.386
  21603275.975   -20348024.07149 -15835975.92547  21603275.564    21603283.707
  24232020.016    -6061309.67648  16384656.66544  24232019.855    24232030.132
 04  7 21  1 18 30.0000000  0  9G 3G23G19G27G13G28G10G 8G 1
  23142966.216   -13986805.42249  -5640166.28746  23142965.918    23142972.627
  23250723.402    13945023.51349  10870200.06246  23250723.079    23250727.327
  23022134.652   -10565730.44049  -7996646.59146  23022134.059    23022139.861
  20869765.559    -1424108.20049  -1106733.52845  20869765.921    20869770.471
  20557925.463    -3050243.79749  -2367998.64348  20557925.604    20557931.010
  23798039.251    -8759831.73549  -6803607.11045  23798038.361    23798046.895
  23448936.677    -1931796.28348  -1494372.42644  23448935.281    23448942.740
  21592012.478   -20407213.55249 -15882097.56547  21592012.231    21592020.190
  24250847.251    -5962366.93349  16461754.84144  24250847.685    24250856.651
 04  7 21  1 19  0.0000000  0  9G 3G23G19G27G13G28G10G 8G 1
  23146735.301   -13966997.93449  -5624731.87246  23146735.089    23146742.018
  23269471.637    14043545.60349  10946970.43046  23269471.280    23269475.948
  23011936.833   -10619321.06249  -8038405.45146  23011936.218    23011941.697
  20866252.113    -1442573.18049  -1121121.81545  20866252.284    20866256.883
  20565569.564    -3010073.60649  -2336697.21448  20565569.792    20565575.132
  23779235.409    -8858642.10649  -6880602.06845  23779235.158    23779243.321
  23440159.965    -1977916.55248  -1530310.28644  23440158.776    23440166.340
  21580786.953   -20466205.37549 -15928065.17147  21580786.612    21580794.296
  24269709.439    -5863257.58949  16538982.76145  24269709.196    24269717.571
 04  7 21  1 19 30.0000000  0  9G 3G23G19G27G13G28G10G 8G 1
  23150612.289   -13946622.92649  -5608855.25146  23150612.215    23150619.586
  23288262.280    14142290.66549  11023914.56046  23288262.060    23288266.858
  23001817.838   -10672499.43149  -8079843.05046  23001816.943    23001822.107
  20862773.705    -1460853.93749  -1135366.55646  20862773.712    20862778.193
  20573302.372    -2969437.58249  -2305032.78548  20573302.619    20573307.914
  23760466.993    -8957273.94349  -6957457.87145  23760465.994    23760473.969
  23431482.966    -2023502.37448  -1565831.68944  23431483.492    23431491.947
  21569599.251   -20524998.39849 -15973877.87047  21569598.897    21569606.206
  24288602.010    -5763982.78249  16616339.61945  24288601.719    24288609.734
 04  7 21  1 20  0.0000000  0  9G 3G23G19G27G13G28G10G 8G 1
  23154597.219   -13925681.04949  -5592536.90546  23154597.116    23154604.927
  23307095.686    14241256.91449  11101031.02346  23307095.472    23307100.376
  22991777.171   -10725263.37549  -8120957.74346  22991776.305    22991781.213
  20859330.130    -1478950.61549  -1149467.84146  20859329.996    20859334.688
  20581123.830    -2928335.84049  -2273005.46548  20581124.084    20581129.329
  23741732.024    -9055725.79249  -7034173.46745  23741730.824    23741738.838
  23422909.877    -2068552.23748  -1600935.46644  23422910.268    23422919.692
  21558449.411   -20583593.15549 -16019536.09747  21558448.826    21558455.898
  24307525.516    -5664544.42349  16693823.90145  24307525.298    24307532.250
 04  7 21  1 20 30.0000000  0  9G 3G23G19G27G13G28G10G 8G 1
  23158689.479   -13904174.13649  -5575778.27346  23158689.354    23158697.716
  23325970.564    14340441.42549  11178317.57546  23325970.206    23325975.452
  22981815.501   -10777611.99249  -8161748.83947  22981814.651    22981819.520
  20855921.247    -1496864.40649  -1163426.61246  20855921.126    20855926.035
  20589033.571    -2886769.90049  -2240616.43948  20589033.878    20589039.110
  23723030.654    -9153997.18249  -7110748.47045  23723029.890    23723038.028
  23414439.832    -2113066.28748  -1635621.69144  23414439.062    23414448.513
  21547336.648   -20641990.25049 -16065040.29046  21547336.210    21547343.080
  24326479.557    -5564945.00749  16771433.69845  24326479.158    24326486.630
 04  7 21  1 21  0.0000000  0  9G 3G23G19G27G13G28G10G 8G 1
  23162889.139   -13882102.03949  -5558579.24846  23162889.086    23162897.949
  23344886.231    14439843.33549  11255773.51546  23344885.981    23344891.261
  22971933.674   -10829541.99549  -8202213.74447  22971932.821    22971937.731
  20852547.277    -1514594.48749  -1177242.24846  20852547.062    20852552.414
  20597031.852    -2844739.71849  -2207865.65548  20597032.121    20597037.230
  23704364.905    -9252086.22849  -7187181.34245  23704363.970    23704371.837
  23406072.254    -2157042.22657  -1669888.79544                  23406070.166
  21536261.563   -20700188.67849 -16110389.72546  21536261.407    21536268.143
  24345463.533    -5465185.23549  16849168.46945  24345463.046    24345472.040
 04  7 21  1 21 30.0000000  0  9G 3G23G19G27G13G28G10G 8G 1
  23167194.766   -13859473.45049  -5540946.60846  23167194.745    23167204.317
  23363841.551    14539452.71649  11333391.09946  23363841.279    23363846.442
  22962130.378   -10881059.47849  -8242357.18347  22962129.459    22962134.648
  20849206.607    -1532149.07349  -1190921.10246  20849206.455    20849212.239
  20605117.003    -2802253.60349  -2174759.57848  20605117.174    20605122.121
  23685732.875    -9349999.56149  -7263477.31345  23685731.519    23685739.600
                  -2200486.16748  -1703741.39144
  21525223.243   -20758196.65049 -16155590.69846  21525222.859    21525229.405
  24364476.126    -5365274.96749  16927020.52745  24364475.794    24364485.280
 04  7 21  1 22  0.0000000  0  9G 3G23G19G27G13G28G10G 8G 1
  23171606.233   -13836289.46049  -5522881.19446  23171606.281    23171616.461
  23382835.829    14639267.42449  11411168.71646  23382835.519    23382840.931
  22952405.578   -10932162.57549  -8282177.72846  22952404.672    22952410.129
  20845899.028    -1549528.47649  -1204463.47546  20845899.014    20845905.252
  20613288.501    -2759312.63249  -2141299.08848  20613288.697    20613293.551
  23667134.226    -9447735.89649  -7339635.38646  23667133.104    23667141.034
                  -2243399.72558  -1737180.94644                  23389646.774
  21514220.811   -20816014.52949 -16200643.54847  21514220.446    21514227.051
  24383516.971    -5265216.04949  17004988.41945  24383516.722    24383526.301
 04  7 21  1 22 30.0000000  0  9G 3G23G19G27G13G28G10G 8G 1
  23176127.584   -13812529.82149  -5504367.21046  23176127.521    23176138.011
  23401873.011    14739306.64149  11489121.28246  23401872.561    23401877.998
  22942763.737   -10982828.22349  -8321657.40146  22942762.787    22942768.583
  20842628.928    -1566711.92949  -1217853.14046  20842628.869    20842635.479
  20621550.303    -2715896.54049  -2107468.36548  20621550.538    20621555.355
  23648573.403    -9545273.20549  -7415638.35846  23648572.763    23648580.402
  23381591.592    -2285759.75448  -1770188.54544                  23381578.517
  21503258.335   -20873620.74649 -16245531.49947  21503258.184    21503264.908
  24402589.870    -5164989.27249  17083087.14745  24402589.528    24402599.211
 04  7 21  1 23  0.0000000  0  9G 3G23G19G27G13G28G10G 8G 1
  23180757.814   -13788198.27449  -5485407.57546  23180757.815    23180768.390
  23420951.065    14839565.83549  11567245.27546  23420950.437    23420956.861
  22933205.179   -11033057.13049  -8360796.77246  22933204.263    22933209.931
  20839395.499    -1583702.13249  -1231092.24646  20839395.616    20839402.569
  20629901.908    -2672008.35149  -2073269.75948  20629902.136    20629907.020
  23630050.153    -9642612.87649  -7491487.36646  23630049.627    23630057.416
  23373633.234    -2327567.54248  -1802766.00244  23373622.778    23373630.149
  21492336.013   -20931018.62949 -16290257.09347  21492335.606    21492342.523
  24421693.721    -5064599.17549  17161313.10845  24421693.393    24421702.578
 04  7 21  1 23 30.0000000  0  8G 3G23G19G27G13G28G 8G 1
  23185497.429   -13763292.08849  -5466000.14946  23185497.484    23185507.991
  23440070.274    14940046.37749  11645541.78846  23440070.048    23440078.137
  22923731.129   -11082843.73049  -8399591.47747  22923730.221    22923735.468
  20836199.990    -1600496.13549  -1244178.46246  20836199.880    20836206.770
  20638343.689    -2627645.72149  -2038701.48848  20638343.962    20638348.961
  23611565.474    -9739750.20849  -7567178.69246  23611565.163    23611572.827
  21481453.876   -20988204.14949 -16334817.19847  21481453.569    21481460.448
  24440828.887    -4964044.00049  17239667.69245  24440828.666    24440837.187
 04  7 21  1 24  0.0000000  0  8G 3G23G19G27G13G28G 8G 1
  23190343.752   -13737824.48949  -5446155.26746  23190343.879    23190354.374
  23459230.307    15040734.34249  11723999.88646  23459229.984    23459238.782
  22914339.264   -11132198.37049  -8438049.60646  22914338.334    22914343.241
  20833039.187    -1617106.16849  -1257121.33246  20833039.336    20833046.025
  20646873.372    -2582821.64449  -2003773.65148  20646873.587    20646878.697
  23593116.903    -9836696.27549  -7642721.00345  23593116.527    23593124.328
  21470609.992   -21045189.73649 -16379221.51247  21470609.626    21470616.602
  24459992.854    -4863337.85649  17318139.89946  24459992.659    24460001.205
 04  7 21  1 24 30.0000000  0  8G 3G23G19G27G13G28G 8G 1
  23195296.109   -13711799.28149  -5425875.87746  23195296.281    23195306.858
  23478428.428    15141624.83149  11802615.82446  23478428.421    23478437.720
  22905028.864   -11181122.03949  -8476171.94846  22905027.881    22905033.092
  20829913.163    -1633535.21049  -1269923.18546  20829913.041    20829919.545
  20655490.212    -2537539.64049  -1968488.99448  20655490.412    20655495.598
  23574704.107    -9933452.76649  -7718115.62345  23574704.061    23574712.111
  21459803.565   -21101977.95349 -16423472.04747  21459803.237    21459810.330
  24479184.524    -4762485.36349  17396726.14546  24479184.303    24479193.401
 04  7 21  1 25  0.0000000  0  8G 3G23G19G27G13G28G 8G 1
  23200354.389   -13685215.13749  -5405160.94146  23200354.659    23200365.767
  23497666.875    15242718.32649  11881389.85946  23497666.661    23497675.097
  22895800.993   -11229610.30649  -8513954.99246  22895799.969    22895805.977
  20826821.904    -1649781.23249  -1282582.43146  20826821.711    20826827.908
  20664194.527    -2491797.85049  -1932846.05148  20664194.706    20664199.974
  23556328.226   -10030016.28449  -7793359.82045  23556328.623    23556336.598
  21449035.110   -21158566.99549 -16467567.38447  21449034.742    21449041.992
  24498404.039    -4661485.81249  17475426.97945  24498403.799    24498413.280
 04  7 21  1 25 30.0000000  0  8G 3G23G19G27G13G28G 8G 1
  23205519.217   -13658071.36949  -5384009.96946  23205519.663    23205531.096
  23516943.794    15344014.51249  11960321.85546  23516943.468    23516951.037
  22886656.694   -11277659.76649  -8551396.09946  22886655.879    22886662.531
  20823765.556    -1665842.64349  -1295097.82846  20823765.237    20823771.332
  20672986.391    -2445595.53149  -1896844.24448  20672986.540    20672991.927
  23537990.154   -10126383.98549  -7868451.43645  23537990.478    23537998.310
  21438304.940   -21214955.10249 -16511506.14347  21438304.610    21438311.817
  24517651.289    -4560339.67749  17554242.03945  24517651.044    24517660.828
 04  7 21  1 26  0.0000000  0  7G 3G23G19G27G13G28G 8
  23210790.741   -13630370.26149  -5362424.71446  23210791.113    23210802.400
  23536258.205    15445510.11649  12039409.25246  23536257.837    23536265.177
  22877596.556   -11325269.70449  -8588494.71046  22877595.859    22877602.805
  20820743.947    -1681720.74249  -1307470.36946  20820743.730    20820749.594
  20681865.373    -2398934.91149  -1860485.32748  20681865.613    20681871.119
  23519689.979   -10222555.79449  -7943390.38345  23519689.757    23519697.051
  21427612.847   -21271143.39849 -16555289.18947  21427612.412    21427619.585
 04  7 21  1 26 30.0000000  0  7G 3G23G19G27G13G28G 8
  23216169.087   -13602108.06949  -5340402.26646  23216169.460    23216180.533
  23555611.079    15547207.80649  12118654.08746  23555610.779    23555617.353
  22868622.411   -11372433.59349  -8625245.77346  22868621.541    22868627.801
  20817757.706    -1697411.40949  -1319696.88546  20817757.746    20817763.626
  20690832.369    -2351812.11349  -1823766.28848  20690832.685    20690838.260
  23501427.306   -10318525.98149  -8018172.23445  23501427.031    23501433.961
  21416959.412   -21327127.36049 -16598913.02347  21416959.048    21416966.199
 04  7 21  1 27  0.0000000  0  7G 3G23G19G27G13G28G 8
  23221653.497   -13573289.23649  -5317946.05946  23221653.604    23221664.655
  23575001.636    15649102.39149  12198052.29045  23575001.146    23575005.750
  22859733.368   -11419152.91349  -8661650.42746  22859732.214    22859737.338
  20814806.803    -1712917.92749  -1331779.88846  20814806.780    20814812.681
  20699886.737    -2304231.12249  -1786690.20848  20699887.016    20699892.540
  23483202.651   -10414296.74849  -8092798.67245  23483202.467    23483209.238
  21406344.066   -21382910.28749 -16642380.21447  21406343.837    21406350.879
 04  7 21  1 27 30.0000000  0  7G 3G23G19G27G13G28G 8
  23227243.787   -13543913.01349  -5295055.49846  23227243.684    23227254.904
  23594429.276    15751193.82349  12277603.89845  23594428.667    23594431.509
  22850929.030   -11465423.90749  -8697705.72147  22850927.891    22850932.309
  20811891.467    -1728238.58649  -1343718.05546  20811891.248    20811897.368
  20709028.676    -2256190.95549  -1749256.31948  20709028.887    20709034.220
  23465017.134   -10509865.00149  -8167267.33246  23465016.487    23465023.014
  21395767.734   -21438490.27449 -16685689.26947  21395767.348    21395774.203
 04  7 21  1 28  0.0000000  0  7G 3G23G19G27G13G28G 8
  23232940.224   -13513978.35649  -5271729.80046  23232940.100    23232951.424
  23613893.728    15853482.17349  12357308.98945  23613893.154    23613895.633
  22842210.298   -11511242.76249  -8733408.68247  22842209.267    22842213.516
  20809011.590    -1743371.52949  -1355509.96746  20809011.521    20809017.651
  20718258.192    -2207690.73349  -1711463.95648  20718258.378    20718263.393
  23446869.939   -10605227.55949  -8241575.72746  23446869.321    23446876.145
  21385230.308   -21493865.13149 -16728838.48247  21385229.933    21385236.486
 04  7 21  1 28 30.0000000  0  8G 3G23G19G27G13G28G10G 8
  23238743.156   -13483485.75849  -5247969.34646  23238742.963    23238753.912
  23633395.177    15955966.05649  12437166.40245  23633394.583    23633396.630
  22833578.038   -11556606.88949  -8768757.30347  22833577.013    22833581.411
  20806167.852    -1758316.10849  -1367155.10046  20806167.700    20806173.971
  20727575.223    -2158730.41449  -1673313.05748  20727575.368    20727580.070
  23428761.906   -10700382.32549  -8315722.20946  23428761.717    23428768.895
                  -1158856.98049   -897198.46243
  21374732.058   -21549034.05549 -16771827.24047  21374731.681    21374737.948
 04  7 21  1 29  0.0000000  0  7G 3G23G19G27G13G28G 8
  23244651.941   -13452436.83549  -5223775.42146  23244651.682    23244662.057
  23652933.727    16058643.45149  12517174.61845  23652933.186    23652936.296
  22825032.488   -11601514.44049  -8803750.14447  22825031.470    22825035.965
  20803360.001    -1773072.57049  -1378653.62946  20803359.714    20803365.949
  20736979.479    -2109310.90749  -1634804.35748  20736979.658    20736984.111
  23410693.913   -10795328.48149  -8389706.15646  23410693.624    23410701.284
  21364273.064   -21603997.13249 -16814655.61647  21364272.672    21364278.734
 04  7 21  1 29 30.0000000  0  7G 3G23G19G27G13G28G 8
  23250666.045   -13420832.91649  -5199149.01246  23250665.908    23250675.605
  23672508.830    16161511.95149  12597331.81245  23672508.404    23672512.389
  22816573.878   -11645964.10249  -8838386.18847  22816572.936    22816577.188
  20800587.662    -1787641.38849  -1390005.95846  20800587.374    20800593.735
  20746470.922    -2059433.70449  -1595939.03648  20746471.047    20746475.364
  23392666.394   -10890065.44849  -8463527.08246  23392665.784    23392673.274
  21353853.116   -21658755.03949 -16857324.12847  21353852.795    21353858.614
 04  7 21  1 30  0.0000000  0  8G 3G23G19G27G13G28G10G 8
  23256785.602   -13388675.23549  -5174091.08946  23256785.462    23256794.563
  23692119.704    16264569.50649  12677636.29546  23692119.428    23692124.511
  22808202.525   -11689954.40149  -8872664.28247  22808201.741    22808205.645
  20797851.008    -1802022.83449  -1401212.27046  20797850.777    20797857.159
  20756049.108    -2009099.57749  -1556717.66648  20756049.306    20756053.686
  23374678.685   -10984591.93549  -8537183.98646  23374678.147    23374685.455
                  -1092274.34949   -836374.22543
  21343472.439   -21713307.96149 -16899832.90047  21343471.941    21343477.685
 04  7 21  1 30 30.0000000  0  8G 3G23G19G27G13G28G10G 8
  23263010.535   -13355963.75449  -5148601.63646  23263010.373    23263018.993
  23711766.416    16367815.53049  12758087.70746  23711766.246    23711772.891
  22799919.513   -11733482.10349  -8906581.90247  22799918.695    22799922.592
  20795150.133    -1816215.70949  -1412271.65146  20795149.867    20795156.366
  20765714.253    -1958308.13549  -1517139.92948  20765714.465    20765719.133
  23356731.525   -11078905.54349  -8610675.02646  23356730.961    23356737.972
                  -1125785.63049   -862491.71343
  21333130.771   -21767654.25649 -16942180.64247  21333130.321    21333136.062
 04  7 21  1 31  0.0000000  0  7G 3G23G19G27G13G28G 8
  23269340.482   -13322700.35349  -5122682.10046  23269340.241    23269348.456
  23731449.168    16471247.54649  12838684.00146  23731448.899    23731456.133
  22791724.761   -11776545.86349  -8940138.01447  22791723.888    22791728.191
  20792485.103    -1830220.75749  -1423184.66046  20792484.763    20792491.370
  20775466.048    -1907061.15749  -1477207.24948  20775466.284    20775471.380
  23338825.174   -11173005.85949  -8683999.80046  23338824.477    23338831.309
  21322828.189   -21821794.39049 -16984367.74447  21322827.734    21322833.714
 04  7 21  1 31 30.0000000  0  7G 3G23G19G27G13G28G 8
  23275775.439   -13288884.53449  -5096332.09146  23275775.176    23275783.347
  23751166.782    16574864.66149  12919424.52346  23751166.162    23751174.168
  22783618.482   -11819142.49749  -8973330.14547  22783617.730    22783622.473
  20789855.721    -1844036.58949  -1433950.25246  20789855.642    20789862.271
  20785304.725    -1855357.88749  -1436919.00448  20785304.933    20785310.410
  23320959.438   -11266890.12249  -8757156.27246  23320958.856    23320965.724
  21312564.842   -21875727.01749 -17026393.14947  21312564.399    21312570.776
 04  7 21  1 32  0.0000000  0  8G 3G23G19G27G13G28G10G 8
  23282315.794   -13254514.42849  -5069550.20246  23282315.528    23282323.573
  23770919.153    16678668.45849  13000310.58246  23770919.043    23770927.907
  22775602.006   -11861267.06649  -9006154.46146  22775601.261    22775606.332
  20787263.543    -1857659.83749  -1444565.76546  20787263.218    20787269.938
  20795230.479    -1803196.37749  -1396273.68448  20795230.712    20795236.551
  23303135.595   -11360553.96049  -8830140.98946  23303135.315    23303142.200
                  -1222943.09349   -839212.24843
  21302341.541   -21929448.75649 -17068254.20447  21302341.157    21302348.063
 04  7 21  1 32 30.0000000  0  8G 3G23G19G27G13G28G10G 8
  23288960.644   -13219595.79049  -5042340.87246  23288960.328    23288968.358
  23790708.125    16782652.67649  13081337.13946  23790707.774    23790715.991
  22767674.485   -11902922.27749  -9038613.04146  22767673.789    22767679.405
  20784706.801    -1871095.08649  -1455034.77946  20784706.488    20784713.196
  20805242.516    -1750581.75849  -1355275.28948  20805242.760    20805248.858
  23285353.128   -11454000.75749  -8902956.57346  23285352.717    23285359.939
                  -1254200.05049   -863568.33944                  23242424.718
  21292157.461   -21982964.19749 -17109954.51747  21292157.177    21292164.556
 04  7 21  1 33  0.0000000  0  8G 3G23G19G27G13G28G10G 8
  23295709.860   -13184129.16749  -5014704.55446  23295709.595    23295717.509
  23810530.021    16886815.57249  13162502.94046  23810529.474    23810537.798
  22759836.918   -11944105.67749  -9070703.99946  22759836.244    22759842.370
  20782185.894    -1884341.82849  -1465356.91446  20782185.653    20782192.384
  20815341.061    -1697514.14649  -1313923.92948  20815341.279    20815347.348
  23267611.879   -11547228.78149  -8975601.71646  23267611.508    23267619.232
  23236581.757    -1284892.64049   -887484.60545  23236582.838    23236590.119
  21282013.047   -22036272.04949 -17151493.06647  21282012.829    21282020.489
 04  7 21  1 33 30.0000000  0  8G 3G23G19G27G13G28G10G 8
  23302563.436   -13148114.48849  -4986641.18846  23302563.151    23302571.004
  23830385.362    16991156.72149  13243807.65946  23830385.146    23830393.549
  22752090.070   -11984814.24649  -9102424.94646  22752089.427    22752095.771
  20779700.897    -1897398.66449  -1475531.06946  20779700.873    20779707.750
  20825525.874    -1643993.31749  -1272219.40848  20825526.058    20825532.026
  23249912.790   -11640235.42749  -9048074.34946  23249912.711    23249920.608
  23230849.316    -1315019.08649   -910959.70145  23230848.718    23230858.717
  21271908.579   -22089370.99749 -17192868.85847  21271908.354    21271916.044
 04  7 21  1 34  0.0000000  0  8G 3G23G19G27G13G28G10G 8
  23309520.881   -13111553.32849  -4958151.93546  23309520.555    23309528.354
  23850275.518    17095674.12649  13325249.68946  23850275.046    23850283.005
  22744433.820   -12025046.57349  -9133774.76346  22744433.247    22744440.069
  20777252.304    -1910265.80949  -1485557.39447  20777252.298    20777259.276
  20835796.669    -1590020.61449  -1230162.76448  20835796.838    20835802.736
  23232256.265   -11733019.77249  -9120373.77646  23232256.174    23232264.022
  23225225.328    -1344579.01649   -933993.45545  23225225.880    23225232.625
  21261843.962   -22142261.47949 -17234082.20847  21261843.622    21261851.105
 04  7 21  1 34 30.0000000  0  8G 3G23G19G27G13G28G10G 8
  23316582.050   -13074445.91449  -4929237.06845  23316581.687    23316589.474
  23870198.596    17200366.74949  13406828.27046  23870198.074    23870205.711
  22736868.985   -12064799.83349  -9164751.31346  22736868.344    22736875.578
  20774840.104    -1922942.32149  -1495435.20447  20774840.147    20774847.047
  20846153.646    -1535595.77249  -1187753.81648  20846153.827    20846159.563
  23214642.790   -11825579.70049  -9192498.28846  23214642.677    23214650.267
  23219707.679    -1373571.12148   -956584.71445  23219707.953    23219714.916
  21251819.337   -22194942.06549 -17275131.98447  21251819.001    21251826.067
 04  7 21  1 35  0.0000000  0  8G 3G23G19G27G13G28G10G 8
  23323747.344   -13036790.84249  -4899895.45145  23323746.916    23323754.767
  23890155.044    17305235.59449  13488544.14846  23890154.519    23890161.611
  22729396.245   -12104069.54149  -9195351.08246  22729395.428    22729402.958
  20772465.032    -1935425.25149  -1505162.14847  20772464.822    20772471.593
  20856597.098    -1480717.15249  -1144991.26948  20856597.198    20856602.818
  23197072.918   -11917911.04049  -9264444.71846  23197072.720    23197080.023
  23214298.650    -1401991.53449   -978730.37045  23214299.005    23214306.548
  21241835.209   -22247409.57849 -17316015.74547  21241834.963    21241841.639
 04  7 21  1 35 30.0000000  0  8G 3G23G19G27G13G28G10G 8
  23331015.638   -12998592.81649  -4870130.76945  23331015.385    23331023.363
  23910143.956    17410275.36449  13570393.16946  23910143.402    23910149.983
  22722014.895   -12142857.23249  -9225575.24847  22722014.217    22722021.986
  20770125.787    -1947717.94249  -1514740.87847  20770125.721    20770132.413
  20867125.880    -1425388.73849  -1101878.21748  20867125.989    20867131.648
  23179546.514   -12010016.13949  -9336214.81346  23179545.944    23179552.889
  23209000.334    -1429843.28549  -1000433.05144  23208999.124    23209007.067
  21231891.288   -22299667.41849 -17356736.11347  21231890.828    21231897.256
 04  7 21  1 36  0.0000000  0  8G 3G23G19G27G13G28G10G 8
  23338387.147   -12959853.20349  -4839944.06645  23338387.031    23338395.157
  23930164.179    17515483.83049  13652373.69946  23930163.723    23930170.663
  22714726.064   -12181161.39149  -9255422.61947  22714725.352    22714733.001
  20767822.922    -1959820.36849  -1524171.33947  20767822.775    20767829.403
  20877739.652    -1369612.46049  -1058416.20448  20877739.802    20877745.587
  23162062.678   -12101893.83149  -9407807.73846  23162062.199    23162068.854
  23203809.274    -1457126.13148  -1021692.41544  23203807.638    23203814.965
  21221986.922   -22351715.40849 -17397292.97947  21221986.494    21221992.922
 04  7 21  1 36 30.0000000  0  8G 3G23G19G27G13G28G10G 8
  23345862.892   -12920568.98149  -4809333.01145  23345862.734    23345870.762
  23950217.107    17620863.72349  13734487.79346  23950216.749    23950223.234
  22707530.426   -12218975.95949  -9284888.46847  22707529.714    22707537.093
  20765557.144    -1971728.15049  -1533450.13247  20765556.954    20765563.471
  20888439.433    -1313383.79949  -1014601.67348  20888439.664    20888445.535
  23144622.599   -12193538.63449  -9479219.20846  23144622.511    23144629.311
  23198725.078    -1483835.19149  -1042504.56844  23198724.649    23198732.363
  21212123.124   -22403549.08749 -17437682.86347  21212122.753    21212129.248
 04  7 21  1 37  0.0000000  0  8G 3G23G19G27G13G28G10G 8
  23353441.738   -12880744.46149  -4778300.93246  23353441.468    23353449.190
  23970302.250    17726410.01549  13816731.48445  23970301.725    23970306.421
  22700427.981   -12256302.14349  -9313973.75847  22700427.171    22700434.156
  20763327.746    -1983444.11249  -1542579.46047  20763327.527    20763334.009
  20899224.569    -1256706.90549   -970437.87448  20899224.838    20899230.738
  23127227.320   -12284952.28749  -9550450.54146  23127226.905    23127233.825
  23193751.801    -1509973.00049  -1062871.70744  23193750.630    23193758.652
  21202299.584   -22455171.61349 -17477908.20047  21202299.204    21202305.867
 04  7 21  1 37 30.0000000  0  8G 3G23G19G27G13G28G10G 8
  23361122.950   -12840381.65149  -4746849.41646  23361122.551    23361130.205
  23990417.956    17832120.24249  13899102.96845  23990417.252    23990421.551
  22693418.459   -12293138.90249  -9342677.68347  22693417.683    22693424.291
  20761134.736    -1994968.81749  -1551559.73647  20761134.556    20761141.010
  20910094.528    -1199583.89749   -925926.45648  20910094.843    20910100.627
  23109875.273   -12376134.15749  -9621501.28746  23109875.087    23109882.415
  23188887.142    -1535539.41249  -1082793.60644  23188885.489    23188893.817
  21192516.457   -22506582.32049 -17517968.47747  21192516.116    21192522.604
 04  7 21  1 38  0.0000000  0  8G 3G23G19G27G13G28G10G 8
  23368906.443   -12799479.46049  -4714977.60546  23368906.033    23368913.954
  24010564.094    17937995.19849  13981602.79645  24010563.656    24010568.323
  22686502.625   -12329481.83049  -9370996.82247  22686501.961    22686508.315
  20758978.488    -2006299.34749  -1560388.74147  20758978.388    20758984.985
  20921049.841    -1142012.94649   -881066.01048  20921050.109    20921055.666
  23092568.603   -12467080.45149  -9692368.46746  23092568.468    23092576.015
  23184130.824    -1560531.85449  -1102268.22344  23184129.381    23184137.626
  21182774.064   -22557779.34149 -17557862.24247  21182773.711    21182780.124
 04  7 21  1 38 30.0000000  0  8G 3G23G19G27G13G28G10G 8
  23376792.208   -12758037.93049  -4682685.54046  23376791.855    23376800.166
  24030741.261    18044033.73849  14064230.14845  24030741.284    24030745.930
  22679681.362   -12365328.62049  -9398929.36347  22679680.664    22679686.645
  20756859.563    -2017434.72449  -1569065.64647  20756859.386    20756866.049
  20932090.471    -1083994.13649   -835856.59448  20932090.735    20932096.032
  23075307.917   -12557788.94349  -9763050.34246  23075307.237    23075314.842
  23179483.926    -1584948.64149  -1121294.24245  23179482.757    23179490.869
  21173072.605   -22608761.14049 -17597588.29146  21173072.257    21173078.526
 04  7 21  1 39  0.0000000  0  8G 3G23G19G27G13G28G10G 8
  23384779.754   -12716061.01249  -4649976.23446  23384779.435    23384787.921
  24050950.873    18150231.69949  14146981.65845  24050950.593    24050955.545
  22672954.353   -12400679.88949  -9426475.77547  22672953.621    22672959.113
  20754777.172    -2028377.20549  -1577592.24447  20754777.027    20754783.776
  20943215.816    -1025530.42449   -790300.48248  20943216.053    20943221.238
  23058091.512   -12648260.94949  -9833547.92046  23058091.006    23058098.509
  23174946.637    -1608791.82949  -1139873.38045  23174945.270    23174953.731
  21163411.664   -22659529.35749 -17637147.93346  21163411.405    21163417.647
 04  7 21  1 39 30.0000000  0  8G 3G23G19G27G13G28G10G 8
  23392869.684   -12673548.52949  -4616849.60746  23392869.373    23392877.399
  24071190.020    18256589.21749  14229857.58245  24071189.822    24071196.152
  22666322.267   -12435531.94449  -9453633.18247  22666321.532    22666326.269
  20752731.869    -2039124.80449  -1585967.00147  20752731.703    20752738.571
  20954425.825     -966621.66749   -744397.57948  20954426.152    20954431.147
  23040920.515   -12738493.41149  -9903858.86646  23040920.383    23040927.702
  23170518.090    -1632059.09349  -1158003.65545  23170517.414    23170525.904
  21153791.807   -22710082.47549 -17676539.94746  21153791.415    21153797.705
 04  7 21  1 40  0.0000000  0  8G 3G23G19G27G13G28G10G 8
  23401061.513   -12630503.36949  -4583307.94546  23401061.002    23401068.177
  24091459.377    18363102.89849  14312855.17945  24091459.277    24091465.608
  22659785.059   -12469884.75549  -9480401.54647  22659784.288    22659788.537
  20750723.503    -2049678.69849  -1594190.79247  20750723.313    20750730.213
  20965720.234     -907269.99949   -698149.57448  20965720.563    20965725.378
  23023795.202   -12828486.49349  -9973983.26246  23023795.338    23023802.820
  23166200.610    -1654751.64249  -1175686.19445  23166199.453    23166207.521
  21144212.453   -22760421.64649 -17715765.25946  21144212.177    21144218.432
 04  7 21  1 40 30.0000000  0  8G 3G23G19G27G13G28G10G 8
  23409353.737   -12586927.75349  -4549352.93645  23409353.343    23409360.167
  24111758.630    18469769.76749  14395972.07246  24111758.315    24111763.785
  22653342.605   -12503737.82749  -9506780.52247  22653341.889    22653346.160
  20748751.764    -2060039.87249  -1602264.42147  20748751.568    20748758.577
  20977098.400     -847477.55849   -651558.10147  20977098.697    20977103.558
  23006715.718   -12918240.16949 -10043921.12446  23006715.862    23006723.074
  23161991.681    -1676870.38849  -1192921.55345  23161990.268    23161998.691
  21134673.858   -22810547.19049 -17754824.09446  21134673.560    21134679.687
 04  7 21  1 41  0.0000000  0  8G 3G23G19G27G13G28G10G 8
  23417746.730   -12542820.39649  -4514983.54345  23417746.552    23417753.482
  24132086.441    18576590.79649  14479209.12046  24132085.935    24132091.690
  22646995.869   -12537086.62749  -9532766.57146  22646995.332    22646999.866
  20746817.324    -2070205.19949  -1610185.44147  20746817.187    20746824.121
  20988560.496     -787242.96249   -604622.05247  20988560.832    20988566.117
  22989682.507   -13007750.30149 -10113669.18846  22989682.723    22989689.532
  23157892.178    -1698411.98149  -1209707.20545  23157891.136    23157899.740
  21125176.513   -22860456.09949 -17793714.14246  21125176.165    21125182.219
 04  7 21  1 41 30.0000000  0  8G 3G23G19G27G13G28G10G 8
  23426241.079   -12498181.82649  -4480200.26845  23426241.001    23426247.855
  24152442.309    18683565.10249  14562565.65946  24152442.113    24152448.927
  22640745.998   -12569928.65849  -9558357.75846  22640745.518    22640749.966
  20744920.454    -2080173.52149  -1617952.95947  20744920.280    20744927.093
  21000106.857     -726565.14649   -557340.62547  21000107.288    21000113.006
  22972696.550   -13097014.73949 -10183225.80846  22972696.324    22972703.066
  23153902.043    -1719375.18149  -1226042.13345  23153901.798    23153910.428
  21115720.728   -22910147.28249 -17832434.50246  21115720.241    21115726.274
 04  7 21  1 42  0.0000000  0  8G 3G23G19G27G13G28G10G 8
  23434836.326   -12453014.95049  -4445005.33845  23434835.981    23434842.896
  24172827.527    18790689.48849  14646039.09046  24172827.379    24172833.885
  22634593.265   -12602263.60149  -9583553.78546  22634592.627    22634596.653
  20743060.949    -2089946.12549  -1625567.95547  20743060.728    20743067.358
  21011737.289     -665447.46049   -509716.46547  21011737.577    21011743.451
  22955756.854   -13186033.70749 -10252591.19646  22955756.501    22955763.338
  23150023.419    -1739760.95549  -1241927.19345  23150022.243    23150030.981
  21106305.795   -22959621.80149 -17870986.05446  21106305.479    21106311.425
 04  7 21  1 42 30.0000000  0  8G 3G23G19G27G13G28G10G 8
  23443531.068   -12407322.71349  -4409400.97845  23443530.572    23443537.627
  24193241.021    18897960.82949  14729627.03845  24193240.588    24193246.480
  22628536.884   -12634091.43649  -9608354.67047  22628536.220    22628539.899
  20741238.368    -2099523.93749  -1633031.18947  20741238.139    20741244.705
  21023450.975     -603891.68049   -461750.93247  21023451.247    21023457.149
  22938863.793   -13274807.42349 -10321765.42946  22938863.236    22938869.845
  23146254.120    -1759570.27749  -1257363.05245  23146252.583    23146261.358
  21096932.295   -23008880.52849 -17909369.47446  21096931.818    21096937.933
 04  7 21  1 43  0.0000000  0  8G 3G23G19G27G13G28G10G 8
  23452326.077   -12361103.26549  -4373385.82945  23452325.732    23452332.827
  24213682.136    19005379.93849  14813330.17745  24213681.796    24213687.797
  22622577.727   -12665407.69349  -9632756.91047  22622577.076    22622580.493
  20739453.423    -2108903.83749  -1640340.19747  20739453.226    20739459.718
  21035248.316     -541896.70049   -413443.15847  21035248.610    21035254.398
  22922017.998   -13363331.69449 -10390745.32946  22922017.219    22922023.955
  23142594.106    -1778800.03749  -1272347.25245  23142593.246    23142602.478
  21087600.219   -23057920.43749 -17947582.37346  21087599.818    21087605.961
 04  7 21  1 43 30.0000000  0  8G 3G23G19G27G13G28G10G 8
  23461221.668   -12314358.31149  -4336961.22845  23461221.284    23461228.201
  24234151.357    19112944.92549  14897146.87445  24234150.886    24234156.639
  22616716.078   -12696210.88449  -9656759.35447  22616715.314    22616718.799
  20737706.162    -2118085.89249  -1647495.04047  20737706.014    20737712.431
  21047129.213     -479463.50949   -364793.95348  21047129.445    21047134.927
  22905219.733   -13451605.49749 -10459530.05246  22905219.187    22905225.877
  23139044.746    -1797450.52749  -1286880.09445  23139044.193    23139053.574
  21078309.989   -23106740.89649 -17985624.28946  21078309.510    21078315.913
 04  7 21  1 44  0.0000000  0  8G 3G23G19G27G13G28G10G 8
  23470216.834   -12267091.06149  -4300129.57245  23470216.347    23470222.732
  24254646.865    19220652.59349  14981074.78345  24254646.202    24254652.076
  22610951.814   -12726500.99149  -9680361.98646  22610951.025    22610954.993
  20735996.564    -2127071.05949  -1654496.46247  20735996.268    20736002.495
  21059092.964     -416594.30649   -315805.01347  21059093.113    21059098.385
  22888469.949   -13539628.82049 -10528119.58146  22888468.873    22888475.580
  23135605.833    -1815522.51149  -1300962.14645  23135605.224    23135614.700
  21069061.508   -23155342.88949 -18023495.94846  21069060.763    21069067.387
 04  7 21  1 44 30.0000000  0  8G 3G23G19G27G13G28G10G 8
  23479311.015   -12219301.86949  -4262891.21145  23479310.362    23479316.620
  24275168.200    19328502.17649  15065113.36245  24275168.062    24275175.633
  22605285.745   -12756275.05249  -9703562.49846  22605284.938    22605289.337
  20734324.583    -2135857.87749  -1661343.32947  20734324.236    20734330.465
  21071139.602     -353289.02349   -266476.26347  21071139.763    21071144.947
  22871767.956   -13627399.67249 -10596512.38446  22871766.585    22871773.397
  23132277.359    -1833014.54749  -1314592.30845  23132276.628    23132286.226
  21059854.338   -23203725.12549 -18061196.39646  21059853.747    21059860.770
 04  7 21  1 45  0.0000000  0  8G 3G23G19G27G13G28G10G 8
  23488503.885   -12170992.58949  -4225247.65145  23488503.408    23488509.695
  24295717.361    19436491.49749  15149260.75945  24295717.236    24295725.511
  22599718.244   -12785532.01449  -9726360.07146  22599717.292    22599722.199
  20732690.381    -2144446.31149  -1668035.61547  20732689.927    20732696.097
  21083268.934     -289549.51649   -216809.14848  21083269.046    21083274.206
  22855114.194   -13714917.08349 -10664707.70646  22855112.824    22855119.476
  23129059.457    -1849927.02649  -1327770.87145  23129058.626    23129067.870
  21050689.002   -23251887.63049 -18098725.59046  21050688.582    21050695.801
 04  7 21  1 45 30.0000000  0  8G 3G23G19G27G13G28G10G 8
  23497795.341   -12122163.91749  -4187199.40145  23497794.925    23497801.803
  24316292.858    19544619.98249  15233516.68445  24316293.159    24316301.424
  22594249.228   -12814269.45549  -9748752.85146  22594248.218    22594253.900
  20731094.100    -2152835.24849  -1674572.44947  20731093.643    20731099.862
  21095480.832     -225375.37549   -166803.36048  21095481.042    21095486.195
  22838508.469   -13802178.75449 -10732703.74546  22838507.441    22838514.254
  23125951.046    -1866258.74549  -1340496.84845  23125950.678    23125960.161
  21041565.949   -23299828.83749 -18136082.38045  21041565.508    21041572.726
 04  7 21  1 46  0.0000000  0  8G 3G23G19G27G13G28G10G 8
  23507185.498   -12072817.76249  -4148747.87045  23507185.114    23507192.412
  24336896.504    19652885.51049  15317879.31745  24336896.116    24336903.945
  22588879.002   -12842486.03549  -9770739.79846  22588878.276    22588884.735
  20729535.735    -2161024.27149  -1680953.49647  20729535.391    20729541.572
  21107775.288     -160767.96749   -116459.94048  21107775.421    21107780.616
  22821951.897   -13889183.66149 -10800499.69146  22821951.042    22821957.955
  23122953.378    -1882009.47549  -1352770.11145  23122952.944    23122962.853
  21032485.267   -23347548.60649 -18173266.55545  21032484.834    21032491.623
 04  7 21  1 46 30.0000000  0  8G 3G23G19G27G13G28G10G 8
  23516673.668   -12022958.00149  -4109896.12946  23516673.315    23516680.727
  24357525.327    19761283.62749  15402345.24545  24357524.265    24357532.158
  22583608.417   -12870182.92349  -9792321.78646  22583607.733    22583614.590
  20728014.964    -2169015.77549  -1687180.64447  20728014.594    20728020.868
  21120151.254      -95731.03549    -65781.82047  21120151.404    21120156.788
  22805444.014   -13975933.11249 -10868096.58646  22805443.221    22805450.188
  23120066.626    -1897181.60149  -1364592.56445  23120065.383    23120075.898
                 -23395048.66649 -18210279.55945                  21023452.484
 04  7 21  1 47  0.0000000  0  8G 3G23G19G27G13G28G10G 8
  23526259.826   -11972585.00249  -4070644.47746  23526259.439    23526266.717
  24378178.522    19869813.55449  15486913.88645  24378177.397    24378185.366
  22578437.668   -12897357.41049  -9813496.70147  22578436.893    22578443.861
  20726532.050    -2176808.36949  -1693252.79047  20726531.771    20726538.033
  21132608.739      -30264.74949    -14769.13647  21132609.020    21132614.632
  22788984.538   -14062424.74349 -10935492.61146  22788984.125    22788991.317
  23117289.418    -1911774.03149  -1375963.26845  23117288.184    23117299.081
  21014449.846   -23442327.77849 -18247120.38845  21014449.479    21014455.646
 04  7 21  1 47 30.0000000  0  8G 3G23G19G27G13G28G10G 8
  23535943.322   -11921699.97949  -4030993.82646  23535942.875    23535949.974
  24398856.767    19978474.31349  15571584.46945  24398855.912    24398862.973
  22573366.723   -12924007.66449  -9834263.11547  22573365.873    22573372.790
  20725087.192    -2184401.08749  -1699169.19447  20725086.921    20725093.163
  21145148.058       35630.45549     36577.74647  21145148.408    21145154.063
  22772575.086   -14148657.16149 -11002686.63046  22772574.485    22772581.676
  23114622.515    -1925786.38649  -1386881.95645  23114621.810    23114632.442
  21005495.161   -23489385.03949 -18283788.38745  21005494.968    21005500.976
 04  7 21  1 48  0.0000000  0  8G 3G23G19G27G13G28G10G 8
  23545723.899   -11870303.35349  -3990944.52646  23545723.505    23545730.292
  24419559.095    20087264.91749  15656356.23945  24419558.153    24419566.048
  22568395.764   -12950131.18049  -9854619.08247  22568394.895    22568401.954
  20723680.736    -2191792.39749  -1704928.65547  20723680.514    20723686.683
  21157769.208      101954.47549     88258.75347  21157769.541    21157775.092
  22756215.150   -14234627.77149 -11069676.65346  22756214.690    22756221.692
  23112067.001    -1939217.07749  -1397347.41245  23112066.169    23112076.782
  20996583.281   -23536219.09849 -18320282.49345  20996582.937    20996588.716
 04  7 21  1 48 30.0000000  0  8G 3G23G19G27G13G28G10G 8
  23555601.283   -11818397.00449  -3950498.05646  23555600.977    23555607.694
  24440284.714    20196183.41249  15741227.67345  24440284.174    24440292.318
  22563525.167   -12975726.92549  -9874563.79847  22563524.347    22563531.442
  20722312.621    -2198982.31649  -1710531.18947  20722312.372    20722318.407
  21170471.771      168705.78249    140272.71747  21170472.027    21170477.430
  22739904.823   -14320335.71549 -11136462.00746  22739904.852    22739911.663
  23109622.420    -1952066.39849  -1407359.92445  23109621.262    23109631.618
  20987713.851   -23582829.24249 -18356602.07345  20987713.587    20987718.892
 04  7 21  1 49  0.0000000  0  8G 3G23G19G27G13G28G10G 8
  23565575.669   -11765980.86949  -3909654.32246  23565575.372    23565582.293
  24461035.172    20305229.66249  15826198.61345  24461034.938    24461041.519
  22558755.482   -13000791.56549  -9894094.65547  22558754.729    22558761.942
  20720983.199    -2205968.68849  -1715975.12047  20720982.922    20720988.866
  21183255.674      235885.15849    192620.22647  21183255.887    21183261.117
  22723645.341   -14405778.07449 -11203040.41346  22723645.568    22723652.210
  23107287.638    -1964332.71349  -1416918.03345  23107287.157    23107297.557
  20978887.484   -23629213.36749 -18392745.53545  20978887.049    20978892.447
 04  7 21  1 49 30.0000000  0  8G 3G23G19G27G13G28G10G 8
  23575646.427   -11713058.83749  -3868416.40946  23575646.080    23575653.127
  24481809.578    20414399.59449  15911265.98345  24481809.395    24481815.201
  22554086.752   -13025326.01849  -9913212.38147  22554086.041    22554093.245
  20719692.082    -2212753.17749  -1721261.74547  20719691.926    20719697.778
  21196120.269      303489.36049    245298.77147  21196120.461    21196125.757
  22707436.204   -14490956.00449 -11269412.73746  22707436.559    22707443.287
  23105064.630    -1976017.92249  -1426023.43345  23105064.006    23105073.969
  20970103.457   -23675373.57349 -18428714.49545  20970102.950    20970108.613
 04  7 21  1 50  0.0000000  0  8G 3G23G19G27G13G28G10G 8
  23585812.764   -11659633.73149  -3826786.47846  23585812.532    23585819.747
  24502607.455    20523690.64749  15996427.71045  24502607.297    24502612.381
  22549519.064   -13049329.72449  -9931916.53247  22549518.323    22549525.458
  20718439.282    -2219336.52449  -1726391.63547  20718439.123    20718444.887
  21209065.264      371515.94549    298306.46847  21209065.519    21209071.049
  22691278.125   -14575868.92349 -11335578.57646  22691278.106    22691284.940
  23102951.536    -1987123.23949  -1434676.94145  23102951.019    23102960.399
  20961362.009   -23721309.67749 -18464508.86945  20961361.351    20961367.415
 04  7 21  1 50 30.0000000  0  8G 3G23G19G27G13G28G10G 8
  23596074.809   -11605705.49649  -3784764.47646  23596074.707    23596082.281
  24523428.238    20633102.18449  16081683.29245  24523427.933    24523432.110
  22545052.894   -13072800.04649  -9950205.06247  22545052.155    22545059.072
  20717225.132    -2225716.73349  -1731363.23647  20717225.013    20717230.679
  21222090.784      439965.14349    351643.50347  21222090.952    21222096.789
  22675170.502   -14660514.63449 -11401536.23446  22675170.496    22675177.390
  23100948.652    -1997647.14949  -1442877.37145  23100948.496    23100957.741
  20952663.249   -23767020.14649 -18500127.41145  20952662.575    20952668.989
 04  7 21  1 51  0.0000000  0  8G 3G23G19G27G13G28G10G 8
  23606432.681   -11551276.64749  -3742352.41346  23606432.606    23606439.861
  24544271.654    20742631.92449  16167031.01145  24544271.333    24544275.286
  22540688.394   -13095736.62049  -9968077.69347  22540687.596    22540694.300
  20716049.643    -2231894.12349  -1736176.79648  20716049.487    20716055.064
  21235196.439      508835.41749    405308.64547  21235196.509    21235202.632
  22659114.052   -14744892.34649 -11467285.03246  22659113.832    22659120.839
  23099057.387    -2007590.25749  -1450625.27545  23099056.795    23099065.501
  20944007.574   -23812505.12449 -18535570.22545  20944006.846    20944013.830
 04  7 21  1 51 30.0000000  0  8G 3G23G19G27G13G28G10G 8
  23616885.410   -11496349.71949  -3699552.28146  23616885.190    23616892.317
  24565137.299    20852277.34249  16252468.85846  24565136.948    24565140.869
  22536425.668   -13118138.54749  -9985533.72447  22536424.857    22536431.333
  20714912.724    -2237868.93449  -1740832.50148  20714912.544    20714918.034
  21248381.877      578124.67149    459300.22247  21248381.991    21248388.104
  22643108.779   -14829001.76449 -11532824.79246  22643108.382    22643115.579
  23097275.824    -2016953.31849  -1457921.17245  23097275.389    23097283.761
  20935394.192   -23857764.91949 -18570837.60445  20935394.067    20935401.392
 04  7 21  1 52  0.0000000  0  8G 3G23G19G27G13G28G10G 8
  23627432.541   -11440924.42149  -3656363.78446  23627432.389    23627439.444
  24586024.332    20962038.47749  16337996.86746  24586023.920    24586028.482
  22532265.247   -13140002.82849 -10002570.81347  22532264.408    22532270.691
  20713814.703    -2243638.92049  -1745328.60448  20713814.575    20713820.008
  21261647.105      647833.62549    513618.85747  21261647.138    21261653.344
  22627154.889   -14912839.92449 -11598153.17746  22627154.477    22627161.682
  23095604.615    -2025734.52449  -1464763.68345  23095604.366    23095612.676
  20926825.028   -23902796.91449 -18605927.50545  20926824.670    20926832.247
 04  7 21  1 52 30.0000000  0  8G 3G23G19G27G13G28G10G 8
  23638074.047   -11385001.10349  -3612787.13645  23638073.903    23638080.919
  24606932.863    21071914.84249  16423614.68646  24606932.794    24606938.234
  22528207.580   -13161326.73849 -10019186.83647  22528206.667    22528212.946
  20712756.064    -2249202.23049  -1749663.66148  20712755.898    20712761.314
  21274992.033      717962.23549    568264.51347  21274992.080    21274998.474
  22611253.363   -14996404.01749 -11663268.01746  22611252.895    22611260.004
  23094044.349    -2033932.71649  -1471151.85645  23094044.456    23094052.487
  20918299.702   -23947599.46749 -18640838.55145  20918299.264    20918306.470
 04  7 21  1 53  0.0000000  0  8G 3G23G19G27G13G28G10G 8
  23648809.305   -11328584.05049  -3568825.80145  23648809.241    23648816.373
  24627863.551    21181902.19149  16509318.96146  24627863.274    24627869.049
  22524252.322   -13182111.50049 -10035382.75247  22524251.475    22524257.740
  20711736.323    -2254561.12849  -1753839.42948  20711736.094    20711741.536
  21288416.198      788506.93849    623234.36647  21288416.216    21288422.792
  22595403.629   -15079695.48749 -11728170.38446  22595403.068    22595410.070
  23092596.056    -2041550.47349  -1477087.80345  23092595.069    23092602.687
  20909817.346   -23992174.27349 -18675572.18145  20909817.293    20909824.015
 04  7 21  1 53 30.0000000  0  7G 3G19G27G13G28G10G 8
  23659638.485   -11271675.38249  -3524481.40545  23659638.533    23659645.157
  22520399.890   -13202356.24249 -10051157.86547  22520399.002    22520405.182
  20710755.361    -2259715.20449  -1757855.60148  20710755.183    20710760.729
  21301919.073      859466.44549    678527.45347  21301919.258    21301926.026
  22579605.921   -15162713.53649 -11792859.72646  22579605.244    22579612.235
  23091257.122    -2048588.20949  -1482571.73845  23091256.166    23091263.613
  20901378.707   -24036520.88849 -18710128.07545  20901378.655    20901384.936
 04  7 21  1 54  0.0000000  0  7G 3G19G27G13G28G10G 8
  23670562.689   -11214268.61849  -3479748.89745  23670562.821    23670568.939
  22516652.066   -13222051.53649 -10066504.83847  22516651.097    22516657.044
  20709815.155    -2264655.82449  -1761705.43848  20709814.924    20709820.611
  21315502.330      930847.57049    734149.09947  21315502.674    21315509.349
  22563861.955   -15245448.61049 -11857328.56847  22563861.393    22563868.244
  23090029.272    -2055037.94649  -1487597.48345  23090028.726    23090036.398
  20892985.627   -24080630.98249 -18744499.52445  20892985.118    20892990.919
 04  7 21  1 54 30.0000000  0  7G 3G19G27G13G28G10G 8
  23681579.651   -11156374.91449  -3434636.97745  23681579.505    23681585.910
  22513007.147   -13241205.68249 -10081430.13246  22513006.120    22513011.758
  20708913.804    -2269391.87149  -1765395.87248  20708913.598    20708919.406
  21329164.209     1002639.34449    790090.72147  21329164.476    21329170.645
  22548170.173   -15327909.26549 -11921583.56847  22548169.807    22548176.276
  23088912.198    -2060909.21349  -1492172.50745  23088911.529    23088919.074
  20884635.114   -24124512.92449 -18778693.28545  20884634.778    20884640.530
 04  7 21  1 55  0.0000000  0  7G 3G19G27G13G28G10G 8
  23692688.704   -11097995.46149  -3389146.52245  23692688.473    23692695.304
  22509465.698   -13259816.57049 -10095932.09346  22509464.731    22509469.865
  20708051.752    -2273922.27049  -1768926.05248  20708051.484    20708057.340
  21342904.228     1074841.53849    846352.13647  21342904.434    21342909.896
  22532530.932   -15410093.56749 -11985623.23746  22532530.624    22532537.056
  23087905.182    -2066201.44549  -1496296.30545  23087904.387    23087911.956
  20876327.479   -24168166.03149 -18812708.74845  20876327.529    20876333.503
 04  7 21  1 55 30.0000000  0  8G 3G19G31G27G13G28G10G 8
  23703889.542   -11039136.25049  -3343282.21445  23703889.258    23703895.928
  22506027.134   -13277887.43249 -10110013.23546  22506026.162    22506030.789
  24633418.299    -5935603.13849  -3473347.86745  24633418.180    24633429.397
  20707228.056    -2278250.52549  -1772298.71848  20707227.785    20707233.653
  21356720.994     1147448.33449    902928.80347  21356721.230    21356726.147
  22516944.114   -15492004.51949 -12049449.89546  22516943.634    22516950.017
  23087007.348    -2070919.29449  -1499972.54145  23087006.468    23087014.237
  20868064.278   -24211593.45249 -18846548.27045  20868063.692    20868069.558
 04  7 21  1 56  0.0000000  0  8G 3G19G31G27G13G28G10G 8
  23715182.536   -10979793.90249  -3297041.41345  23715182.011    23715188.296
  22502692.568   -13295411.79549 -10123668.55046  22502691.571    22502695.840
  24611563.132    -6050454.66549  -3562842.39745  24611562.551    24611572.852
  20706443.888    -2282370.95849  -1775509.45148  20706443.657    20706449.615
  21370615.478     1220464.20449    959824.23847  21370615.740    21370620.365
  22501410.275   -15573635.63349 -12113058.49946  22501409.679    22501416.102
  23086219.215    -2075057.36349  -1503196.97345  23086218.813    23086226.851
  20859843.967   -24254789.42449 -18880207.45845  20859843.660    20859849.799
 04  7 21  1 56 30.0000000  0  8G 3G19G31G27G13G28G10G 8
  23726566.870   -10919967.40849  -3250423.36645  23726566.410    23726572.892
  22499462.318   -13312385.92749 -10136895.12746  22499461.238    22499465.420
  24589697.252    -6165360.33249  -3652379.11044  24589695.930    24589705.913
  20705699.944    -2286280.40649  -1778555.77448  20705699.692    20705705.703
  21384588.137     1293890.32049   1017039.33747  21384588.427    21384592.698
  22485929.819   -15654983.23049 -12176446.19846  22485929.535    22485936.168
  23085542.687    -2078613.38949  -1505967.91845  23085541.952    23085550.129
  20851668.311   -24297750.88449 -18913683.92445  20851667.772    20851674.913
 04  7 21  1 57  0.0000000  0  8G 3G19G31G27G13G28G10G 8
  23738043.073   -10859657.96549  -3203429.03345  23738042.795    23738049.679
  22496336.469   -13328807.94349 -10149691.50846  22496335.522    22496340.261
  24567820.226    -6280316.80148  -3741955.50044  24567818.756    24567829.330
  20704996.336    -2289977.62149  -1781436.72648  20704996.119    20705002.208
  21398638.708     1367725.88649   1074573.49947  21398638.951    21398643.090
  22470503.758   -15736045.45949 -12239611.53846  22470503.625    22470510.572
  23084976.519    -2081587.17249  -1508285.14845  23084975.765    23084984.154
  20843537.379   -24340476.55149 -18946976.61945  20843537.001    20843544.767
 04  7 21  1 57 30.0000000  0  8G 3G19G31G27G13G28G10G 8
  23749610.959   -10798867.96949  -3156060.25745  23749610.577    23749617.931
  22493315.714   -13344677.31449 -10162057.22046  22493315.093    22493320.385
  24545933.819    -6395321.77749  -3831569.61444  24545932.746    24545943.953
  20704333.209    -2293462.60149  -1784152.29748  20704332.929    20704339.065
  21412766.393     1441969.01349   1132425.24347  21412766.601    21412771.126
  22455132.755   -15816821.82649 -12302554.11646  22455132.096    22455139.361
  23084521.248    -2083979.26649  -1510149.11545  23084520.450    23084528.982
  20835451.493   -24382966.05649 -18980085.32945  20835451.068    20835459.509
 04  7 21  1 58  0.0000000  0  8G 3G19G31G27G13G28G10G 8
  23761269.592   -10737601.90149  -3108320.51345  23761269.165    23761276.565
  22490400.360   -13359995.88549 -10173993.73346  22490399.790    22490405.300
  24524039.275    -6510375.13749  -3921221.45944  24524038.871    24524049.663
  20703709.962    -2296737.45849  -1786704.13548  20703709.690    20703715.896
  21426970.791     1516615.95249   1190591.66847  21426970.978    21426976.133
  22439815.595   -15897313.75249 -12365275.04246  22439814.820    22439822.027
  23084175.705    -2085792.67849  -1511562.13346  23084175.188    23084183.986
  20827410.929   -24425221.57849 -19013011.68045  20827410.035    20827418.895
 04  7 21  1 58 30.0000000  0  8G 3G19G31G27G13G28G10G 8
  23773018.447   -10675862.04849  -3060211.53945  23773017.943    23773025.341
  22487590.368   -13374762.72949 -10185500.35646  22487589.616    22487595.335
  24502136.351    -6625474.62149  -4010909.22745  24502136.313    24502146.825
  20703126.765    -2299802.11949  -1789092.18548  20703126.504    20703132.771
  21441251.636     1591665.08449   1249071.49647  21441251.960    21441257.751
  22424552.380   -15977520.45349 -12427773.72746  22424551.925    22424559.099
  23083940.587    -2087028.40949  -1512525.03646  23083940.031    23083948.905
  20819414.539   -24467242.64649 -19045755.37945  20819413.949    20819422.493
 04  7 21  1 59  0.0000000  0  8G 3G19G31G27G13G28G10G 8
  23784856.447   -10613651.00749  -3011735.45145  23784856.077    23784863.683
  22484885.104   -13388977.36649 -10196576.70046  22484884.369    22484890.604
  24480225.844    -6740618.13949  -4100631.27445  24480225.600    24480235.986
  20702583.574    -2302656.67249  -1791316.51848  20702583.300    20702589.619
  21455609.010     1667114.38849   1307863.12047  21455609.381    21455615.653
  22409343.832   -16057441.62749 -12490049.92546  22409343.404    22409350.463
  23083815.618    -2087687.41149  -1513038.55646  23083814.747    23083823.598
  20811463.107   -24509029.86349 -19078316.86245  20811462.194    20811470.429
 04  7 21  1 59 30.0000000  0  8G 3G19G31G27G13G28G10G 8
  23796783.949   -10550970.17649  -2962893.27945  23796783.750    23796791.682
  22482285.472   -13402638.47149 -10207221.71446  22482284.678    22482291.368
  24458307.507    -6855802.26649  -4190385.03045  24458307.145    24458318.261
  20702080.630    -2305299.94649  -1793376.21448  20702080.308    20702086.709
  21470042.664     1742962.96849   1366965.89447  21470043.018    21470049.568
  22394190.188   -16137075.42249 -12552102.18146  22394189.615    22394196.505
  23083800.189    -2087769.23949  -1513102.32146  23083799.308    23083808.102
  20803555.938   -24550581.50849 -19110694.76845  20803555.358    20803563.025
 04  7 21  2  0  0.0000000  0  8G 3G19G31G27G13G28G10G 8
  23808800.972   -10487820.97249  -2913686.13946  23808800.700    23808808.911
  22479791.435   -13415744.66649 -10217434.31646  22479790.645    22479797.546
  24436382.168    -6971023.78749  -4280167.90745  24436381.833    24436392.828
  20701617.978    -2307730.85249  -1795270.42948  20701617.668    20701624.171
  21484552.509     1819209.95749   1426379.08347  21484552.772    21484559.252
  22379091.302   -16216420.41549 -12613929.38446  22379090.847    22379097.510
  23083893.947    -2087273.99749  -1512716.41646  23083893.463    23083902.269
  20795693.968   -24591896.41949 -19142888.20645  20795693.401    20795700.426
 04  7 21  2  0 30.0000000  0  8G 3G19G31G27G13G28G10G 8
  23820907.043   -10424205.77649  -2864115.90046  23820906.599    23820914.798
  22477403.279   -13428295.29349 -10227214.02546  22477402.458    22477409.342
  24414450.275    -7086280.53049  -4369978.19045  24414449.867    24414460.097
  20701195.769    -2309949.44249  -1796999.20348  20701195.411    20701202.076
  21499137.970     1895853.34149   1486101.15047  21499138.056    21499144.334
  22364047.672   -16295475.92649 -12675531.04147  22364047.152    22364053.748
  23084098.141    -2086202.48049  -1511881.48146  23084097.322    23084106.121
  20787877.121   -24632975.02849 -19174897.52545  20787876.412    20787882.499
 04  7 21  2  1  0.0000000  0  8G 3G19G31G27G13G28G10G 8
  23833101.281   -10360126.74049  -2814184.18746  23833100.747    23833108.782
  22475120.551   -13440289.73949 -10236560.34746  22475119.938    22475127.003
  24392511.457    -7201569.81349  -4459813.85045  24392510.847    24392521.825
  20700814.086    -2311955.34149  -1798562.24548  20700813.755    20700820.476
  21513798.280     1972891.84249   1546131.11147  21513798.386    21513804.545
  22349059.121   -16374241.34649 -12736906.66247  22349058.579    22349065.348
  23084411.473    -2084555.52749  -1510598.13946  23084410.734    23084419.603
  20780105.679   -24673816.68449 -19206722.19145  20780104.563    20780109.927
 04  7 21  2  1 30.0000000  0  8G 3G19G31G27G13G28G10G 8
  23845383.211   -10295584.20749  -2763891.31546  23845382.725    23845391.044
  22472944.433   -13451725.77449 -10245471.53846  22472943.854    22472950.736
  24370567.145    -7316887.50749  -4549671.67345  24370566.468    24370577.857
  20700473.308    -2313746.50249  -1799957.95448  20700472.911    20700479.715
  21528533.663     2050324.94949   1606468.54748  21528533.766    21528539.788
  22334126.480   -16452713.94149 -12798054.09547  22334125.916    22334132.528
  23084834.632    -2082332.24149  -1508865.70146  23084833.782    23084842.817
  20772379.060   -24714418.65149 -19238360.08944  20772378.173    20772382.518
 04  7 21  2  2  0.0000000  0  8G 3G19G31G27G13G28G10G 8
  23857752.550   -10230581.38449  -2713239.77946  23857752.331    23857761.081
  22470875.028   -13462603.25849 -10253947.49646  22470874.347    22470880.547
  24348617.813    -7432231.55849  -4639550.01245  24348617.075    24348628.272
  20700173.387    -2315323.16649  -1801186.52448  20700172.928    20700179.835
  21543343.577     2128151.04149   1667112.22947  21543343.733    21543349.648
  22319249.459   -16530893.42749 -12858973.13147  22319248.806    22319255.343
  23085366.929    -2079533.95349  -1506685.20946  23085366.243    23085375.232
  20764698.200   -24754781.80349 -19269811.83744  20764697.179    20764701.824
 04  7 21  2  2 30.0000000  0  8G 3G19G31G27G13G28G10G 8
  23870209.622   -10165120.13449  -2662231.03246  23870209.457    23870218.315
  22468912.080   -13472921.29649 -10261987.50446  22468911.236    22468916.821
  24326663.634    -7547599.07949  -4729446.66345  24326663.141    24326673.637
  20699914.335    -2316684.63249  -1802247.40648  20699913.878    20699920.857
  21558227.825     2206368.42549   1728060.81347  21558228.019    21558233.695
  22304427.947   -16608778.99049 -12919663.16347  22304427.506    22304434.224
  23086009.155    -2076161.05049  -1504056.97446  23086008.199    23086017.084
                 -24794905.37649 -19301076.86944
 04  7 21  2  3  0.0000000  0  8G 3G19G31G27G13G28G10G 8
  23882753.396   -10099203.26549  -2610867.25346  23882753.054    23882761.868
  22467055.483   -13482679.97049 -10269591.64446  22467054.521    22467059.626
  24304706.221    -7662988.35049  -4819360.20845  24304705.612    24304715.209
  20699696.138    -2317831.49649  -1803141.06848  20699695.669    20699702.709
  21573186.018     2284974.76849   1789312.45847  21573186.204    21573191.581
  22289662.699   -16686370.47249 -12980124.04247  22289662.278    22289669.249
  23086759.709    -2072215.13249  -1500982.20346  23086759.109    23086767.895
                 -24834789.78849 -19332155.64244                  20749477.591
 04  7 21  2  3 30.0000000  0  8G 3G19G31G27G13G28G10G 8
  23895383.421   -10032832.02949  -2559149.45645  23895383.130    23895391.481
  22465305.671   -13491877.54349 -10276758.57546  22465304.702    22465309.305
  24282745.031    -7778395.63749  -4909287.84345  24282744.645    24282753.262
  20699519.068    -2318762.11549  -1803866.22348  20699518.621    20699525.657
  21588217.755     2363969.39349   1850866.68547  21588217.999    21588223.341
  22274953.738   -16763666.03249 -13040354.30447  22274953.251    22274960.451
  23087619.989    -2067695.81949  -1497460.68746  23087619.373    23087627.951
  20741929.318   -24874433.15549 -19363046.52544  20741927.799    20741933.689
 04  7 21  2  4  0.0000000  0  8G 3G19G31G27G13G28G10G 8
  23908099.286    -9966009.81849  -2507080.28445  23908098.938    23908106.883
  22463662.684   -13500515.04649 -10283489.09446  22463661.540    22463665.517
                  -7893819.66949  -4999228.44645                  24260787.688
  20699383.032    -2319477.61849  -1804423.76048  20699382.516    20699389.585
  21603322.543     2443349.21449   1912721.06247  21603322.962    21603328.441
  22260300.791   -16840666.05149 -13100354.29247  22260300.495    22260307.700
  23088589.237    -2062605.63049  -1493494.31746  23088588.153    23088596.415
  20734430.739   -24913836.05049 -19393750.21044  20734429.644    20734436.118
 04  7 21  2  4 30.0000000  0  8G 3G19G31G27G13G28G10G 8
  23920900.684    -9898737.51849  -2454660.33845  23920900.435    23920908.515
  22462126.528   -13508590.20349 -10289781.42046  22462125.443    22462128.990
  24238814.754    -8009256.11049  -5089178.74545  24238813.888    24238820.289
  20699288.226    -2319975.79449  -1804811.94148  20699287.721    20699294.739
  21618500.611     2523114.34649   1974875.68447  21618501.244    21618507.193
  22245704.698   -16917368.15149 -13160122.12247  22245704.489    22245711.644
  23089666.406    -2056943.55049  -1489082.30046  23089665.637    23089673.701
  20726979.051   -24952997.26949 -19424265.21944  20726978.402
 04  7 21  2  5  0.0000000  0  8G 3G19G31G27G13G28G10G 8
  23933787.245    -9831016.01849  -2401890.36145  23933787.165    23933795.660
  22460697.671   -13516101.02649 -10295634.00946  22460696.523    22460699.875
  24216845.927    -8124701.10249  -5179135.71645  24216845.137    24216851.668
  20699234.990    -2320255.03449  -1805029.53648  20699234.538    20699241.659
  21633752.478     2603264.39749   2037330.24347  21633753.024    21633759.430
  22231165.857   -16993770.24849 -13219656.19847  22231165.544    22231172.768
  23090852.388    -2050709.03549  -1484224.21346  23090851.916    23090860.020
                 -24991914.34849 -19454588.88143
 04  7 21  2  5 30.0000000  0  8G 3G19G31G27G13G28G10G 8
  23946759.240    -9762847.55149  -2348772.15245  23946759.174    23946767.780
  22459375.944   -13523047.28549 -10301046.67546  22459374.938    22459378.159
  24194876.181    -8240152.17549  -5269097.38245  24194875.279    24194881.303
  20699223.456    -2320315.02349  -1805076.27948  20699223.086    20699230.204
  21649077.810     2683797.49149   2100083.23147  21649078.025    21649084.558
  22216684.152   -17069871.64149 -13278955.95347  22216683.969    22216690.952
  23092148.042    -2043903.12449  -1478920.94546  23092146.940    23092155.012
                 -25030586.93749 -19484720.65443
 04  7 21  2  6  0.0000000  0  8G 3G19G31G27G13G28G10G 8
  23959815.678    -9694235.94149  -2295308.61745  23959815.495    23959824.127
  22458161.547   -13529429.97549 -10306020.18746  22458160.469    22458163.725
  24172904.615    -8355607.95649  -5359062.78145  24172903.520    24172910.934
  20699253.478    -2320156.95349  -1804953.10548  20699253.095    20699260.293
  21664475.186     2764710.58649   2163132.36047  21664475.365    21664482.070
  22202259.963   -17145673.09149 -13338021.95947  22202259.545    22202266.316
  23093551.355    -2036528.28049  -1473174.33446  23093550.158    23093558.372
                 -25069016.45249   2035420.64643
 04  7 21  2  6 30.0000000  0  8G 3G19G31G27G13G28G10G 8
  23972956.656    -9625180.50149  -2241499.19745  23972956.517    23972964.914
  22457054.743   -13535245.56249 -10310551.82046  22457053.626    22457057.227
  24150932.939    -8471062.87349  -5449027.52545  24150932.139    24150941.326
  20699325.634    -2319777.44349  -1804657.37948  20699325.325    20699332.523
  21679945.365     2846004.95449   2226478.62647  21679945.485    21679952.264
  22187893.303   -17221170.81749 -13396851.29647  22187892.891    22187899.578
  23095062.374    -2028582.57149  -1466982.86146  23095062.011    23095070.409
                 -25107199.08749   2005602.93843
 04  7 21  2  7  0.0000000  0  8G 3G19G31G27G13G28G10G 8
  23986181.496    -9555685.26549  -2187347.07545  23986181.202    23986189.242
  22456055.466   -13540495.15349 -10314642.43146  22456054.348    22456058.476
  24128962.649    -8586515.96049  -5538990.81145  24128961.430    24128971.959
  20699439.797    -2319177.50749  -1804189.89848  20699439.436    20699446.627
  21695487.289     2927677.14649   2290119.28347  21695487.426    21695494.218
  22173584.247   -17296365.59349 -13455444.57147  22173583.837    22173590.382
  23096682.719    -2020068.47549  -1460348.54346  23096682.220    23096690.548
                 -25145135.94749   1975916.13443
 04  7 21  2  7 30.0000000  0  8G 3G19G31G27G13G28G10G 8
  23999489.216    -9485753.23849  -2132854.62245  23999489.019    23999496.744
  22455163.690   -13545179.25649 -10318292.38446  22455162.565    22455167.146
  24106991.497    -8701965.16549  -5628951.15345  24106991.307    24107003.571
  20699595.726    -2318357.69049  -1803551.08448  20699595.508    20699602.572
  21711100.529     3009724.52149   2354052.27547  21711100.688    21711107.407
  22159333.027   -17371257.44849 -13513801.79847  22159332.483    22159338.870
  23098411.424    -2010987.71649  -1453272.67646  23098410.373    23098418.724
                 -25182827.65849   2054123.90743
 04  7 21  2  8  0.0000000  0  8G 3G19G31G27G13G28G10G 8
  24012879.849    -9415386.37849  -2078023.33045  24012879.579    24012887.170
  22454379.853   -13549297.08449 -10321501.09146  22454378.728    22454383.537
  24085023.946    -8817407.56749  -5718906.15545  24085023.555    24085036.161
  20699793.870    -2317317.06149  -1802740.21048  20699793.581    20699800.565
  21726784.796     3092145.97949   2418276.76547  21726785.000    21726791.692
  22145139.397   -17445845.22649 -13571922.09447  22145138.939    22145145.356
  23100247.116    -2001340.82849  -1445755.62646  23100246.092    23100254.568
                 -25220272.90749   2024948.57043
 04  7 21  2  8 30.0000000  0  8G 3G19G31G27G13G28G10G 8
  24026352.721    -9344586.13349  -2022854.35845  24026352.323    24026360.004
  22453703.846   -13552847.11849 -10324267.34746  22453702.796    22453707.982
  24063058.513    -8932839.39449  -5808852.90945  24063057.881    24063070.097
  20700034.192    -2316054.40849  -1801756.32448  20700033.945    20700040.726
  21742540.150     3174940.56349   2482791.97047  21742540.382    21742547.083
  22131003.892   -17520127.19949 -13629804.12247  22131003.396    22131009.961
  23102190.191    -1991127.99549  -1437797.59646  23102189.517    23102198.000
                 -25257470.39449   1995970.05743
 04  7 21  2  9  0.0000000  0  8G 3G19G31G27G13G28G10G 8
  24039907.304    -9273354.47049  -1967349.20945  24039907.059    24039914.382
  22453135.939   -13555829.05049 -10326590.92846  22453135.048    22453140.349
  24041095.549    -9048257.97549  -5898789.33945  24041095.164    24041106.260
  20700316.918    -2314568.95649  -1800598.83648  20700316.599    20700323.367
  21758366.320     3258106.67649   2547596.67947  21758366.566    21758373.213
  22116926.623   -17594102.88649 -13687447.47747  22116926.230    22116932.830
  23104241.366    -1980350.31149  -1429399.43846  23104240.327    23104248.846
                 -25294419.95148   2072648.53343
 04  7 21  2  9 30.0000000  0  8G 3G19G31G27G13G28G10G 8
  24053543.725    -9201693.81449  -1911509.74045  24053543.579    24053550.334
  22452676.455   -13558242.38049 -10328471.42946  22452675.606    22452680.957
  24019136.203    -9163660.26149  -5988713.06645  24019135.617    24019145.997
  20700642.101    -2312860.13949  -1799267.28948  20700641.794    20700648.529
  21774262.925     3341642.64649   2612689.62347  21774263.121    21774269.672
  22102908.080   -17667770.98149 -13744851.14047  22102907.666    22102914.308
  23106399.786    -1969008.49949  -1420561.69146  23106398.603    23106407.174
                 -25331119.12948   2044039.23943
 04  7 21  2 10  0.0000000  0  8G 3G19G31G27G13G28G10G 8
  24067261.402    -9129607.97249  -1855339.00745  24067261.131    24067267.485
  22452325.013   -13560088.46549 -10329909.91446  22452324.219    22452329.592
  23997179.808    -9279045.11349  -6078623.19045  23997178.979    23997188.841
  20701009.563    -2310929.24149  -1797762.68948  20701009.220    20701015.915
  21790229.160     3425544.91149   2678067.95847  21790229.368    21790235.635
  22088947.906   -17741132.25749 -13802015.73747  22088947.430    22088954.137
  23108664.751    -1957105.41149  -1411286.60346  23108663.645    23108672.343
                 -25367571.41948   2015598.78243
 04  7 21  2 10 30.0000000  0  8G 3G19G31G27G13G28G10G 8
  24081059.992    -9057097.30349  -1798837.25345  24081059.489    24081066.098
  22452082.129   -13561364.78949 -10330904.42146  22452081.407    22452086.598
  23975226.422    -9394407.72849  -6168516.01745  23975225.648    23975235.602
  20701419.593    -2308773.61849  -1796082.98648  20701419.306    20701426.117
  21806265.254     3509814.30149   2743732.37647  21806265.436    21806271.217
  22075046.566   -17814184.08949 -13858939.19247  22075046.203    22075052.761
  23111036.569    -1944639.87849  -1401573.20246  23111035.753    23111044.419
                 -25403773.09548   2090978.71743
 04  7 21  2 11  0.0000000  0  7G 3G19G31G27G13G28G10
  24094938.551    -8984165.21449  -1742007.08745  24094938.001    24094945.005
  22451947.718   -13562072.19549 -10331455.62546  22451946.980    22451951.946
  23953277.311    -9509746.37949  -6258390.20145  23953277.262    23953287.208
  20701872.461    -2306393.89049  -1794228.65648  20701872.082    20701879.020
  21822370.577     3594447.53549   2809680.27347  21822370.687    21822375.799
  22061204.274   -17886927.03849 -13915621.94847  22061203.726    22061210.129
  23113515.400    -1931614.15649  -1391423.31946  23113514.517    23113522.989
 04  7 21  2 11 30.0000000  0  7G 3G19G31G27G13G28G10
  24108896.707    -8910814.58849  -1684850.77945  24108896.189    24108903.305
  22451921.458   -13562211.21249 -10331563.93146  22451920.689    22451925.506
  23931333.998    -9625059.15949  -6348244.19245  23931333.703    23931343.830
  20702367.810    -2303790.24349  -1792199.83948  20702367.489    20702374.420
  21838544.314     3679442.31449   2875909.89747  21838544.461    21838549.009
  22047420.661   -17959360.88949 -13972063.88047  22047420.028    22047426.382
  23116100.557    -1918030.14549  -1380838.39446  23116099.547    23116107.951
 04  7 21  2 12  0.0000000  0  7G 3G19G31G27G13G28G10
  24122933.813    -8837046.41449  -1627369.09645  24122933.452    24122940.672
  22452003.541   -13561779.91149 -10331227.84046  22452002.762    22452007.572
  23909396.719    -9740341.66749  -6438074.59445  23909396.200    23909406.185
  20702906.236    -2300960.64849  -1789994.95648  20702905.897    20702912.939
  21854786.417     3764798.27649   2942420.96447  21854786.817    21854791.211
  22033696.263   -18031483.23549 -14028263.06947  22033695.670    22033701.938
  23118791.822    -1903887.26049  -1369817.97546  23118790.894    23118799.411
 04  7 21  2 12 30.0000000  0  7G 3G19G31G27G13G28G10
  24137050.212    -8762862.41249  -1569563.40945  24137050.187    24137056.994
  22452194.075   -13560777.31849 -10330446.57446  22452193.340    22452198.365
  23887465.521    -9855590.37349  -6527878.67045  23887464.853    23887474.839
  20703487.856    -2297903.88049  -1787613.05348  20703487.534    20703494.690
  21871097.329     3850514.39049   3009212.69347  21871097.685    21871102.436
  22020031.474   -18103292.82349 -14084218.52947  22020030.720    22020036.804
  23121589.519    -1889186.04649  -1358362.49446  23121588.527    23121596.984
 04  7 21  2 13  0.0000000  0  7G 3G19G31G27G13G28G10
  24151246.109    -8688265.77449  -1511436.22745  24151245.860    24151252.271
  22452493.020   -13559204.13749 -10329220.70146  22452492.423    22452497.666
  23865541.193    -9970803.00749  -6617654.64846  23865540.490    23865550.608
  20704112.764    -2294620.10349  -1785054.25448  20704112.371    20704119.585
  21887475.973     3936588.02949   3076283.04546  21887476.406    21887482.090
  22006425.788   -18174789.54749 -14139930.21547  22006425.239    22006431.276
  23124493.029    -1873928.41849  -1346473.43146  23124492.027    23124500.311
 04  7 21  2 13 30.0000000  0  7G 3G19G31G27G13G28G10
  24165519.463    -8613258.43949  -1452989.03545  24165519.250    24165525.366
  22452900.685   -13557059.91449 -10327549.87846  22452900.132    22452905.738
  23843624.183   -10085976.80449  -6707400.36746  23843623.563    23843633.603
  20704780.928    -2291108.63049  -1782318.03948  20704780.608    20704787.803
  21903923.368     4023017.69449   3143630.78147  21903923.758    21903929.685
  21992879.858   -18245972.63949 -14195397.51147  21992879.387    21992885.528
  23127501.992    -1858115.45249  -1334151.65546  23127501.114    23127509.380
 04  7 21  2 14  0.0000000  0  7G 3G19G31G27G13G28G10
  24179870.617    -8537841.30949  -1394222.49545  24179870.475    24179875.915
  22453417.182   -13554342.67949 -10325432.56546  22453416.634    22453422.808
  23821715.340   -10201107.28549  -6797112.28946  23821715.079    23821724.518
  20705493.016    -2287367.54449  -1779402.90348  20705492.556    20705499.719
  21920438.917     4109803.23649   3211255.83547  21920439.105    21920445.022
  21979394.104   -18316839.74149 -14250618.58847  21979393.713    21979399.934
  23130616.604    -1841746.78149  -1321396.87346  23130615.768    23130624.147
 04  7 21  2 14 30.0000000  0  7G 3G19G31G27G13G28G10
  24194299.649    -8462018.74049  -1335140.00245  24194299.215    24194303.929
  22454042.579   -13551054.17649 -10322870.11546  22454041.981    22454048.439
  23799815.533   -10316193.33749  -6886789.62046  23799815.270    23799824.065
  20706248.345    -2283398.00549  -1776309.75848  20706247.913    20706255.005
  21937021.006     4196941.10549   3279155.43347  21937021.186    21937027.395
  21965968.480   -18387391.88949 -14305594.24047  21965967.987    21965974.332
  23133836.638    -1824825.34149  -1308211.36446  23133835.768    23133844.050
 04  7 21  2 15  0.0000000  0  7G 3G19G31G27G13G28G10
  24208805.015    -8385793.55949  -1275743.83545  24208804.534    24208809.391
  22454776.660   -13547195.14949 -10319863.09746  22454776.192    22454782.597
  23777924.843   -10431232.90449  -6976430.68946  23777924.166    23777932.460
  20707047.207    -2279200.17149  -1773038.71548  20707046.820    20707053.767
  21953669.455     4284428.66249   3347327.51847  21953669.710    21953676.139
  21952602.605   -18457629.16349 -14360324.53847  21952602.220    21952608.692
  23137161.346    -1807353.16749  -1294596.68746  23137160.557    23137168.740
 04  7 21  2 15 30.0000000  0  7G 3G19G31G27G13G28G10
  24223386.090    -8309167.10149  -1216034.92045  24223385.672    24223390.829
  22455620.502   -13542764.15949 -10316410.37346  22455619.697    22455625.648
  23756042.780   -10546221.81549  -7066032.31145  23756042.156    23756050.362
  20707889.817    -2274772.17049  -1769588.33348  20707889.327    20707896.238
  21970384.297     4372265.10849   3415771.45147  21970384.549    21970391.041
  21939297.060   -18527549.75549 -14414808.08547  21939296.821    21939303.286
  23140590.997    -1789330.55849  -1280553.11746  23140590.222    23140598.236
 04  7 21  2 16  0.0000000  0  7G 3G19G31G27G13G28G10
  24238042.932    -8232140.67749  -1156014.35245  24238043.102    24238047.911
  22456573.020   -13537760.08049 -10312511.07746  22456572.248    22456577.685
  23734170.535   -10661156.05949  -7155591.34945  23734170.396    23734178.739
  20708776.509    -2270112.54349  -1765957.45248  20708776.102    20708782.837
  21987165.589     4460449.84449   3484486.75147  21987165.692    21987172.270
  21926052.499   -18597151.80249 -14469043.40647  21926052.060    21926058.520
  23144125.429    -1770757.53849  -1266080.65746  23144124.536    23144132.554
 04  7 21  2 16 30.0000000  0  7G 3G19G31G27G13G28G10
  24252776.199    -8154717.96749  -1095685.02145  24252776.511    24252780.907
  22457634.483   -13532184.09849 -10308166.14046  22457633.693    22457638.571
  23712310.171   -10776034.20249  -7245106.64045  23712309.710    23712317.677
  20709707.184    -2265221.90649  -1762146.58148  20709706.689    20709713.364
  22004012.182     4548979.65849   3553470.98447  22004012.200    22004019.274
  21912868.298   -18666435.78449 -14523030.89747  21912867.797    21912874.302
  23147764.026    -1751636.72449  -1251181.34946  23147763.217    23147771.099
 04  7 21  2 17  0.0000000  0  7G 3G19G31G27G13G28G10
  24267584.342    -8076902.03249  -1035049.31845  24267584.541    24267589.623
  22458804.611   -13526036.82649 -10303376.03946  22458803.644    22458808.252
  23690459.372   -10890853.72049  -7334576.36645  23690459.268    23690467.381
  20710681.770    -2260100.29549  -1758155.73048  20710681.343    20710687.917
  22020923.794     4637852.50649   3622722.51747  22020923.972    22020931.384
  21899744.311   -18735401.75349 -14576770.58947  21899744.023    21899750.482
  23151506.710    -1731970.12849  -1235856.75946  23151505.766    23151513.608
 04  7 21  2 17 30.0000000  0  7G 3G19G31G27G13G28G10
  24282467.019    -7998693.53849   -974107.64045  24282466.880    24282472.879
  22460083.767   -13519316.27249 -10298139.22446  22460082.658    22460087.174
  23668621.235   -11005610.13549  -7423996.79445  23668621.275    23668629.193
  20711700.794    -2254745.28649  -1753983.01348  20711700.428    20711706.874
  22037900.656     4727068.06249   3692241.08147  22037900.840    22037908.507
  21886681.665   -18804047.27849 -14630260.56247  21886681.236    21886687.493
  23155353.257    -1711757.18749  -1220106.44146  23155352.253    23155360.193
 04  7 21  2 18  0.0000000  0  7G 3G19G31G27G13G28G10
  24297423.460    -7920095.67449   -912862.54245  24297423.303    24297430.000
  22461471.717   -13512023.45149 -10292456.50346  22461470.438    22461475.103
  23646796.369   -11120301.24749  -7513366.36945  23646796.015    23646804.005
  20712764.162    -2249157.27549  -1749628.73448  20712763.782    20712770.164
  22054941.810     4816623.40149   3762024.44247  22054942.221    22054950.363
  21873679.770   -18872372.48649 -14683500.94847  21873679.257    21873685.376
  23159303.038    -1691000.25549  -1203932.21946  23159302.169    23159310.356
 04  7 21  2 18 30.0000000  0  7G 3G19G31G27G13G28G10
  24312454.212    -7841110.42149   -851315.58745  24312453.969    24312460.875
  22462968.176   -13504157.92049 -10286327.53146  22462966.982    22462972.040
  23624984.196   -11234923.88449  -7602682.60545  23624983.804    23624992.234
  20713871.997    -2243335.35949  -1745092.18148  20713871.735    20713878.045
  22072048.416     4906516.94649   3832071.32247  22072048.588    22072056.471
  21860738.911   -18940376.39349 -14736490.96647  21860738.356    21860744.499
  23163356.179    -1669700.37249  -1187334.92246  23163355.423    23163363.705
 04  7 21  2 19  0.0000000  0  7G 3G19G31G27G13G28G10
  24327557.898    -7761740.67849   -789469.10845  24327557.662    24327565.218
  22464573.532   -13495720.24449 -10279752.74946  22464572.440    22464577.841
  23603185.903   -11349475.55449  -7691943.57345  23603185.575    23603194.009
  20715024.569    -2237279.34049  -1740373.21448  20715024.167    20715030.556
  22089219.048     4996746.86749   3902380.32047  22089219.121    22089226.488
  21847859.194   -19008058.69249 -14789230.37847  21847858.692    21847864.772
  23167512.679    -1647859.40549  -1170316.01546  23167511.606    23167519.988
 04  7 21  2 19 30.0000000  0  7G 3G19G31G27G13G28G10
  24342733.851    -7681988.40349   -727324.57145  24342733.825    24342741.985
  22466288.192   -13486709.95449 -10272731.77946  22466287.123    22466292.581
  23581401.945   -11463952.85349  -7781146.54045  23581401.257    23581410.302
  20716221.677    -2230988.15549  -1735470.99548  20716221.368    20716227.762
  22106453.515     5087311.61249   3972950.22547  22106453.599    22106460.176
  21835041.014   -19075418.24249 -14841718.29247  21835040.606    21835046.447
  23171771.135    -1625478.40949  -1152876.28046  23171770.457    23171778.956
 04  7 21  2 20  0.0000000  0  7G 3G19G31G27G13G28G10
  24357982.874    -7601856.14449   -664883.86745  24357982.569    24357991.185
  22468111.977   -13477126.98649 -10265264.56046  22468110.950    22468116.166
  23559632.169   -11578352.60049  -7870289.14745  23559631.616    23559641.420
  20717463.818    -2224461.10649  -1730384.97948  20717463.459    20717469.875
  22123751.629     5178209.28549   4043779.51647  22123751.524    22123757.137
  21822284.542   -19142454.55649 -14893954.34747  21822284.137    21822289.807
  23176132.598    -1602558.57149  -1135016.69646  23176131.858    23176140.237
 04  7 21  2 20 30.0000000  0  7G 3G19G31G27G13G28G10
  24373303.544    -7521347.61249   -602149.97445  24373302.924    24373311.496
  22470044.541   -13466973.12749 -10257352.46447  22470043.552    22470048.416
  23537877.906   -11692673.57749  -7959370.31045  23537877.047    23537887.315
  20718750.496    -2217699.16549  -1725115.95248  20718750.188    20718756.763
  22141111.843     5269436.39549   4114865.50947  22141111.648    22141116.875
  21809589.259   -19209168.47049 -14945939.20647  21809588.926    21809594.666
  23180596.253    -1579103.01649  -1116739.67146  23180595.208    23180603.418
 04  7 21  2 21  0.0000000  0  7G 3G19G31G27G13G28G10
  24388695.006    -7440463.56949   -539123.46545  24388694.329    24388703.077
  22472086.087   -13456246.50449 -10248994.04947  22472085.059    22472089.673
  23516138.604   -11806910.84749  -8048386.29246  23516138.286    23516148.763
  20720082.554    -2210699.78649  -1719661.88448  20720082.185    20720088.682
  22158534.008     5360992.76549   4186208.09847  22158533.967    22158539.435
  21796956.044   -19275557.45249 -14997670.85047  21796955.512    21796961.287
  23185161.553    -1555111.45849  -1098044.96646  23185160.757    23185168.557
 04  7 21  2 21 30.0000000  0  7G 3G19G31G27G13G28G10
  24404157.887    -7359206.08949   -475806.02645  24404156.994    24404165.748
  22474236.412   -13444947.22349 -10240189.39947  22474235.410    22474239.978
  23494416.921   -11921061.31849  -8137334.57846  23494416.444    23494426.654
  20721459.841    -2203462.11349  -1714022.15148  20721459.502    20721466.059
  22176018.545     5452877.02849   4257806.19346  22176018.572    22176024.467
  21784384.419   -19341620.71549 -15049148.68847  21784384.015    21784389.882
  23189828.746    -1530584.99549  -1078933.46146  23189828.096    23189835.639
 04  7 21  2 22  0.0000000  0  7G 3G19G31G27G13G28G10
  24419690.941    -7277578.62049   -412200.27145  24419690.200    24419699.038
  22476495.493   -13433076.32249 -10230939.32447  22476494.407    22476499.051
  23472711.372   -12035122.73349  -8226213.56146  23472711.210    23472721.575
  20722882.496    -2195986.50649  -1708197.01748  20722882.147    20722888.760
  22193565.437     5545086.28649   4329657.51846  22193565.225    22193571.113
  21771874.756   -19407358.47949 -15100372.89847  21771874.385    21771880.474
  23194597.825    -1505526.18549  -1059407.16546  23194596.755    23194604.116
 04  7 21  2 22 30.0000000  0  7G 3G19G31G27G13G28G10
  24435293.584    -7195583.64549   -348308.12945  24435292.969    24435302.207
  22478863.161   -13420633.66049 -10221243.72547  22478862.118    22478866.889
  23451024.381   -12149092.18149  -8315020.78446  23451023.953    23451033.644
  20724350.578    -2188272.25249  -1702185.91448  20724350.201    20724356.713
  22211173.623     5637618.78149   4401760.72746  22211173.544    22211179.291
  21759427.276   -19472770.18849 -15151343.04647  21759426.753    21759433.164
  23199467.602    -1479936.34049  -1039467.05146  23199466.403    23199473.654
 04  7 21  2 23  0.0000000  0  7G 3G19G31G27G13G28G10
  24450966.193    -7113223.06949   -284131.04445  24450965.550    24450974.846
  22481339.590   -13407619.14049 -10211102.53647  22481338.593    22481343.539
  23429355.143   -12262966.00049  -8403753.51746  23429354.695    23429363.394
  20725864.242    -2180318.07049  -1695987.85948  20725863.843    20725870.346
  22228843.502     5730473.13949   4474114.73047  22228843.361    22228848.889
  21747041.877   -19537854.27849 -15202057.90247  21747041.497    21747048.059
  23204437.725    -1453816.29649  -1019113.78846  23204436.803    23204444.219
 04  7 21  2 23 30.0000000  0  8G 3G19G31G27G13G28G10G 8
  24466708.125    -7030499.07549   -219670.87145  24466707.262    24466716.754
  22483924.879   -13394032.65649 -10200515.66247  22483923.924    22483929.025
  23407704.279   -12376741.01649  -8492409.28446  23407704.183    23407712.133
  20727423.713    -2172123.22849  -1689602.27048  20727423.343    20727429.825
  22246574.390     5823647.63949   4546718.16447  22246574.177    22246579.260
  21734719.107   -19602610.27349 -15252517.07747  21734718.648    21734725.289
  23209508.815    -1427167.76449   -998348.73346  23209507.842    23209515.289
                   -315080.58849   -238435.21443
 04  7 21  2 24  0.0000000  0  8G 3G19G31G27G13G28G10G 8
  24482518.093    -6947415.11849   -154930.17145  24482517.436    24482526.919
  22486618.862   -13379875.18649 -10189483.87447  22486617.988    22486623.081
  23386073.130   -12490415.22449  -8580986.47146  23386073.017    23386079.902
  20729028.951    -2163687.99649  -1683029.36248  20729028.522    20729035.003
  22264365.374     5917139.20349   4619568.65847  22264365.320    22264370.146
  21722458.626   -19667038.60349 -15302720.92647  21722458.235    21722464.880
  23214680.310    -1399993.28649   -977173.85046  23214679.002    23214686.393
                   -344270.19149   -261180.22943
 04  7 21  2 24 30.0000000  0  8G 3G19G31G27G13G28G10G 8
  24498396.345    -6863973.65649    -89910.82745  24498395.654    24498405.369
  22489421.679   -13365146.95949 -10178007.35147  22489420.718    22489425.728
  23364462.142   -12603985.33249  -8669482.50646  23364461.620    23364467.895
  20730680.018    -2155011.47349  -1676268.43948  20730679.639    20730686.056
  22282216.674     6010946.27449   4692664.99647  22282216.561    22282221.111
  21710260.707   -19731138.31949 -15352668.72247  21710260.409    21710267.053
  23219950.691    -1372294.14549   -955590.09846  23219949.864    23219957.361
                   -373190.09949   -283715.24343
 04  7 21  2 25  0.0000000  0  8G 3G19G31G27G13G28G10G 8
  24514342.398    -6780176.00049    -24614.04845  24514341.844    24514351.510
  22492333.066   -13349847.56449 -10166085.74747  22492332.033    22492337.124
  23342871.167   -12717447.37649  -8757894.40546  23342870.587    23342876.596
  20732377.274    -2146092.15249  -1669318.32448  20732376.904    20732383.278
  22300127.633     6105067.99749   4766006.53347  22300127.503    22300131.995
  21698125.713   -19794907.76349 -15402359.16347  21698125.510    21698132.038
  23225320.985    -1344071.08949   -933598.12146  23225320.475    23225328.012
                   -401838.37249   -306038.59045                  20462701.991
 04  7 21  2 25 30.0000000  0  8G 3G19G31G27G13G28G10G 8
  24530355.463    -6696025.78649     40957.44345  24530355.119    24530364.625
  22495352.833   -13333978.31349 -10153720.11147  22495351.772    22495356.918
  23321300.615   -12830799.54549  -8846220.66145  23321300.112    23321306.533
  20734120.653    -2136930.52949  -1662179.39948  20734120.307    20734126.700
  22318097.611     6199501.31649   4839590.86247  22318097.593    22318102.361
  21686053.792   -19858347.88049 -15451792.96647  21686053.308    21686059.622
  23230791.393    -1315327.09149   -911200.23546  23230790.369    23230797.734
  20457298.152     -430215.71149   -328150.78645  20457296.628    20457302.538
 04  7 21  2 26  0.0000000  0  8G 3G19G31G27G13G28G10G 8
  24546435.717    -6611525.58349    106801.77145  24546435.415    24546444.322
  22498480.926   -13317539.36449 -10140910.54947  22498479.797    22498485.100
  23299751.527   -12944038.84749  -8934458.99145  23299750.959    23299758.167
  20735910.136    -2127526.17549  -1654851.32948  20735909.829    20735916.246
  22336126.499     6294243.59249   4913415.96747  22336126.332    22336131.353
  21674044.366   -19921458.06649 -15500969.70447  21674043.951    21674050.181
  23236359.879    -1286063.76449   -888397.65346  23236359.003    23236366.375
  20451949.070     -458321.50349   -350051.39645  20451947.651    20451954.410
 04  7 21  2 26 30.0000000  0  8G 3G19G31G27G13G28G10G 8
  24562582.335    -6526677.54049    172917.11445  24562581.827    24562590.594
  22501717.342   -13300531.05749 -10127657.32947  22501716.216    22501721.630
  23278224.628   -13057161.93649  -9022606.75745  23278223.863    23278231.679
  20737746.066    -2117877.92549  -1647333.21848  20737745.837    20737752.281
  22354213.607     6389293.26249   4987480.58847  22354213.580    22354218.643
  21662097.873   -19984237.45349 -15549888.67747  21662097.562    21662103.869
  23242026.808    -1256282.43549   -865191.44446  23242026.160    23242033.696
  20446652.284     -486154.63249   -371739.56245  20446651.897    20446657.359
 04  7 21  2 27  0.0000000  0  8G 3G19G31G27G13G28G10G 8
  24578794.335    -6441484.03049    239301.60745  24578793.855    24578802.870
  22505062.205   -13282953.39249 -10113960.44647  22505061.091    22505066.447
  23256719.433   -13170165.29749  -9110661.24245  23256718.861    23256727.934
  20739628.714    -2107984.72349  -1639624.23948  20739628.414    20739634.992
  22372359.417     6484649.03849   5061783.71646  22372359.318    22372364.147
  21650214.650   -20046685.05349 -15598549.14147  21650214.209    21650220.580
  23247792.732    -1225984.46949   -841582.68446  23247791.788    23247799.386
  20441408.052     -513713.71749   -393214.17445  20441407.328    20441413.425
 04  7 21  2 27 30.0000000  0  8G 3G19G31G27G13G28G10G 8
  24595071.572    -6355947.75749    305953.21845  24595071.165    24595080.572
  22508515.468   -13264806.76949 -10099820.21147  22508514.290    22508519.420
  23235238.058   -13283046.23349  -9198620.35445  23235237.212    23235247.490
  20741557.935    -2097846.15849  -1631724.06748  20741557.688    20741564.335
  22390562.765     6580309.07349   5136323.95346  22390562.417    22390567.324
  21638394.219   -20108800.58249 -15646950.83947  21638393.842    21638400.302
  23253656.332    -1195172.06449   -817573.05046  23253655.319    23253663.123
  20436215.683     -540998.16549   -414474.77545  20436215.263    20436221.513
 04  7 21  2 28  0.0000000  0  8G 3G19G31G27G13G28G10G 8
  24611413.812    -6270070.10249    372870.85345  24611413.412    24611422.829
  22512076.909   -13246090.98849 -10085236.48847  22512075.814    22512080.545
  23213780.898   -13395800.71149  -9286480.92945  23213780.424    23213791.132
  20743534.361    -2087460.82449  -1623631.59548  20743533.990    20743540.682
  22408823.635     6676272.00649   5211100.18646  22408823.474    22408828.116
  21626637.374   -20170582.75549 -15695092.75347  21626636.971    21626643.547
  23259617.207    -1163846.09349   -793163.23346  23259616.482    23259624.560
  20431076.202     -568007.15049   -435520.73945  20431075.721    20431082.100
 04  7 21  2 28 30.0000000  0  7G19G31G27G13G28G10G 8
  22515747.285   -13226803.60949 -10070207.37147  22515746.153    22515750.397
  23192349.653   -13508422.97749  -9374238.47046  23192349.419    23192359.986
  20745558.197    -2076825.22149  -1615344.12248  20745557.819    20745564.683
  22427142.075     6772538.41549   5286112.93946  22427141.934    22427147.387
  21614944.367   -20232028.30149 -15742972.38047  21614944.026    21614950.717
  23265676.537    -1132005.40849   -768352.34046  23265675.638    23265683.886
  20425989.809     -594736.36649   -456348.69845  20425989.202    20425995.919
 04  7 21  2 29  0.0000000  0  7G19G31G27G13G28G10G 8
  22519525.052   -13206951.20149 -10054737.96647  22519523.978    22519527.890
  23170943.683   -13620916.08949  -9461895.34946  23170943.458    23170952.982
  20747628.651    -2065944.86849  -1606865.92248  20747628.246    20747635.264
  22445516.770     6869100.41249   5361356.01646  22445516.842    22445523.137
  21603314.621   -20293142.74549 -15790593.99147  21603314.177    21603320.849
  23271832.238    -1099658.04149   -743146.62946  23271831.137    23271839.500
  20420955.421     -621191.28449   -476962.89045  20420954.858    20420961.862
 04  7 21  2 29 30.0000000  0  7G19G31G27G13G28G10G 8
  22523410.400   -13186532.72049 -10038827.47147  22523409.458    22523413.304
  23149563.405   -13733275.42149  -9549447.97846  23149562.910    23149571.603
  20749746.171    -2054817.35449  -1598195.13248  20749745.750    20749752.806
  22463948.098     6965957.59249   5436829.06246  22463948.183    22463954.732
  21591748.326   -20353924.06849 -15837956.01947  21591747.954    21591754.439
  23278083.736    -1066804.29149   -717546.30346  23278083.038    23278091.501
  20415973.651     -647369.46549   -497361.45945  20415973.196    20415980.436
 04  7 21  2 30  0.0000000  0  7G19G31G27G13G28G10G 8
  22527403.506   -13165548.19449 -10022475.90247  22527402.614    22527406.436
  23128209.024   -13845497.28349  -9636893.50746  23128208.503    23128216.376
  20751910.892    -2043441.55749  -1589330.88048  20751910.452    20751917.590
  22482435.342     7063108.35049   5512530.88646  22482435.503    22482442.193
  21580245.829   -20414371.23349 -15885057.66647  21580245.387    21580251.692
  23284432.096    -1033445.21449   -691552.24246  23284431.104    23284439.602
  20411044.809     -673269.55649   -517543.36046  20411044.578    20411051.954
 04  7 21  2 30 30.0000000  0  7G19G31G27G13G28G10G 8
  22531504.051   -13143998.56549 -10005683.99147  22531503.255    22531507.183
  23106881.204   -13957579.20549  -9724229.98146  23106880.409    23106888.049
  20754122.834    -2031817.49249  -1580273.17448  20754122.460    20754129.684
  22500978.304     7160549.73649   5588459.15646  22500978.346    22500984.855
  21568806.789   -20474484.16749 -15931898.88847  21568806.426    21568812.575
  23290875.979     -999583.56449   -665166.55846  23290874.843    23290883.307
  20406169.290     -698891.75249   -537508.68246  20406168.983    20406176.185
 04  7 21  2 31  0.0000000  0  7G19G31G27G13G28G10G 8
  22535712.372   -13121882.47049  -9988450.68347  22535711.602    22535715.786
  23085580.137   -14069516.04849  -9811453.43846  23085579.406    23085587.268
  20756382.647    -2019942.34849  -1571019.83048  20756382.256    20756389.532
  22519576.315     7258282.18949   5664614.25046  22519576.351    22519582.827
  21557431.818   -20534260.45449 -15978477.77947  21557431.610    21557437.468
  23297415.090     -965218.97849   -638388.96646  23297414.246    23297422.728
  20401347.121     -724232.71849   -557254.89246  20401346.821    20401353.928
 04  7 21  2 31 30.0000000  0  7G19G31G27G13G28G10G 8
  22540028.546   -13099200.79649  -9970776.66147  22540027.723    22540032.068
  23064307.349   -14181305.05649  -9898561.66046  23064306.613    23064314.048
  20758690.358    -2007815.71549  -1561570.52348  20758689.977    20758697.119
  22538229.191     7356303.26749   5740994.26847  22538229.298    22538235.889
  21546121.273   -20593700.08249 -16024794.33047  21546120.831    21546126.398
  23304049.907     -930353.75449   -611221.28346  23304048.903    23304057.440
  20396578.971     -749292.34849   -576781.86246  20396578.442    20396585.251
 04  7 21  2 32  0.0000000  0  7G19G31G27G13G28G10G 8
  22544452.010   -13075955.19349  -9952663.21147  22544451.191    22544455.565
  23043062.968   -14292944.19149  -9985553.10546  23043062.230    23043069.704
  20761045.902    -1995438.03649  -1551925.58348  20761045.497    20761052.462
  22556936.596     7454609.98349   5817596.86146  22556936.737    22556943.164
  21534874.300   -20652803.58949 -16070848.97947  21534873.897    21534879.393
  23310779.444     -894990.55849   -583665.58046  23310778.314    23310786.876
  20391864.147     -774070.34749   -596089.40346  20391863.645    20391870.011
 04  7 21  2 32 30.0000000  0  7G19G31G27G13G28G10G 8
  22548982.784   -13052145.35549  -9934110.09447  22548982.025    22548986.543
  23021847.937   -14404429.46349 -10072424.66946  23021847.237    23021855.194
  20763449.387    -1982807.62349  -1542083.72948  20763449.033    20763455.958
  22575698.119     7553201.29049   5894421.16946  22575698.318    22575703.947
  21523691.653   -20711569.64749 -16116640.67647  21523691.139    21523696.633
  23317602.916     -859130.62449   -555722.79946  23317602.220    23317610.818
  20387203.257     -798565.45249   -615176.49746  20387202.553    20387208.716
 04  7 21  2 33  0.0000000  0  7G19G31G27G13G28G10G 8
  22553620.830   -13027772.87349  -9915118.54847  22553620.063    22553624.707
  23000662.197   -14515758.64449 -10159174.58846  23000661.744    23000669.349
  20765901.111    -1969924.67549  -1532045.07748  20765900.666    20765907.487
  22594513.377     7652073.95149   5971464.69946  22594513.493    22594518.443
  21512572.853   -20769998.50149 -16162169.63747  21512572.496    21512577.957
  23324521.209     -822776.73349   -527395.12746  23324520.230    23324528.730
  20382595.755     -822777.72849   -634043.20146  20382595.123    20382601.320
 04  7 21  2 33 30.0000000  0  7G19G31G27G13G28G10G 8
  22558365.589   -13002841.03249  -9895691.13247  22558364.589    22558369.355
  22979506.465   -14626931.22449 -10245802.48046  22979505.830    22979513.062
  20768400.247    -1956791.39549  -1521811.35048  20768399.836    20768406.539
  22613381.105     7751223.62949   6048724.13646  22613381.232    22613386.234
  21501518.031   -20828092.49249 -16207437.64247  21501517.559    21501523.009
  23331532.511     -785933.54249   -498686.19046  23331531.317    23331539.783
  20378041.544     -846708.70549   -652690.73446  20378041.116    20378047.387
 04  7 21  2 34  0.0000000  0  7G19G31G27G13G28G10G 8
  22563217.131   -12977347.43049  -9875825.97847  22563216.000    22563220.973
  22958381.590   -14737940.92849 -10332303.48545  22958380.935    22958388.431
  20770947.718    -1943403.68949  -1511379.37948  20770947.253    20770954.008
  22632301.556     7850651.01549   6126199.91946  22632301.734    22632306.627
  21490527.480   -20885848.05849 -16252441.97147  21490526.928    21490532.430
  23338636.561     -748599.97749   -469595.11246  23338635.699    23338644.024
  20373542.042     -870354.51049   -671116.03946  20373541.461    20373547.650
 04  7 21  2 34 30.0000000  0  7G19G31G27G13G28G10G 8
  22568175.302   -12951292.88849  -9855523.74847  22568174.188    22568179.358
  22937288.607   -14848784.99549 -10418675.38345  22937287.698    22937294.968
  20773543.667    -1929761.39349  -1500749.00448  20773543.295    20773550.014
  22651274.458     7950354.18549   6203890.61346  22651274.530    22651279.587
  21479601.399   -20943265.13449 -16297182.51547  21479600.792    21479606.204
  23345833.759     -710778.25249   -440123.67046  23345832.887    23345841.043
  20369096.679     -893714.76949   -689318.84646  20369096.198    20369102.253
 04  7 21  2 35  0.0000000  0  7G19G31G27G13G28G10G 8
  22573240.048   -12924678.43449  -9834785.22347  22573238.902    22573244.173
  22916226.797   -14959460.47449 -10504915.97045  22916225.948    22916233.663
  20776188.280    -1915863.82049  -1489919.72248  20776187.815    20776194.614
  22670299.092     8050330.52649   6281794.22446  22670299.198    22670304.767
  21468739.726   -21000343.40449 -16341659.04447  21468739.082    21468744.540
  23353123.390     -672470.59649   -410273.58346  23353122.211    23353130.468
  20364705.748     -916788.80849   -707298.63646  20364705.188    20364711.195
 04  7 21  2 35 30.0000000  0  7G19G31G27G13G28G10G 8
  22578411.145   -12897503.62949  -9813610.07547  22578410.062    22578415.461
  22895198.036   -15069963.10749 -10591021.84645  22895197.616    22895205.585
  20778881.497    -1901709.09449  -1478890.08448  20778881.200    20778888.055
  22689376.243     8150579.43549   6359910.19046  22689376.171    22689381.666
  21457942.673   -21057081.39049 -16385870.44547  21457942.146    21457947.730
  23360504.690     -633677.82049   -380045.45045  23360503.740    23360512.293
  20360369.746     -939574.45449   -725053.69046  20360369.290    20360375.136
 04  7 21  2 36  0.0000000  0  7G19G31G27G13G28G10G 8
  22583688.589   -12869768.74349  -9791998.50147  22583687.649    22583693.336
  22874203.166   -15180289.22749 -10676990.21645  22874202.620    22874211.125
  20781624.282    -1887296.27649  -1467659.30848  20781623.971    20781630.669
  22708504.035     8251099.16149   6438237.20746  22708503.873    22708509.930
  21447210.488   -21113478.29949 -16429816.08347  21447209.996    21447215.753
  23367978.520     -594401.43549   -349440.50145  23367977.676    23367986.203
  20356089.245     -962070.66549   -742583.17246  20356088.483    20356094.219
 04  7 21  2 36 30.0000000  0  7G19G31G27G13G28G10G 8
  22589071.924   -12841476.81749  -9769952.87347  22589071.062    22589077.211
  22853242.888   -15290438.05349 -10762820.35546  22853242.199    22853250.892
  20784415.849    -1872626.70749  -1456228.48748  20784415.509    20784422.140
  22727681.729     8351885.41849   6516771.93746  22727681.935    22727689.234
  21436542.920   -21169535.87349 -16473497.29747  21436542.510    21436548.430
  23375544.164     -554645.91149   -318462.20346  23375542.948    23375551.623
  20351862.613     -984278.70449   -759888.15846  20351862.209    20351868.225
 04  7 21  2 37  0.0000000  0  7G19G31G27G13G28G10G 8
  22594561.295   -12812628.86949  -9747473.97346  22594560.342    22594566.861
  22832316.144   -15400406.54049 -10848510.06446  22832315.856    22832325.044
  20787256.342    -1857699.99049  -1444597.29848  20787256.012    20787262.544
  22746910.493     8452935.77849   6595512.41846  22746910.752    22746918.750
  21425940.157   -21225253.95149 -16516913.95747  21425939.701    21425945.596
  23383200.185     -514413.45449   -287112.28046  23383199.297    23383207.881
  20347691.623    -1006198.13249   -776968.18746  20347690.978    20347697.242
 04  7 21  2 37 30.0000000  0  7G19G31G27G13G28G10G 8
  22600156.238   -12783226.21049  -9724562.81746  22600155.218    22600161.941
  22811425.677   -15510191.99449 -10934057.09346  22811425.257    22811434.188
  20790145.936    -1842515.61849  -1432765.32548  20790145.552    20790151.923
  22766189.889     8554248.17049   6674457.09246  22766190.033    22766197.874
  21415401.976   -21280632.30749 -16560065.89447  21415401.506    21415407.354
  23390947.050     -473706.66149   -255392.74746  23390945.974    23390954.327
  20343574.967    -1027828.56349   -793823.06946  20343574.566    20343581.384
 04  7 21  2 38  0.0000000  0  7G19G31G27G13G28G10G 8
  22605856.620   -12753270.46549  -9701220.69647  22605855.631    22605862.238
  22790570.394   -15619792.17749 -11019459.75746  22790569.755    22790578.609
  20793084.406    -1827073.99449  -1420732.88148  20793084.028    20793090.310
  22785518.992     8655819.40949   6753603.42046  22785518.873    22785526.371
  21404928.123   -21335671.90749 -16602953.89347  21404927.747    21404933.662
  23398782.998     -432528.51649   -223305.91446  23398782.150    23398790.299
  20339513.842    -1049169.45549   -810452.31346  20339513.309    20339520.468
 04  7 21  2 38 30.0000000  0  7G19G31G27G13G28G10G 8
  22611662.503   -12722761.03349  -9677447.12347  22611661.572    22611667.847
  22769750.897   -15729202.40449 -11104714.41947  22769750.249    22769759.295
  20796072.220    -1811372.81149  -1408498.20248  20796071.819    20796078.212
  22804896.602     8757648.70449   6832950.84146  22804896.528    22804903.835
  21394519.482   -21390370.80949 -16645576.39147  21394519.003    21394524.838
  23406708.930     -390879.34949   -190852.07146  23406707.903    23406715.838
  20335508.381    -1070219.07349   -826854.57846  20335507.840    20335515.016
 04  7 21  2 39  0.0000000  0  7G19G31G27G13G28G10G 8
  22617573.658   -12691699.28049  -9653243.17047  22617572.759    22617578.520
  22748967.673   -15838419.98449 -11189818.98447  22748967.157    22748976.454
  20799109.449    -1795411.89649  -1396061.13248  20799109.096    20799115.516
  22824323.098     8859733.54049   6912497.37146  22824323.098    22824329.495
  21384175.586   -21444728.90649 -16687933.31247  21384175.034    21384180.740
  23414724.008     -348762.02549   -158033.43146  23414722.585    23414730.400
  20331558.136    -1090976.27749   -843029.05446  20331557.735    20331565.060
 04  7 21  2 39 30.0000000  0  7G19G31G27G13G28G10G 8
  22623590.108   -12660084.39749  -9628608.21147  22623589.165    22623594.420
  22728221.941   -15947440.12049 -11274769.67447  22728221.559    22728230.571
  20802196.614    -1779188.85649  -1383419.79048  20802196.229    20802202.573
  22843798.569     8962073.65349   6992242.84446  22843798.436    22843803.785
  21373896.785   -21498744.26549 -16730023.16347  21373896.309    21373901.861
  23422826.484     -306176.92549   -124850.23746  23422826.085    23422834.044
  20327664.533    -1111439.17649   -858974.15346  20327663.942    20327671.036
 04  7 21  2 40  0.0000000  0  7G19G31G27G13G28G10G 8
  22629711.484   -12627917.00749  -9603542.72947  22629710.597    22629715.585
  22707514.496   -16056259.48049 -11359563.91647  22707513.916    22707522.810
  20805333.681    -1762702.74549  -1370573.47248  20805333.338    20805339.707
  22863321.830     9064667.20549   7072185.77546  22863321.672    22863326.479
  21363683.248   -21552416.35249 -16771845.54947  21363682.850    21363688.320
  23431018.825     -263125.92549    -91304.05145  23431018.204    23431026.365
  20323826.676    -1131606.63049   -874689.06146  20323826.218    20323833.129
 04  7 21  2 40 30.0000000  0  7G19G31G27G13G28G10G 8
  22635937.177   -12595200.99549  -9578049.74547  22635936.337    22635941.173
  22686844.712   -16164877.69449 -11444201.44546  22686844.225    22686853.699
  20808520.580    -1745955.59949  -1357523.75548  20808520.221    20808526.540
  22882891.952     9167509.25249   7152322.34346  22882891.755    22882896.466
  21353534.738   -21605747.82749 -16813402.51447  21353534.236    21353539.742
  23439299.381     -219614.10849    -57398.77245  23439297.953    23439306.476
  20320044.972    -1151480.40149   -890175.12246  20320044.346    20320051.049
 04  7 21  2 41  0.0000000  0  7G19G31G27G13G28G10G 8
  22642267.928   -12561933.34449  -9552126.91647  22642267.114    22642271.824
  22666214.718   -16273287.55149 -11528676.58346  22666214.257    22666223.929
  20811757.999    -1728942.88349  -1344267.10248  20811757.620    20811763.932
  22902509.249     9270601.25449   7232653.69846  22902509.015    22902514.616
  21343451.566   -21658734.11949 -16854690.53747  21343451.187    21343456.866
  23447665.891     -175639.92149    -23133.17545  23447665.539    23447674.479
  20316319.865    -1171055.84049   -905428.72047  20316319.335    20316325.768
 04  7 21  2 41 30.0000000  0  7G19G31G27G13G28G10G 8
  22648703.127   -12528117.55749  -9525776.96047  22648702.239    22648706.959
  22645624.410   -16381488.41949 -11612988.86946  22645623.932    22645633.058
  20815045.599    -1711666.38449  -1330804.90948  20815045.204    20815051.650
  22922172.062     9373938.99849   7313176.64046  22922172.024    22922179.944
  21333433.797   -21711377.63049 -16895711.42647  21333433.342    21333439.097
  23456121.846     -131207.85849     11489.13745  23456120.805    23456129.743
  20312651.228    -1190334.00749   -920450.67747  20312650.854    20312656.967
 04  7 21  2 42  0.0000000  0  7G19G31G27G13G28G10G 8
  22655241.755   -12493756.88449  -9499002.41347  22655240.903    22655245.910
  22625073.734   -16489479.41449 -11697137.60546  22625073.229    22625081.574
  20818383.022    -1694127.57349  -1317138.32048  20818382.644    20818389.247
  22941881.992     9477518.14949   7393887.63446  22941882.104    22941891.060
  21323480.885   -21763680.39749 -16936466.80047  21323480.332    21323486.211
  23464664.067      -86322.51349     46464.64946  23464662.541    23464671.344
  20309038.958    -1209316.98249   -935242.62047  20309038.535    20309044.586
 04  7 21  2 42 30.0000000  0  7G19G31G27G13G28G10G 8
  22661884.176   -12458850.39549  -9471802.55647  22661883.295    22661888.609
  22604564.447   -16597255.32049 -11781118.74746  22604563.777    22604571.409
  20821770.927    -1676323.68549  -1303265.16548  20821770.618    20821777.228
  22961639.408     9581338.34449   7474786.40446  22961638.967    22961647.721
  21313593.054   -21815640.12249 -16976954.87447  21313592.667    21313598.681
  23473291.092      -40984.14349     81793.20546  23473290.349    23473299.268
  20305483.285    -1228001.88449   -949802.29047  20305482.867    20305488.863
 04  7 21  2 43  0.0000000  0  7G19G31G27G13G28G10G 8
  22668630.456   -12423398.10949  -9444177.40147  22668629.545    22668635.143
  22584096.677   -16704811.90949 -11864929.01946  22584096.126    22584103.395
  20825209.788    -1658252.94849  -1289184.07848  20825209.457    20825215.999
  22981441.652     9685398.68949   7555872.33746  22981441.577    22981450.102
  21303771.016   -21867255.17749 -17017174.38547  21303770.547    21303776.716
  23482004.619        4806.29349    117474.02646  23482004.007    23482013.257
  20301984.723    -1246386.38749   -964127.89247  20301984.448    20301990.573
 04  7 21  2 43 30.0000000  0  7G19G31G27G13G28G10G 8
  22675479.890   -12387402.66549  -9416129.01047  22675479.003    22675484.991
  22563671.369   -16812147.76149 -11948567.28946  22563670.995    22563678.003
  20828699.114    -1639916.45549  -1274895.92748  20828698.742    20828705.286
  23001289.459     9789695.24849   7637142.33146  23001289.377    23001297.322
  21294014.343   -21918527.08949 -17057126.50847  21294013.871    21294020.077
  23490804.045       51044.62649    153503.84346  23490802.866    23490812.313
  20298543.401    -1264471.40149   -978220.10947  20298543.001    20298549.172
 04  7 21  2 44  0.0000000  0  7G19G31G27G13G28G10G 8
  22682432.686   -12350864.98349  -9387658.09947  22682431.640    22682437.995
  22543288.871   -16919259.50949 -12032030.91846  22543288.536    22543295.795
  20832239.157    -1621313.11549  -1260399.84948  20832238.841    20832245.339
  23021181.766     9894226.38549   7718595.09446  23021181.726    23021189.038
  21284323.022   -21969455.45049 -17096810.90447  21284322.500    21284328.642
  23499687.520       97728.82949    189881.10446  23499686.695    23499696.080
  20295159.254    -1282255.80649   -992078.09747  20295158.844    20295165.216
 04  7 21  2 44 30.0000000  0  7G19G31G27G13G28G10G 8
  22689488.560   -12313785.45649  -9358764.98147  22689487.435    22689494.065
  22522949.893   -17026143.20749 -12115316.85646  22522949.486    22522956.957
  20835830.181    -1602441.65449  -1245694.82148  20835829.955    20835836.484
  23041117.821     9998990.25149   7800229.20246  23041117.906    23041124.818
  21274697.135   -22020039.15349 -17136226.74847  21274696.684    21274702.776
  23508655.676      144857.39549    226604.63646  23508655.077    23508664.247
  20291832.512    -1299738.02549  -1005700.60647  20291832.097    20291838.590
 04  7 21  2 45  0.0000000  0  7G19G31G27G13G28G10G 8
  22696647.250   -12276165.35549  -9329450.65147  22696646.229    22696652.953
  22502655.042   -17132795.91749 -12198422.79046  22502654.207    22502662.078
  20839472.414    -1583301.52049  -1230780.42748  20839472.154    20839478.771
  23061097.602    10103984.62249   7882042.89146  23061097.704    23061103.987
  21265136.805   -22070278.16749 -17175374.02247  21265136.373    21265142.647
  23517707.699      192427.87349    263672.50646  23517707.101    23517716.465
  20288563.511    -1316917.37849  -1019087.11347  20288562.940    20288569.657
 04  7 21  2 45 30.0000000  0  7G19G31G27G13G28G10G 8
  22703908.703   -12238005.87949  -9299716.03147  22703907.851    22703914.356
  22482403.736   -17239214.30049 -12281346.14846  22482403.137    22482411.736
  20843166.011    -1563891.74149  -1215655.92148  20843165.687    20843172.364
  23081120.941    10209207.50449   7964034.65346  23081120.923    23081126.974
  21255642.111   -22120172.32649 -17214252.55647  21255641.736    21255648.072
  23526843.243      240438.00849    301082.97045  23526842.846    23526852.435
  20285352.123    -1333792.65649  -1032236.67047  20285351.643    20285358.450
 04  7 21  2 46  0.0000000  0  7G19G31G27G13G28G10G 8
  22711272.820   -12199308.75649  -9269562.46847  22711271.923    22711278.027
  22462197.611   -17345396.02149 -12364085.10846  22462197.115    22462206.218
  20846910.804    -1544212.74849  -1200321.64448  20846910.454    20846917.216
  23101186.668    10314656.19249   8046202.41246  23101186.851    23101193.144
  21246213.026   -22169722.12449 -17252862.77047  21246212.623    21246218.999
  23536062.523      288884.36649    338833.33546  23536061.963    23536071.492
  20282198.864    -1350363.83049  -1045149.26447  20282198.237    20282205.130
 04  7 21  2 46 30.0000000  0  7G19G31G27G13G28G10G 8
  22718738.504   -12160077.20749  -9238992.45347  22718737.595    22718743.315
  22442037.140   -17451339.78949 -12446638.63146  22442036.670    22442045.896
  20850706.662    -1524265.50649  -1184778.33548  20850706.386    20850713.144
  23121295.339    10420326.34449   8128542.68446  23121295.430    23121300.747
  21236849.071   -22218929.23749 -17291205.95447  21236848.686    21236855.144
  23545364.126      337762.76049    376920.33046  23545363.504    23545372.640
  20279102.864    -1366632.39249  -1057826.05547  20279102.320    20279109.441
 04  7 21  2 47  0.0000000  0  7G19G31G27G13G28G10G 8
  22726305.848   -12120311.12949  -9208005.89347  22726304.956    22726310.280
  22421923.254   -17557040.98349 -12529003.11046  22421922.666    22421931.553
  20854554.103    -1504047.84249  -1169024.30148  20854553.733    20854560.527
  23141446.062    10526217.43049   8211055.12546  23141445.950    23141450.445
  21227550.643   -22267791.82649 -17329280.67547  21227550.343    21227556.758
  23554747.378      387072.44749    415343.40946  23554747.177    23554755.802
  20276065.047    -1382595.46249  -1070264.79347  20276064.573    20276071.836
 04  7 21  2 47 30.0000000  0  7G19G31G27G13G28G10G 8
  22733974.727   -12080010.77749  -9176602.99847  22733973.897    22733979.014
  22401855.671   -17662495.69449 -12611175.56546  22401855.228    22401864.138
  20858453.075    -1483558.25549  -1153058.39148  20858452.724    20858459.454
  23161638.290    10632328.00349   8293738.59646  23161638.261    23161642.993
  21218318.268   -22316309.24649 -17367086.40247  21218317.914    21218324.072
  23564212.767      436811.60649    454101.11345  23564212.455    23564220.538
  20273085.686    -1398251.93749  -1082464.62747  20273085.195    20273092.445
 04  7 21  2 48  0.0000000  0  7G19G31G27G13G28G10G 8
  22741744.980   -12039178.54549  -9144785.67147  22741744.028    22741749.124
  22381835.620   -17767701.84349 -12693154.31147  22381835.237    22381844.081
  20862403.887    -1462797.21949  -1136880.95348  20862403.558    20862409.962
  23181871.768    10738654.50149   8376590.33546  23181871.634    23181876.703
  21209151.225   -22364482.29049 -17404623.80047  21209150.880    21209156.898
  23573759.244      486976.63849    493190.68745  23573758.447    23573766.370
  20270164.597    -1413601.77049  -1094425.53147  20270164.247    20270171.348
 04  7 21  2 48 30.0000000  0  7G19G31G27G13G28G10G 8
  22749616.188   -11997814.69549  -9112554.13347  22749615.259    22749620.596
  22361863.878   -17872655.19649 -12774936.06346  22361863.434    22361871.811
  20866406.757    -1441763.07949  -1120490.72748  20866406.298    20866412.590
  23202145.985    10845196.00349   8459609.59346  23202146.058    23202151.495
  21200050.061   -22412309.56049 -17441891.77047  21200049.671    21200055.631
  23583386.396      537566.41449    532611.24945  23583385.302    23583393.247
  20267302.717    -1428642.58649  -1106145.63147  20267302.169    20267309.030
 04  7 21  2 49  0.0000000  0  7G19G31G27G13G28G10G 8
  22757588.341   -11955920.32649  -9079909.21747  22757587.410    22757593.021
  22341940.693   -17977352.52049 -12856518.31046  22341940.257    22341948.067
  20870461.560    -1420454.89349  -1103886.97348  20870461.220    20870467.522
  23222460.803    10951950.84149   8542795.10946  23222460.707    23222466.977
  21191014.736   -22459790.94749 -17478890.23047  21191014.216    21191020.301
  23593093.564      588578.44649    572360.84445  23593092.402    23593100.701
  20264499.348    -1443373.69549  -1117624.40747  20264498.949    20264505.655
 04  7 21  2 49 30.0000000  0  7G19G31G27G13G28G10G 8
  22765661.487   -11913495.95649  -9046851.31347  22765660.461    22765666.335
  22322066.951   -18081789.69149 -12937897.85746  22322066.565    22322073.969
  20874569.042    -1398871.01749  -1087068.37648  20874568.617    20874574.804
  23242814.293    11058917.07349   8626145.38645  23242814.666    23242822.606
  21182045.468   -22506925.27049 -17515618.25347  21182044.945    21182050.961
  23602880.477      640011.39049    612438.44146  23602879.776    23602888.180
  20261755.462    -1457793.44749  -1128860.56847  20261754.969    20261761.551
 04  7 21  2 50  0.0000000  0  7G19G31G27G13G28G10G 8
  22773835.072   -11870543.68649  -9013382.04447  22773834.023    22773840.005
  22302243.565   -18185964.40149 -13019072.88746  22302242.868    22302249.999
  20878728.570    -1377011.72849  -1070035.17448  20878728.158    20878734.361
  23263208.072    11166091.87349   8709658.18745  23263208.597    23263217.888
  21173142.134   -22553713.38249 -17552076.49447  21173141.519    21173147.512
  23612747.674      691861.91049    652841.39446  23612746.875    23612755.258
  20259070.826    -1471901.73549  -1139854.03747  20259070.337    20259076.788
 04  7 21  2 50 30.0000000  0  7G19G31G27G13G28G10G 8
  22782108.502   -11827067.72049  -8979504.66647  22782107.375    22782113.379
  22282469.542   -18289876.33149 -13100043.19246  22282468.998    22282476.015
  20882939.949    -1354879.21349  -1052789.06848  20882939.662    20882945.978
  23283641.305    11273470.09949   8793329.49745  23283641.769    23283651.336
  21164304.004   -22600157.86649 -17588266.99547  21164303.398    21164309.408
  23622693.419      744124.56949    693565.51446  23622692.410    23622700.748
  20256445.176    -1485700.44949  -1150606.27547  20256444.565    20256450.880
 04  7 21  2 51  0.0000000  0  7G19G31G27G13G28G10G 8
  22790481.445   -11783068.14249  -8945219.29046  22790480.299    22790486.166
  22262746.805   -18393521.19049 -13180805.34746  22262746.162    22262752.863
  20887203.916    -1332471.61249  -1035328.60148  20887203.570    20887209.993
  23304114.087    11381050.98049   8877158.65345  23304114.376    23304122.570
  21155531.604   -22646257.27949 -17624188.60147  21155531.050    21155536.916
  23632716.756      796798.08549    734609.75646  23632715.891    23632724.301
  20253878.761    -1499187.73649  -1161115.85047  20253878.102    20253884.402
 04  7 21  2 51 30.0000000  0  8G 7G19G31G27G13G28G10G 8
  24443145.309    -5533430.81249  -4295938.60345  24443142.705    24443157.015
  22798952.492   -11738552.82349  -8910532.02946  22798951.265    22798957.077
  22243074.035   -18496902.06149 -13261361.81446  22243073.221    22243080.072
  20891519.250    -1309794.30449  -1017657.96848  20891518.863    20891525.387
  23324623.871    11488826.18449   8961139.22946  23324624.057    23324630.915
  21146823.685   -22692018.05049 -17659846.32547  21146823.149    21146828.959
  23642816.911      849873.63249    775967.27946  23642815.889    23642824.227
  20251370.637    -1512368.57949  -1171386.63447  20251369.938    20251376.123
 04  7 21  2 52  0.0000000  0  8G 7G19G31G27G13G28G10G 8
  24423022.918    -5639168.00048  -4378331.05444  24423020.487    24423033.836
  22807522.732   -11693514.15449  -8875436.99246  22807521.672    22807527.484
  22223453.599   -18600006.96149 -13341703.23946  22223453.113    22223459.766
  20895887.628    -1286837.91949   -999769.87548  20895887.249    20895893.858
  23345171.819    11596802.17349   9045276.25746  23345171.992    23345177.980
  21138181.955   -22737431.23149 -17695233.21948  21138181.421    21138187.113
  23652994.640      903357.68349    817643.13246  23652993.583    23653001.789
  20248922.605    -1525233.47049  -1181411.23347  20248921.883    20248928.139
 04  7 21  2 52 30.0000000  0  8G 7G19G31G27G13G28G10G 8
  24402904.330    -5744881.88049  -4460705.40044  24402902.634    24402914.334
  22816192.930   -11647951.33649  -8839933.52746  22816191.919    22816197.401
  22203886.896   -18702830.23449 -13421825.20946  22203886.390    22203892.975
  20900309.776    -1263599.29549   -981661.85748  20900309.387    20900316.074
  23365757.961    11704979.06549   9129569.84846  23365758.121    23365762.990
  21129606.848   -22782494.05349 -17730347.09448  21129606.318    21129611.834
  23663249.807      957250.01749    859637.12246  23663248.974    23663257.213
  20246535.156    -1537779.32449  -1191187.21647  20246534.516    20246540.718
 04  7 21  2 53  0.0000000  0  8G 7G19G31G27G13G28G10G 8
  24382790.444    -5850573.94049  -4543062.71444  24382789.167    24382799.099
  22824962.366   -11601869.54349  -8804025.66646  22824961.277    22824966.166
  22184373.791   -18805372.79549 -13501728.43546  22184373.247    22184379.637
  20904785.135    -1240081.77049   -963336.52448  20904784.679    20904791.359
  23386380.763    11813350.64849   9214015.14846  23386380.964    23386384.822
  21121097.655   -22827210.55549 -17765191.10748  21121097.129    21121102.460
  23673582.121     1011543.89549    901943.99946  23673580.791    23673589.066
  20244207.823    -1550008.79649  -1200716.68847  20244207.277    20244213.574
 04  7 21  2 53 30.0000000  0  8G 7G19G31G27G13G28G10G 8
  24362682.951    -5956243.37649  -4625402.36344  24362681.355    24362688.986
  22833830.131   -11555271.96249  -8767715.87046  22833828.888    22833833.128
  22164914.765   -18907633.21449 -13581411.81146  22164913.811    22164919.996
  20909313.341    -1216286.40649   -944794.68548  20909312.904    20909319.443
  23407039.746    11921912.92549   9298609.03646  23407039.973    23407043.488
  21112654.104   -22871582.20949 -17799766.38847  21112653.514    21112658.646
  23683989.617     1066235.28249    944560.64446  23683988.306    23683996.597
  20241940.723    -1561922.64449  -1210000.20747  20241940.187    20241946.392
 04  7 21  2 54  0.0000000  0  8G 7G19G31G27G13G28G10G 8
  24342580.440    -6061886.54949  -4707721.51344  24342578.772    24342585.774
  22842795.488   -11508158.81349  -8731004.33947  22842794.392    22842798.320
  22145509.049   -19009606.89649 -13660871.80446  22145508.235    22145515.062
  20913894.726    -1192210.97549   -926034.61848  20913894.352    20913900.782
  23427734.955    12030665.23249   9383351.00646  23427735.016    23427739.004
  21104276.301   -22915607.62349 -17834071.87747  21104275.734    21104280.683
  23694471.963     1121323.07549    987486.17346  23694471.179    23694479.432
  20239733.973    -1573519.12849  -1219036.43847  20239733.484    20239739.588
 04  7 21  2 54 30.0000000  0  8G 7G19G31G27G13G28G10G 8
  24322482.951    -6167500.28949  -4790017.78545  24322481.874    24322490.609
  22851858.416   -11460531.02449  -8693891.78446  22851857.449    22851861.711
  22126158.904   -19111290.15749 -13740105.45746  22126158.270    22126165.530
  20918529.634    -1167854.38949   -907055.48448  20918529.353    20918535.627
  23448465.715    12139605.92049   9468239.77946  23448465.675    23448470.309
  21095964.418   -22959286.07049 -17868107.02247  21095963.898    21095968.778
  23705030.164     1176805.17249   1030718.92246  23705029.160    23705037.379
  20237587.942    -1584796.64749  -1227824.13247  20237587.480    20237593.533
 04  7 21  2 55  0.0000000  0  8G 7G19G31G27G13G28G10G 8
  24302391.929    -6273082.80749  -4872289.80345  24302390.774    24302400.508
  22861018.984   -11412390.70149  -8656379.83246  22861018.066    22861022.862
  22106864.848   -19212680.67149 -13819110.98647  22106864.207    22106871.594
  20923218.314    -1143216.72349   -887857.30148  20923217.937    20923224.091
  23469231.061    12248731.89249   9553272.95745  23469230.883    23469236.427
  21087718.489   -23002618.36449 -17901872.42247  21087717.967    21087722.849
  23715662.650     1232678.11049   1074256.21746  23715661.698    23715669.857
  20235502.792    -1595755.00149  -1236363.11447  20235502.233    20235508.195
 04  7 21  2 55 30.0000000  0  8G 7G19G31G27G13G28G10G 8
  24282306.996    -6378631.79249  -4954535.69545  24282305.739    24282315.962
  22870277.139   -11363739.46249  -8618469.77246  22870276.167    22870281.207
  22087626.909   -19313775.30449 -13897885.94247  22087626.415    22087634.052
  20927960.344    -1118297.31049   -868439.57848  20927959.895    20927966.301
  23490030.325    12358040.92849   9638448.80145  23490030.502    23490037.454
  21079538.389   -23045604.62749 -17935368.19448  21079537.870    21079542.788
  23726368.812     1288939.30049   1118096.06546  23726368.186    23726376.230
  20233478.369    -1606393.29249  -1244652.69947  20233477.815    20233483.750
 04  7 21  2 56  0.0000000  0  8G 7G19G31G27G13G28G10G 8
  24262228.606    -6484146.00249  -5036754.43045  24262227.398    24262237.947
  22879632.257   -11314580.12749  -8580163.80446  22879631.141    22879636.055
  22068445.556   -19414571.98949 -13976428.75347  22068445.303    22068453.464
  20932755.643    -1093096.68649   -848802.73448  20932755.305    20932761.982
  23510864.732    12467529.95449   9723764.90145  23510864.788    23510873.308
  21071424.072   -23088245.53949 -17968594.85748  21071423.547    21071428.453
  23737148.327     1345585.30749   1162235.75546  23737147.614    23737155.749
  20231514.907    -1616711.53149  -1252692.89647  20231514.344    20231520.195
 04  7 21  2 56 30.0000000  0  8G 7G19G31G27G13G28G10G 8
  24242157.096    -6589622.21849  -5118943.57645  24242156.155    24242167.132
  22889083.452   -11264913.75449  -8541462.77447  22889082.338    22889087.101
  22049322.201   -19515067.00849 -14054736.49847  22049321.972    22049330.338
  20937604.888    -1067613.53949   -828945.74148  20937604.548    20937611.324
  23531733.113    12577196.80049   9809219.57645  23531733.250    23531742.656
  21063375.612   -23130540.91549 -18001552.27348  21063375.019    21063379.853
  23748000.350     1402613.77349   1206673.50145  23747999.394    23748007.681
  20229612.658    -1626708.54549  -1260482.77147  20229612.011    20229617.782
 04  7 21  2 57  0.0000000  0  8G 7G19G31G27G13G28G10G 8
  24222093.029    -6695056.40149  -5201100.03145  24222092.605    24222104.494
  22898630.950   -11214739.91249  -8502366.30147  22898630.009    22898634.685
  22030257.225   -19615255.65549 -14132805.51847  22030256.930    22030265.120
  20942508.327    -1041845.53049   -808866.78248  20942507.974    20942514.853
  23552636.435    12687041.18749   9894812.52545  23552636.637    23552645.277
  21055393.138   -23172488.85649 -18034238.96548  21055392.585    21055397.496
  23758924.499     1460023.59949   1251408.41145  23758923.859    23758932.064
  20227771.933    -1636381.59149  -1268020.20747  20227771.216    20227777.014
 04  7 21  2 57 30.0000000  0  8G 7G19G31G27G13G28G10G 8
  24202037.836    -6800447.40449  -5283222.78745  24202037.169    24202049.885
  22908274.438   -11164061.74749  -8462876.85047  22908273.651    22908278.389
  22011250.822   -19715136.12049 -14210634.36247  22011250.418    22011258.435
  20947465.799    -1015793.36449   -788566.40348  20947465.432    20947472.434
  23573573.121    12797059.49649   9980540.96845  23573573.005    23573580.713
  21047476.579   -23214090.59449 -18066655.88648  21047475.996    21047480.901
  23769921.290     1517810.79549   1296437.33045  23769920.785    23769928.433
  20225992.435    -1645731.40249  -1275305.76348  20225991.868    20225997.828
 04  7 21  2 58  0.0000000  0  8G 7G19G31G27G13G28G10G 8
  24181990.502    -6905795.11049  -5365311.80745  24181989.967    24182003.181
  22918013.803   -11112883.23949  -8422997.49947  22918012.899    22918017.491
  21992303.048   -19814707.44949 -14288222.34647  21992302.596    21992310.680
  20952476.999     -989458.69449   -768045.89148  20952476.692    20952483.740
  23594541.154    12907247.13749  10066401.41745  23594541.338    23594548.976
  21039625.411   -23255348.46349 -18098804.85848  21039624.851    21039629.755
  23780989.032     1575970.51549   1341756.53345  23780987.986    23780995.802
  20224274.362    -1654758.68349  -1282340.00048  20224273.867    20224280.060
 04  7 21  2 58 30.0000000  0  8G 7G19G31G27G13G28G10G 8
  24161952.352    -7011095.66549  -5447364.08345  24161951.769    24161964.874
  22927848.277   -11061204.47549  -8382728.34147  22927847.212    22927851.875
  21973414.757   -19913965.30649 -14365566.07647  21973414.362    21973422.527
  20957542.507     -962839.54349   -747303.69448  20957542.175    20957549.156
  23615541.671    13017603.34549  10152393.18245  23615541.720    23615549.172
  21031839.803   -23296261.21449 -18130684.90648  21031839.341    21031844.398
  23792126.969     1634501.53649   1387365.10445  23792125.675    23792133.980
  20222618.096    -1663462.14649  -1289121.91348  20222617.593    20222623.898
 04  7 21  2 59  0.0000000  0  8G 7G19G31G27G13G28G10G 8
  24141923.640    -7116345.89849  -5529377.11945  24141923.234    24141935.701
  22937777.041   -11009026.48649  -8342070.18846  22937776.049    22937781.136
  21954586.925   -20012905.83649 -14442662.52947  21954586.476    21954594.493
  20962662.424     -935934.39849   -726338.66848  20962662.061    20962669.119
                  13128126.76149  10238515.20945                  23636580.588
  21024120.102   -23336828.01649 -18162295.38448  21024119.685    21024124.777
  23803335.441     1693402.14149   1433261.61745  23803333.945    23803342.618
  20221023.957    -1671839.43649  -1295649.66648  20221023.437    20221029.777
 04  7 21  2 59 30.0000000  0  8G 7G19G31G27G13G28G10G 8
  24121905.813    -7221542.72549  -5611348.54345  24121905.232    24121916.432
  22947800.421   -10956350.19549  -8301023.75446  22947799.510    22947805.125
  21935820.310   -20111525.24749 -14519508.75346  21935819.579    21935827.564
  20967836.830     -908742.08349   -705149.86548  20967836.509    20967843.603
                  13238815.51549  10324766.05645                  23657642.710
  21016466.479   -23377048.26849 -18193635.82148  21016465.954    21016471.244
  23814613.871     1752670.15849   1479444.43845  23814612.547    23814621.196
  20219492.124    -1679889.42049  -1301922.37648  20219491.577    20219497.932
 04  7 21  3  0  0.0000000  0  8G 7G19G31G27G13G28G10G 8
  24101898.415    -7326684.25149  -5693276.83845  24101897.732    24101907.173
  22957918.417   -10903177.93149  -8259590.86846  22957917.734    22957923.269
  21917114.421   -20209821.06949 -14596102.89846  21917113.849    21917122.199
  20973065.850     -881262.59549   -683737.29248  20973065.639    20973072.684
  23678732.186    13349666.64749  10411143.43445  23678732.005    23678736.562
  21008878.441   -23416922.72649 -18224706.81348  21008878.026    21008883.524
  23825960.829     1812302.01849   1525910.78245  23825960.081    23825969.017
  20218022.725    -1687611.84049  -1307939.84048  20218022.134    20218028.458
 04  7 21  3  0 30.0000000  0  8G 7G19G31G27G13G28G10G 8
  24081901.548    -7431769.42749  -5775161.23545  24081900.997    24081908.612
  22968130.790   -10849513.10849  -8217774.14646  22968129.924    22968135.060
  21898470.713   -20307791.68849 -14672443.57946  21898470.365    21898478.429
  20978349.489     -853496.76249   -662101.58548  20978349.291    20978356.339
  23699857.288    13460676.52749  10497644.53246  23699856.980    23699861.660
  21001356.117   -23456452.67349 -18255509.35448  21001355.694    21001361.316
  23837376.721     1872293.75949   1572657.55745  23837375.938    23837385.197
  20216615.415    -1695006.82049  -1313702.16648  20216614.859    20216621.293
 04  7 21  3  1  0.0000000  0  8G 7G19G31G27G13G28G10G 8
  24061915.762    -7536795.03249  -5856999.20845  24061915.214    24061922.334
  22978436.478   -10795356.45749  -8175574.18446  22978435.540    22978440.574
  21879890.411   -20405433.42749 -14748527.99746  21879889.798    21879897.468
  20983688.033     -825443.18649   -640241.66548  20983687.825    20983694.789
  23721011.731    13571843.66449  10584268.20646  23721011.585    23721016.820
  20993899.451   -23495637.80749 -18286043.20148  20993898.986    20993904.722
  23848860.462     1932643.05549   1619682.94245  23848859.708    23848869.223
  20215270.785    -1702072.99249  -1319208.26848  20215270.230    20215276.729
 04  7 21  3  1 30.0000000  0  8G 7G19G31G27G13G28G10G 8
  24041941.780    -7641757.67049  -5938788.14845  24041941.081    24041948.849
  22988835.354   -10740708.66749  -8132991.51846  22988834.372    22988840.064
  21861373.195   -20502741.89249 -14824352.72746  21861372.666    21861380.147
  20989081.707     -797100.07249   -618156.12848  20989081.431    20989088.302
  23742196.272    13683166.89249  10671013.46646  23742196.268    23742201.612
  20986508.669   -23534476.60049 -18316307.17748  20986508.183    20986514.062
  23860411.908     1993348.48449   1666985.85145  23860411.471    23860421.209
  20213988.875    -1708808.84749  -1324456.98948  20213988.397    20213994.980
 04  7 21  3  2  0.0000000  0  8G 7G19G31G27G13G28G10G 8
  24021979.926    -7746656.28249  -6020527.18145  24021978.934    24021988.269
  22999326.984   -10685572.99149  -8090028.68446  22999326.098    22999332.527
  21842919.898   -20599715.62849 -14899916.59147  21842919.371    21842926.734
  20994530.244     -768468.51049   -595845.83147  20994529.959    20994536.686
  23763409.941    13794642.51749  10757877.47946  23763409.903    23763415.413
  20979183.340   -23572970.87949 -18346302.69248  20979182.954    20979188.941
  23872031.389     2054406.01849   1714563.10945  23872030.257    23872040.187
  20212769.992    -1715214.37849  -1329448.30548  20212769.461    20212776.171
 04  7 21  3  2 30.0000000  0  8G 7G19G31G27G13G28G10G 8
  24002028.745    -7851487.49149  -6102213.82145  24002028.853    24002040.711
  23009911.606   -10629950.44049  -8046686.44246  23009910.700    23009917.270
  21824531.089   -20696350.64849 -14975216.55447  21824530.492    21824537.941
  21000034.041     -739546.97549   -573309.57748  21000033.759    21000040.297
  23784651.425    13906268.71649  10844858.88046  23784651.448    23784657.901
  20971923.907   -23611119.80949 -18376029.11148  20971923.440    20971929.495
  23883716.450     2115813.54249   1762413.11445  23883715.738    23883725.944
  20211613.892    -1721288.51249  -1334181.39348  20211613.511    20211620.268
 04  7 21  3  3  0.0000000  0  8G 7G19G31G27G13G28G10G 8
  23982092.698    -7956248.18349  -6183845.43345  23982092.855    23982106.019
  23020588.792   -10573841.89649  -8002965.50646  23020587.878    23020594.145
  21806207.311   -20792643.02549 -15050249.52047  21806206.787    21806214.066
  21005593.359     -710333.96149   -550546.19648  21005592.961    21005599.416
  23805921.774    14018044.47949  10931956.75746  23805921.823    23805928.456
  20964730.247   -23648922.46849 -18405485.70548  20964729.800    20964735.935
  23895467.983     2177568.97749   1810534.21046  23895467.621    23895477.688
  20210521.470    -1727029.24749  -1338654.68948  20210521.077    20210527.927
 04  7 21  3  3 30.0000000  0  8G 7G19G31G27G13G28G10G 8
  23962170.377    -8060939.29349  -6265422.81345  23962169.976    23962184.111
  23031357.389   -10517252.75949  -7958870.10346  23031356.463    23031362.558
  21787948.619   -20888593.29449 -15125015.87447  21787948.157    21787955.242
  21011207.248     -680832.35049   -527557.94748  21011207.014    21011213.454
  23827218.745    14129963.60849  11019166.42045  23827218.415    23827226.320
  20957601.631   -23686382.82949 -18434675.57448  20957601.205    20957607.486
  23907285.480     2239666.17149   1858921.56346  23907284.660    23907294.396
  20209491.924    -1732439.21049  -1342870.23648  20209491.540    20209498.399
 04  7 21  3  4  0.0000000  0  8G 7G19G31G27G13G28G10G 8
  23942261.231    -8165556.01449  -6346942.28545  23942261.468    23942276.587
  23042217.500   -10460182.45249  -7914399.75746  23042216.625    23042222.811
  21769756.253   -20984196.08049 -15199511.48347  21769755.732    21769763.011
  21016876.916     -651039.32749   -504342.60848  21016876.599    21016882.991
  23848541.107    14242026.39249  11106488.09345  23848541.481    23848551.640
  20950538.682   -23723498.34249 -18463596.73548  20950538.314    20950544.618
  23919167.227     2302104.55949   1907574.81346  23919166.456    23919176.106
  20208525.994    -1737514.72849  -1346825.18848  20208525.669    20208532.572
 04  7 21  3  4 30.0000000  0  8G 7G19G31G27G13G28G10G 8
  23922368.306    -8270094.75649  -6428400.97545  23922368.090    23922384.161
  23053169.086   -10402631.44149  -7869554.82446  23053168.224    23053174.503
  21751630.691   -21079447.16849 -15273733.04047  21751630.140    21751637.623
  21022602.178     -620953.14049   -480898.83948  21022601.776    21022608.321
  23869892.101    14354231.78549  11193920.80745  23869892.548    23869903.809
  20943541.493   -23760268.32149 -18492248.65148  20943541.128    20943547.487
  23931113.145     2364882.48349   1956492.66346  23931112.835    23931122.448
  20207624.254    -1742254.24149  -1350518.31548  20207623.803    20207630.695
 04  7 21  3  5  0.0000000  0  8G 7G19G31G27G13G28G10G 8
  23902489.885    -8374556.31949  -6509799.50345  23902489.909    23902505.958
  23064211.174   -10344605.03749  -7824339.44746  23064210.359    23064216.656
  21733571.873   -21174346.69449 -15347680.64247  21733571.163    21733578.838
  21028382.443     -590576.29549   -457228.58448  21028382.094    21028388.938
  23891270.965    14466574.21449  11281460.28445  23891271.005    23891281.706
  20936609.769   -23796695.77549 -18520633.67248  20936609.237    20936615.611
  23943123.930     2427994.12749   2005670.48246  23943123.040    23943132.317
  20206785.856    -1746660.26349  -1353951.57948  20206785.413    20206792.239
 04  7 21  3  5 30.0000000  0  8G 7G19G31G27G13G28G10G 8
  23882626.944    -8478940.00949  -6591137.32545  23882626.971    23882641.986
  23075343.323   -10286106.72149  -7778756.36746  23075342.483    23075348.409
  21715579.811   -21268893.44349 -15421353.37547  21715579.257    21715587.056
  21034217.827     -559910.04749   -433332.81248  21034217.564    21034224.552
  23912675.657    14579049.82949  11369103.55245  23912675.267    23912685.005
  20929742.566   -23832782.55749 -18548753.24548  20929742.121    20929748.462
  23955197.141     2491434.76149   2055104.65846  23955195.852    23955204.715
  20206010.883    -1750733.71549  -1357125.69948  20206010.340    20206017.145
 04  7 21  3  6  0.0000000  0  8G 7G19G31G27G13G28G10G 8
  23862779.669    -8583240.60749  -6672410.43645  23862779.680    23862793.645
  23086565.345   -10227135.90549  -7732805.11346  23086564.434    23086569.998
  21697656.325   -21363081.71449 -15494746.75447  21697655.766    21697663.472
  21040109.146     -528951.03249   -409208.90348  21040108.866    21040115.927
  23934105.610    14691658.73449  11456850.63645  23934105.170    23934113.724
  20922940.806   -23868526.32649 -18576605.53448  20922940.360    20922946.575
  23967331.727     2555204.10349   2104795.01645  23967330.803    23967339.500
  20205299.739    -1754470.76149  -1360037.69548  20205299.272    20205305.971
 04  7 21  3  6 30.0000000  0  8G 7G19G31G27G13G28G10G 8
  23842949.277    -8687454.06349  -6753615.63245  23842949.378    23842961.817
  23097877.159   -10167692.83349  -7686485.87246  23097876.213    23097881.654
  21679801.519   -21456906.83249 -15567857.22047  21679801.027    21679809.100
  21046056.444     -497697.37249   -384855.39948  21046056.119    21046063.382
  23955560.716    14804400.40149  11544701.19345  23955560.219    23955567.981
  20916204.581   -23903925.72749 -18604189.46648  20916204.113    20916210.241
  23979528.479     2619301.07849   2154740.67145  23979527.838    23979536.786
  20204653.327    -1757869.20949  -1362685.82848  20204652.680    20204659.211
 04  7 21  3  7  0.0000000  0  9G 7G19G31G27G13G28G10G 8G29
  23823136.008    -8791579.45749  -6834752.18045  23823135.396    23823146.692
  23109278.076   -10107780.83549  -7639801.21846  23109277.080    23109282.775
  21662016.616   -21550367.48749 -15640683.63347  21662016.019    21662024.023
  21052059.493     -466149.74949   -360272.84047  21052059.243    21052066.729
  23977039.563    14917270.71249  11632652.04945  23977039.211    23977047.059
  20909533.509   -23938982.21049 -18631506.18448  20909533.131    20909539.063
  23991787.465     2683721.24249   2204938.12245  23991786.621    23991795.214
  20204070.930    -1760929.44349  -1365070.43248  20204070.363    20204076.822
                  -1433623.65849  -1096262.60143
 04  7 21  3  7 30.0000000  0  8G 7G19G31G27G13G28G10G 8
  23803339.267    -8895613.25149  -6915817.40745  23803338.820    23803348.666
  23120767.749   -10047400.79349  -7592751.85146  23120766.906    23120773.118
  21644301.495   -21643459.36349 -15713222.72747  21644300.962    21644308.660
  21058119.005     -434306.48149   -335459.91947  21058118.728    21058126.263
  23998542.611    15030268.81849  11720702.42645  23998542.315    23998550.024
  20902928.091   -23973694.80849 -18658554.93548  20902927.604    20902933.349
  24004107.590     2748463.03749   2255386.22345  24004106.712    24004114.828
  20203553.480    -1763649.33549  -1367189.82548  20203552.881    20203559.241
 04  7 21  3  8  0.0000000  0  9G 7G19G31G27G13G28G10G 8G29
  23783560.717    -8999553.31149  -6996809.53545  23783560.214    23783568.701
  23132346.346    -9986554.81149  -7545339.41546  23132345.580    23132351.960
  21626657.496   -21736179.97449 -15785472.50247  21626656.967    21626664.202
  21064235.045     -402167.42849   -310416.52847  21064234.673    21064242.038
  24020068.808    15143391.83849  11808850.12545  24020068.533    24020075.657
  20896387.746   -24008064.11549 -18685336.21647  20896387.362    20896392.984
  24016488.573     2813523.36249   2306082.50045  24016487.312    24016495.324
  20203100.566    -1766029.28549  -1369044.33548  20203099.995    20203106.288
                  -1587521.85349  -1216183.24044                  22699892.458
 04  7 21  3  8 30.0000000  0  9G 7G19G31G27G13G28G10G 8G29
  23763799.421    -9103397.20949  -7077726.79445  23763799.264    23763807.314
  23144013.353    -9925245.43749  -7497565.89346  23144012.553    23144018.764
  21609084.621   -21828526.42849 -15857430.73347  21609083.913    21609091.078
  21070407.482     -369732.34949   -285142.44847  21070407.040    21070414.141
  24041617.779    15256637.08449  11897093.11245  24041617.865    24041625.124
  20889912.945   -24042090.64449 -18711850.37147  20889912.395    20889917.928
  24028929.519     2878898.72349   2357024.28145  24028927.959    24028936.165
  20202712.720    -1768067.89549  -1370632.85448  20202712.123    20202718.294
  22685346.830    -1663941.99149  -1275731.37245  22685345.032    22685348.033
 04  7 21  3  9  0.0000000  0  9G 7G19G31G27G13G28G10G 8G29
  23744057.069    -9207145.41249  -7158569.41645  23744056.862    23744063.896
  23155767.847    -9863476.79849  -7449434.50646  23155766.866    23155772.842
  21591582.980   -21920498.42149 -15929097.15247  21591582.468    21591589.145
  21076635.702     -337003.05949   -259639.11947  21076635.229    21076642.212
  24063190.173    15370000.17549  11985427.86645  24063189.991    24063197.467
  20883502.643   -24075776.89549 -18738099.38647  20883502.082    20883507.660
  24041428.692     2944583.70449   2408207.37045  24041427.506    24041435.968
  20202389.172    -1769767.36449  -1371957.12148  20202388.638    20202394.851
  22670871.856    -1740008.68249  -1335004.12745  22670867.975    22670873.284
 04  7 21  3  9 30.0000000  0  9G 7G19G31G27G13G28G10G 8G29
  23724333.876    -9310793.95649  -7239334.38045  23724332.778    23724339.279
  23167609.148    -9801249.75349  -7400945.93046  23167608.218    23167614.008
  21574153.729   -22012091.64949 -16000468.46847  21574152.915    21574159.604
  21082920.174     -303977.86749   -233905.21647  21082919.768    21082926.646
  24084784.248    15483479.81349  12073853.45845  24084784.142    24084790.560
  20877157.202   -24109122.03049 -18764082.58847  20877156.715    20877162.300
  24053986.529     3010576.73649   2459630.46545  24053985.612    24053994.313
  20202130.695    -1771125.42449  -1373015.34048  20202130.196    20202136.315
  22656463.152    -1815718.31249  -1393998.58545  22656459.610    22656466.883
 04  7 21  3 10  0.0000000  0  9G 7G19G31G27G13G28G10G 8G29
  23704628.908    -9414338.66449  -7320018.48245  23704628.418    23704634.902
  23179537.828    -9738564.56049  -7352100.34246  23179536.871    23179542.616
  21556796.854   -22103301.42049 -16071541.00647  21556796.180    21556803.265
  21089261.480     -270654.50249   -207938.97647  21089261.088    21089267.764
  24106400.583    15597075.49849  12162369.43345  24106400.835    24106405.774
  20870877.097   -24142124.32349 -18789798.64447  20870876.533    20870882.157
  24066603.306     3076876.82749   2511292.79045  24066602.039    24066610.722
  20201937.812    -1772139.17449  -1373805.27048  20201937.260    20201943.340
  22642125.017    -1891066.56249  -1452711.51645  22642121.495    22642128.643
 04  7 21  3 10 30.0000000  0  9G 7G19G31G27G13G28G10G 8G29
  23684944.578    -9517777.33749  -7400619.94845  23684943.947    23684951.266
  23191553.062    -9675423.52149  -7302899.56546  23191552.153    23191558.241
  21539513.829   -22194125.06249 -16142312.62247  21539513.065    21539520.279
  21095659.569     -237032.68049   -181740.16347  21095659.179    21095665.633
  24128039.561    15710784.90549  12250974.03445  24128039.644    24128042.949
  20864661.948   -24174784.23349 -18815247.92547  20864661.436    20864667.168
  24079276.689     3143480.70449   2563191.91545  24079275.785    24079284.947
  20201810.474    -1772808.18149  -1374326.57448  20201809.958    20201815.992
  22627855.424    -1966051.47948  -1511141.29745  22627852.665    22627859.277
 04  7 21  3 11  0.0000000  0  9G 7G19G31G27G13G28G10G 8G29
  23665281.026    -9621105.08149  -7481134.97845  23665280.627    23665288.760
  23203655.236    -9611826.09249  -7253343.13946  23203654.384    23203660.383
  21522304.955   -22284557.14549 -16212779.13447  21522304.359    21522311.676
  21102114.914     -203109.30349   -155306.37647  21102114.570    21102120.906
  24149699.548    15824607.97349  12339667.17845  24149699.653    24149703.350
  20858512.524   -24207099.64949 -18840428.76247  20858511.933    20858517.688
  24092008.710     3210387.93349   2615327.36545  24092007.550    24092016.923
  20201749.398    -1773129.52649  -1374576.97548  20201748.850    20201754.740
  22613655.056    -2040667.72248  -1569283.74244  22613653.484    22613660.145
 04  7 21  3 11 30.0000000  0  9G 7G19G31G27G13G28G10G 8G29
  23645638.605    -9724322.16749  -7561563.74645  23645638.517    23645646.988
  23215843.678    -9547776.97949  -7203434.74946  23215842.796    23215848.136
  21505170.898   -22374597.40349 -16282940.32047  21505170.340    21505177.578
  21108627.243     -168886.69849   -128639.43047  21108626.862    21108633.110
  24171379.534    15938539.33249  12428444.85245  24171379.365    24171385.697
  20852428.197   -24239073.33749 -18865343.31447  20852427.555    20852433.251
  24104798.408     3277593.13149   2667694.97545  24104796.685    24104805.621
  20201754.141    -1773104.78749  -1374557.70448  20201753.627    20201759.330
  22599526.206    -2114915.59449  -1627139.24644  22599523.945    22599531.305
 04  7 21  3 12  0.0000000  0  9G 7G19G31G27G13G28G10G 8G29
  23626017.090    -9827427.31549  -7641905.39645  23626017.330    23626026.922
  23228117.439    -9483279.73749  -7153177.16346  23228116.400    23228121.158
  21488111.620   -22464244.27649 -16352794.97447  21488111.021    21488118.273
  21115196.338     -134365.60149   -101739.89947  21115195.974    21115202.143
  24193078.709    16052575.68649  12517304.29945  24193078.851    24193087.510
  20846408.465   -24270707.11349 -18889992.99847  20846407.892    20846413.482
  24117643.114     3345091.79449   2720291.27845  24117641.384    24117650.349
  20201824.741    -1772734.72449  -1374269.34748  20201824.098    20201829.706
  22585467.572    -2188794.24548  -1684707.08644  22585465.908    22585472.946
 04  7 21  3 12 30.0000000  0  9G 7G19G31G27G13G28G10G 8G29
  23606419.248    -9930415.54949  -7722155.87945  23606419.425    23606429.566
  23240476.037    -9418333.51049  -7102569.73146  23240475.114    23240480.006
  21471128.173   -22553492.02849 -16422338.63547  21471127.708    21471134.899
  21121822.954      -99542.59449    -74605.09947  21121822.517    21121828.861
  24214798.700    16166717.60549  12606245.95045  24214798.885    24214808.818
  20840454.262   -24301998.16749 -18914375.62247  20840453.504    20840458.925
  24130543.084     3412883.84549   2773116.21745  24130541.773    24130550.917
  20201961.514    -1772015.47649  -1373708.89548  20201960.934    20201966.473
  22571479.216    -2262298.36249  -1741982.94244  22571478.450    22571485.665
 04  7 21  3 13  0.0000000  0  9G 7G19G31G27G13G28G10G 8G29
  23586844.062   -10033287.11449  -7802315.46845  23586843.926    23586854.522
  23252919.334    -9352943.22849  -7051616.26946  23252918.370    23252923.340
  21454220.949   -22642340.70649 -16491571.32947  21454220.432    21454227.487
  21128506.154      -64420.27349    -47237.04547  21128505.771    21128512.507
  24236536.901    16280959.77949  12695265.79045  24236537.716    24236549.212
  20834564.229   -24332949.68149 -18938493.69047  20834563.652    20834569.001
  24143498.626     3480963.61649   2826165.31545  24143497.274    24143506.291
  20202164.475    -1770948.86849  -1372877.77248  20202163.833    20202169.357
  22557564.430    -2335428.25649  -1798967.28344  22557562.741    22557569.131
 04  7 21  3 13 30.0000000  0  9G 7G19G31G27G13G28G10G 8G29
  23567291.547   -10136042.40149  -7882384.42045  23567290.932    23567301.314
  23265446.131    -9287113.83449  -7000320.67546  23265445.088    23265450.221
  21437389.567   -22730790.13449 -16560492.91447  21437388.945    21437396.196
  21135245.823      -29000.84549    -19637.47047  21135245.515    21135252.624
  24258294.451    16395297.30549  12784359.89145  24258295.281    24258307.434
  20828738.345   -24363564.93049 -18962349.71647  20828737.775    20828743.074
  24156507.206     3549325.23349   2879434.04245  24156506.319    24156515.174
  20202432.938    -1769537.35249  -1371777.89448  20202432.417    20202438.022
  22543722.731    -2408184.38149  -1855660.37044  22543718.898    22543724.264
 04  7 21  3 14  0.0000000  0  9G 7G19G31G27G13G28G10G 8G29
  23547761.789   -10238676.47049  -7962358.94545  23547760.615    23547770.599
  23278056.762    -9220844.87849  -6948682.56446  23278055.667    23278060.925
  21420634.604   -22818834.86449 -16629099.15247  21420634.104    21420641.678
  21142042.905        6718.72549      8195.95547  21142042.578    21142049.832
  24280070.358    16509730.06949  12873528.22345  24280071.136    24280083.317
  20822976.840   -24393841.31249 -18985941.69447  20822976.373    20822981.665
  24169568.958     3617967.97349   2932921.83145  24169568.337    24169577.506
  20202767.889    -1767777.41749  -1370406.51548  20202767.335    20202772.983
  22529949.138    -2480561.80149  -1912058.23044  22529945.674    22529950.879
 04  7 21  3 14 30.0000000  0  9G 7G19G31G27G13G28G10G 8G29
  23528255.330   -10341183.93949  -8042234.80245  23528254.328    23528264.058
  23290751.114    -9154135.70349  -6896701.40146  23290750.000    23290755.543
  21403958.048   -22906469.28749 -16697385.65547  21403957.619    21403965.216
  21148898.035       42741.69349     36265.79247  21148897.692    21148904.740
  24301865.666    16624258.30149  12962770.90845  24301865.996    24301877.628
  20817280.337   -24423776.42349 -19009267.73647  20817279.877    20817285.196
  24182684.931     3686892.10749   2986628.89545  24182683.966    24182693.187
  20203169.720    -1765665.78949  -1368761.08848  20203169.127    20203174.924
  22516248.884    -2552555.10349  -1968156.87645  22516245.967    22516251.325
 04  7 21  3 15  0.0000000  0  9G 7G19G31G27G13G28G10G 8G29
  23508772.940   -10443564.96749  -8122012.10245  23508771.667    23508781.369
  23303527.850    -9086990.82949  -6844380.75746  23303526.785    23303532.975
  21387359.740   -22993692.99049 -16765352.14147  21387359.160    21387366.983
  21155810.639       79066.01949     64570.45448  21155810.247    21155817.124
  24323677.933    16738878.00049  13052084.88345  24323678.047    24323688.980
  20811648.342   -24453372.99749 -19032329.97247  20811647.866    20811653.129
  24195852.932     3756092.06849   3040550.85945  24195852.030    24195861.390
  20203638.218    -1763203.64649  -1366842.52648  20203637.643    20203643.654
  22502622.094    -2624164.45849  -2023956.39945  22502619.311    22502624.998
 04  7 21  3 15 30.0000000  0  9G 7G19G31G27G13G28G10G 8G29
  23489314.944   -10545813.81649  -8201686.46245  23489313.748    23489323.948
  23316387.797    -9019409.21849  -6791719.76146  23316386.891    23316393.475
  21370840.918   -23080499.99549 -16832993.91147  21370840.215    21370847.837
  21162781.166      115695.55849     93112.93548  21162780.801    21162787.668
  24345507.254    16853589.59049  13141470.45245  24345507.524    24345517.085
  20806081.314   -24482628.03649 -19055126.09847  20806080.750    20806086.157
  24209072.975     3825568.19249   3094688.10745  24209072.728    24209082.138
  20204174.092    -1760387.01149  -1364647.74948  20204173.542    20204179.742
  22489068.229    -2695384.15149  -2079452.29545  22489066.554    22489072.689
 04  7 21  3 16  0.0000000  0  9G 7G19G31G27G13G28G10G 8G29
  23469882.014   -10647930.03049  -8281257.48245  23469881.190    23469892.204
  23329330.901    -8951394.92249  -6738721.59546  23329329.850    23329336.392
  21354401.814   -23166889.22149 -16900310.13447  21354400.996    21354408.482
  21169809.314      152628.65549    121891.95848  21169808.966    21169815.964
  24367353.931    16968389.10249  13230924.47745  24367353.881    24367361.799
  20800578.798   -24511544.03649 -19077658.02247  20800578.209    20800583.589
  24222345.702     3895315.47949   3149036.54445  24222345.019    24222354.474
  20204777.193    -1757217.27449  -1362177.81548  20204776.674    20204782.991
  22475588.567    -2766213.85549  -2134644.21144  22475587.834    22475594.199
 04  7 21  3 16 30.0000000  0  9G 7G19G31G27G13G28G10G 8G29
  23450475.456   -10749913.78649  -8360725.26545  23450474.464    23450485.253
  23342355.243    -8882952.65449  -6685389.97446  23342354.164    23342360.437
  21338041.860   -23252860.65149 -16967300.85247  21338041.221    21338048.764
  21176894.705      189863.33149    150905.97747  21176894.441    21176901.494
  24389215.105    17083271.15149  13320442.88145  24389215.160    24389222.290
  20795140.178   -24540123.71349 -19099927.89147  20795139.634    20795145.113
  24235669.487     3965328.22049   3203591.81945  24235668.216    24235677.508
  20205447.281    -1753695.76649  -1359433.78448  20205446.750    20205453.279
  22462184.682    -2836653.58849  -2189532.31144  22462183.455    22462189.626
 04  7 21  3 17  0.0000000  0  9G 7G19G31G27G13G28G10G 8G29
  23431095.180   -10851761.51449  -8440087.02546  23431093.781    23431104.315
  23355460.603    -8814083.69549  -6631725.86446  23355459.581    23355465.471
  21321762.464   -23338410.10249 -17033962.70947  21321761.911    21321769.209
  21184037.804      227401.22449    180156.27547  21184037.586    21184044.622
  24411091.185    17198234.64149  13410024.73945  24411091.603    24411097.826
  20789765.722   -24568366.54749 -19121935.28347  20789765.195    20789770.666
  24249042.906     4035604.78749   3258352.74045  24249041.817    24249050.733
  20206184.582    -1749821.08449  -1356414.54848  20206184.040    20206190.637
  22448854.587    -2906700.06849  -2244113.92544  22448853.883    22448860.094
 04  7 21  3 17 30.0000000  0  9G 7G19G31G27G13G28G10G 8G29
  23411740.925   -10953469.14249  -8519339.64546  23411739.679    23411750.332
  23368647.331    -8744788.54449  -6577729.64746  23368646.233    23368651.809
  21305564.062   -23423533.18749 -17100292.33947  21305563.536    21305570.781
  21191239.113      265244.08349    209644.20447  21191238.870    21191245.830
  24432983.385    17313279.01049  13499669.61345  24432983.559    24432989.322
  20784455.865   -24596270.84349 -19143678.87147  20784455.151    20784460.648
  24262465.582     4106143.79749   3313318.14045  24262465.254    24262473.972
  20206989.540    -1745590.62449  -1353118.08048  20206988.953    20206995.603
  22435600.311    -2976349.13849  -2298385.89345  22435599.948    22435606.633
 04  7 21  3 18  0.0000000  0  9G 7G19G31G27G13G28G10G 8G29
  23392413.456   -11055035.66149  -8598482.31446  23392412.459    23392422.817
  23381913.718    -8675070.54749  -6523403.97046  23381912.789    23381918.793
  21289446.963   -23508228.65949 -17166288.76047  21289446.583    21289453.739
  21198498.409      303391.28649    239369.28247  21198498.135    21198504.958
  24454889.995    17428400.69349  13589374.80745  24454890.154    24454896.748
  20779209.727   -24623838.36749 -19165160.05647  20779209.203    20779214.800
  24275938.026     4176940.77049   3368484.58045  24275937.867    24275946.662
  20207862.015    -1741005.36849  -1349545.14448  20207861.439    20207868.181
  22422422.568    -3045599.81449  -2352347.49245  22422421.951    22422428.617
 04  7 21  3 18 30.0000000  0  9G 7G19G31G27G13G28G10G 8G29
  23373113.646   -11156457.74549  -8677512.43946  23373112.590    23373122.384
  23395260.856    -8604930.94849  -6468749.74946  23395259.978    23395266.147
  21273412.263   -23592492.76649 -17231949.02847  21273411.694    21273418.476
  21205815.820      341844.05949    269332.47147  21205815.509    21205822.248
  24476810.815    17543598.34849  13679139.18645  24476810.927    24476818.549
  20774027.841   -24651068.53049 -19186378.35647  20774027.370    20774033.060
  24289459.163     4247993.67449   3423850.40545  24289459.017    24289467.972
  20208802.283    -1736063.45149  -1345694.30248  20208801.698    20208808.520
  22409319.208    -3114448.86048  -2405996.10745  22409319.873    22409327.242
 04  7 21  3 19  0.0000000  0 11G 7G19G31G27G13G28G10G 8G29G26G11
  23353842.088   -11257733.42749  -8756428.44346  23353840.772    23353849.956
  23408687.963    -8534372.57749  -6413769.18946  23408686.934    23408692.942
  21257459.939   -23676323.27549 -17297271.44447  21257459.347    21257465.726
  21213191.343      380602.14449    299533.56147  21213190.963    21213197.728
  24498746.208    17658868.89249  13768960.31045  24498746.191    24498753.996
  20768910.205   -24677962.14949 -19207334.41547  20768909.593    20768915.412
  24303028.080     4319298.78749   3479412.82845  24303027.935    24303036.863
  20209810.538    -1730764.36749  -1341565.13748  20209810.010    20209816.768
  22396292.919    -3182894.32349  -2459330.25444  22396294.418    22396302.437
                  -1503568.26849  -1152872.78443
  24571150.867    -5319619.77449  -3955529.16845  24571150.595    24571155.251
 04  7 21  3 19 30.0000000  0 11G 7G19G31G27G13G28G10G 8G29G26G11
  23334598.005   -11358862.87349  -8835230.53746  23334596.525    23334605.329
  23422193.347    -8463400.28549  -6358466.12646  23422192.364    23422198.640
  21241590.165   -23759719.89049 -17362255.78447  21241589.484    21241595.853
  21220624.618      419663.64149    329971.06847  21220624.257    21220630.896
  24520694.968    17774207.25949  13858834.33045  24520694.746    24520702.421
  20763855.600   -24704522.28849 -19228030.63847  20763855.242    20763861.226
  24316643.780     4390850.74249   3535167.51645  24316643.248    24316652.512
  20210886.424    -1725110.21749  -1337159.30048  20210885.865    20210892.657
  22383347.324    -3250936.65249  -2512350.27545  22383346.560    22383354.509
                  -1584268.92849  -1009999.23243
  24559846.710    -5379026.81949  -4001820.31945  24559846.054    24559850.837
 04  7 21  3 20  0.0000000  0 10G 7G19G31G27G13G28G10G 8G29G11
  23315380.599   -11459850.88549  -8913922.39046  23315379.378    23315387.757
  23435776.051    -8392023.42449  -6302847.80346  23435775.200    23435781.420
  21225801.897   -23842687.17949 -17426905.58547  21225801.283    21225807.560
  21228114.344      459021.69849    360639.66447  21228113.913    21228120.430
  24542654.511    17889604.13949  13948753.95745  24542654.433    24542661.996
  20758863.591   -24730756.44149 -19248472.82447  20758863.048    20758869.080
  24330305.289     4462639.22949   3591106.57845  24330304.371    24330313.691
  20212028.495    -1719107.46549  -1332481.83448  20212028.084    20212034.908
  22370474.817    -3318580.78049  -2565059.86944  22370474.640    22370481.533
  24548584.015    -5438210.43149  -4047937.47045  24548583.420    24548589.389
 04  7 21  3 20 30.0000000  0 10G 7G19G31G27G13G28G10G 8G29G11
  23296194.703   -11560673.22249  -8992485.15646  23296193.422    23296201.712
  23449439.505    -8320221.95349  -6246898.61546  23449438.751    23449444.981
  21210100.306   -23925200.43249 -17491201.55347  21210099.544    21210105.653
  21235664.432      498698.57949    391556.70647  21235664.056    21235670.643
  24564628.903    18005079.12349  14038734.38945  24564628.980    24564636.493
  20753937.550   -24756642.95649 -19268644.12547  20753937.018    20753943.073
  24344013.752     4534683.06849   3647244.52745  24344013.540    24344023.374
  20213241.620    -1712733.11849  -1327514.80148  20213241.115    20213247.815
  22357686.001    -3385802.03548  -2617440.04144  22357683.318    22357689.924
  24537368.528    -5497145.83348  -4093861.10545  24537367.566    24537374.763
 04  7 21  3 21  0.0000000  0 10G 7G19G31G27G13G28G10G 8G29G11
  23277036.119   -11661347.60949  -9070932.65946  23277035.354    23277043.661
  23463179.415    -8248019.01349  -6190636.59446  23463178.689    23463184.751
  21194481.234   -24007277.26449 -17555157.51547  21194480.507    21194487.040
  21243271.392      538674.33249    422706.63547  21243271.000    21243277.833
  24586614.433    18120609.43649  14128757.94445  24586614.389    24586621.664
  20749073.793   -24782202.65649 -19288560.75547  20749073.325    20749079.269
  24357767.327     4606959.02349   3703563.43945  24357767.378    24357776.834
  20214521.465    -1706007.06549  -1322273.72948  20214520.968    20214527.696
  22344983.267    -3452618.46757  -2669504.92544                  22344966.055
  24526196.450    -5555851.21749  -4139605.48945  24526195.379    24526203.574
 04  7 21  3 21 30.0000000  0 10G 7G19G31G27G13G28G10G 8G29G11
  23257907.042   -11761872.48149  -9149263.61146  23257905.988    23257914.191
  23476995.169    -8175417.46449  -6134063.97746  23476994.316    23477000.368
  21178945.694   -24088915.67949 -17618771.83747  21178945.201    21178951.891
  21250935.368      578948.76049    454089.29847  21250934.974    21250941.861
  24608609.895    18236192.23849  14218822.37545  24608609.244    24608616.104
  20744271.974   -24807436.76849 -19308223.67747  20744271.470    20744277.265
  24371565.106     4679463.41249   3760060.27245  24371564.746    24371573.659
  20215868.387    -1698929.41349  -1316758.66548  20215867.876    20215874.406
                  -3519028.35648  -2721252.96443
  24515069.278    -5614324.09049  -4185168.68145  24515068.520    24515076.614
 04  7 21  3 22  0.0000000  0 10G 7G19G31G27G13G28G10G 8G29G11
  23238807.338   -11862238.76749  -9227471.03446  23238806.449    23238815.155
  23490887.344    -8102412.99349  -6077177.39746  23490886.617    23490892.550
  21163495.860   -24170106.41449 -17682037.30647  21163495.237    21163501.751
  21258657.547      619528.74649    485710.04847  21258657.168    21258664.106
  24630614.924    18351831.63249  14308931.00045  24630614.530    24630621.314
  20739533.375   -24832339.05049 -19327628.00347  20739532.820    20739538.493
  24385407.158     4752199.85449   3816737.93346  24385406.493    24385415.599
  20217283.657    -1691492.59849  -1310963.74548  20217283.096    20217289.575
                  -3585023.58348  -2772677.93543
  24503988.872    -5672555.18049  -4230543.50245  24503987.911    24503995.493
 04  7 21  3 22 30.0000000  0 10G 7G19G31G27G13G28G10G 8G29G11
  23219740.692   -11962432.40049  -9305543.90346  23219740.079    23219748.901
  23504858.440    -8028996.17349  -6019969.49446  23504857.575    23504863.169
  21148133.682   -24250834.95049 -17744942.64147  21148133.182    21148139.628
  21266440.243      660426.32149    517578.28747  21266439.800    21266446.815
  24652632.881    18467537.26349  14399091.18145  24652632.688    24652640.192
  20734859.993   -24856898.07849 -19346764.89147  20734859.525    20734864.999
  24399294.583     4825177.06449   3873603.20645  24399293.572    24399303.224
  20218769.661    -1683684.23949  -1304879.32648  20218769.097    20218775.536
                  -3650589.96349   -989239.70343
  24492957.133    -5730529.78249  -4275718.49345  24492956.278    24492963.293
 04  7 21  3 23  0.0000000  0 10G 7G19G31G27G13G28G10G 8G29G11
  23200707.574   -12062450.36449  -9383479.89446  23200706.766    23200715.953
  23518907.333    -7955168.79449  -5962441.70146  23518906.410    23518912.056
  21132860.337   -24331098.17349 -17807485.36147  21132859.755    21132866.144
  21274283.507      701642.60149    549694.85747  21274283.070    21274290.114
  24674662.996    18583307.06549  14489301.37845  24674663.027    24674670.464
  20730252.219   -24881113.62949 -19365634.11647  20730251.635    20730256.926
  24413226.229     4898392.27149   3930654.06145  24413225.417    24413234.956
  20220326.639    -1675503.07949  -1298504.39448  20220326.079    20220332.250
                  -3715724.05249  -1039993.48143
  24481974.297    -5788244.80949  -4320691.28845  24481973.583    24481980.754
 04  7 21  3 23 30.0000000  0 10G 7G19G31G27G13G28G10G 8G29G11
  23181706.597   -12162297.72849  -9461282.94446  23181706.288    23181715.733
  23533032.264    -7880940.59949  -5904601.57046  23533031.371    23533037.335
  21117674.633   -24410900.78449 -17869669.13047  21117674.018    21117680.344
  21282186.030      743170.45549    582054.20347  21282185.659    21282192.593
  24696703.994    18699131.52749  14579554.15845  24696703.946    24696711.160
  20725708.096   -24904993.55849 -19384241.83447  20725707.521    20725712.681
  24427201.330     4971835.28249   3987882.31545  24427200.702    24427210.836
  20221953.346    -1666955.37149  -1291843.84948  20221952.753    20221958.824
                  -3780431.37149  -1090414.88944                  22282648.488
  24471038.803    -5845704.99149  -4365465.36245  24471038.336    24471047.147
 04  7 21  3 24  0.0000000  0 10G 7G19G31G27G13G28G10G 8G29G11
  23162738.721   -12261974.49049  -9538953.06246  23162738.411    23162748.013
  23547232.916    -7806316.34449  -5846452.80346  23547232.010    23547237.968
  21102576.353   -24490242.59749 -17931493.86147  21102575.721    21102582.050
  21290147.309      785007.74049    614654.65447  21290147.018    21290153.822
  24718754.458    18815005.64149  14669845.64645  24718754.222    24718762.211
  20721227.295   -24928540.77849 -19402590.30247  20721226.723    20721231.732
  24441218.991     5045500.59749   4045283.77945  24441218.646    24441228.748
  20223649.359    -1658043.13849  -1284899.26448  20223648.779    20223654.788
  22270366.617    -3844711.89649  -1140503.61345  22270378.274    22270417.252
  24460151.851    -5902909.85849  -4410040.47345  24460151.700    24460161.118
 04  7 21  3 24 30.0000000  0 11G 7G19G31G27G13G28G10G 8G29G26G11
  23143803.498   -12361479.77849  -9616489.58646  23143803.098    23143812.607
  23561508.236    -7731299.63149  -5787998.22446  23561507.148    23561513.088
  21087565.782   -24569122.42649 -17992958.64147  21087565.173    21087571.744
  21298167.164      827153.40949    647495.42547  21298166.876    21298173.758
  24740813.310    18930925.81449  14760173.05845  24740813.221    24740822.117
  20716809.304   -24951757.06849 -19420680.92347  20716808.882    20716813.803
  24455278.890     5119383.52349   4102854.84245  24455278.303    24455288.510
  20225414.627    -1648767.33549  -1277671.35848  20225413.957    20225419.756
  22258214.404    -3908564.95049  -1190259.31445  22258205.685    22258209.240
                  -1281800.40149   -988483.12443
  24449315.110    -5959858.15649  -4454415.70445  24449314.881    24449323.634
 04  7 21  3 25  0.0000000  0 10G 7G19G31G27G13G28G10G 8G29G11
  23124901.850   -12460811.57049  -9693890.89546  23124901.114    23124910.128
  23575857.121    -7655893.12949  -5729239.96046  23575856.194    23575862.098
  21072643.633   -24647538.12449 -18054061.74847  21072643.013    21072649.890
  21306245.631      869607.33149    680576.40447  21306245.384    21306252.422
  24762880.655    19046889.14649  14850534.05545  24762880.465    24762889.366
  20712454.491   -24974643.36449 -19438514.38047  20712453.857    20712458.512
  24469379.666     5193480.83749   4160592.87945  24469378.900    24469388.644
  20227248.956    -1639127.43249  -1270159.75148  20227248.377    20227254.083
  22246142.835    -3971988.72349  -1239680.44545  22246136.900    22246140.318
  24438528.145    -6016547.56449  -4498589.25545  24438527.967    24438535.842
 04  7 21  3 25 30.0000000  0  9G 7G19G31G27G28G10G 8G29G11
  23106033.438   -12559966.67449  -9771154.55546  23106032.526    23106041.234
  23590280.444    -7580098.43249  -5670179.20046  23590279.499    23590285.159
  21057810.260   -24725486.19849 -18114800.49547  21057809.663    21057816.944
  21314383.089      912370.80349    713898.57947  21314382.930    21314389.995
  20708162.136   -24997198.91549 -19456090.14547  20708161.668    20708166.207
  24483520.938     5267790.19549   4218496.22445  24483520.131    24483527.621
  20229153.044    -1629122.15649  -1262363.43548  20229152.439    20229158.119
  22234154.220    -4034979.98949  -1288764.54345  22234149.109    22234153.553
  24427791.453    -6072974.49749  -4542558.29345  24427791.160    24427797.676
 04  7 21  3 26  0.0000000  0  9G 7G19G31G27G28G10G 8G29G11
  23087199.046   -12658943.60949  -9848279.34546  23087198.115    23087206.114
  23604777.045    -7503918.80549  -5610818.47046  23604775.974    23604781.561
  21043066.155   -24802964.91249 -18175173.52147  21043065.749    21043073.182
  21322579.605      955443.18949    747461.46947  21322579.375    21322586.396
  20703932.538   -25019425.47649 -19473409.54247  20703932.016    20703936.473
  24497701.042     5342307.47249   4276561.48345  24497700.474    24497708.233
  20231126.541    -1618751.64449  -1254282.53148  20231125.903    20231131.643
  22222248.419    -4097537.46949  -1337510.64245  22222244.341    22222249.425
  24417103.942    -6129137.25049  -4586321.45845  24417103.702    24417108.866
 04  7 21  3 26 30.0000000  0  9G 7G19G31G27G28G10G 8G29G11
  23068398.747   -12757738.24149  -9925262.08745  23068397.851    23068405.928
  23619346.356    -7427354.92049  -5551158.33546  23619345.398    23619351.027
  21028412.554   -24879970.12049 -18235177.56347  21028412.093    21028419.306
  21330835.334      998826.51449    781266.64447  21330835.090    21330842.010
  20699765.773   -25041321.54849 -19490471.41946  20699765.291    20699769.626
  24511920.403     5417031.51549   4334787.94345  24511920.080    24511928.616
  20233169.932    -1608013.49749  -1245915.14548  20233169.338    20233175.101
  22210426.384    -4159657.22449  -1385915.64945  22210423.184    22210428.544
  24406466.277    -6185031.26649  -4629875.22245  24406466.458    24406471.672
 04  7 21  3 27  0.0000000  0  9G 7G19G31G27G28G10G 8G29G11
  23049633.615   -12856348.90949 -10002101.47245  23049632.951    23049640.637
  23633989.005    -7350409.69949  -5491201.04146  23633987.860    23633993.139
  21013849.692   -24956499.74649 -18294811.00147  21013849.115    21013856.069
  21339150.194     1042520.39849    815313.79247  21339149.973    21339156.831
  20695661.701   -25062888.31849 -19507276.72046  20695661.212    20695665.562
  24526178.971     5491958.65949   4393172.70145  24526178.391    24526187.128
  20235283.420    -1596907.46149  -1237261.09048  20235282.795    20235288.687
  22198688.175    -4221337.78249  -1433978.37945  22198685.809    22198691.265
  24395880.654    -6240654.31749  -4673217.80645  24395881.232    24395887.210
 04  7 21  3 27 30.0000000  0  9G 7G19G31G27G28G10G 8G29G11
  23030904.000   -12954775.46949 -10078797.36945  23030903.028    23030910.167
  23648703.161    -7273087.61749  -5430950.11746  23648701.905    23648707.239
  20999377.206   -25032553.61449 -18354073.72047  20999376.634    20999383.351
  21347523.896     1086522.94549    849601.46847  21347523.547    21347530.315
  20691619.655   -25084128.57149 -19523827.57546  20691619.320    20691623.452
  24540474.657     5567083.56649   4451711.53845  24540473.703    24540482.652
  20237466.378    -1585435.51049  -1228321.91848  20237465.804    20237471.853
  22187033.875    -4282579.17549  -1481698.91545  22187032.057    22187037.438
  24385348.213    -6296006.03349  -4716348.98045  24385348.593    24385354.619
 04  7 21  3 28  0.0000000  0  9G 7G19G31G27G28G10G 8G29G11
  23012209.031   -13053013.64349 -10155346.54845  23012208.530    23012215.999
  23663488.140    -7195389.42149  -5370406.08746  23663487.169    23663492.644
  20984996.271   -25108127.22449 -18412962.18747  20984995.610    20985001.965
  21355956.420     1130836.31649    884131.34747  21355956.039    21355962.831
  20687640.237   -25105040.74049 -19540122.77646  20687639.746    20687643.972
  24554808.574     5642404.86749   4510403.44645  24554807.230    24554815.910
  20239719.609    -1573594.93349  -1219095.48948  20239719.034    20239725.093
  22175463.540    -4343377.37149  -1529074.08845  22175462.567    22175468.116
  24374868.587    -6351081.85349  -4759265.19445  24374868.907    24374874.717
 04  7 21  3 28 30.0000000  0  9G 7G19G31G27G28G10G 8G29G11
  22993551.158   -13151060.94249 -10231746.94746  22993550.577    22993558.454
  23678344.434    -7117317.37849  -5309570.74846  23678343.753    23678349.301
  20970706.886   -25183218.04649 -18471474.44947  20970706.292    20970712.393
  21364448.052     1175460.95449    918903.77047  21364447.771    21364454.583
  20683722.973   -25125625.18649 -19556162.57546  20683722.607    20683726.751
  24569179.082     5717919.85649   4569246.17945  24569177.491    24569186.232
  20242043.127    -1561384.84449  -1209581.11748  20242042.526    20242048.605
  22163978.172    -4403729.91349  -1576102.01845  22163977.847    22163983.526
  24364442.345    -6405879.39149  -4801964.55045  24364442.305    24364447.201
 04  7 21  3 29  0.0000000  0  9G 7G19G31G27G28G10G 8G29G11
  22974929.177   -13248915.98449 -10307997.60746  22974928.719    22974937.279
  23693271.804    -7038874.77449  -5248446.68846  23693271.070    23693276.860
  20956509.679   -25257824.42949 -18529609.25247  20956509.171    20956515.202
  21372998.978     1220396.19449    953918.22447  21372998.661    21373005.527
  20679867.752   -25145883.19749 -19571948.01846  20679867.446    20679871.697
  24583585.228     5793624.18749   4628236.56445  24583583.661    24583592.761
  20244436.804    -1548805.39349  -1199778.94348  20244436.278    20244442.389
  22152578.479    -4463635.68949  -1622781.86645  22152578.149    22152584.091
  24354069.035    -6460396.70449  -4844445.47845  24354068.758    24354071.907
 04  7 21  3 29 30.0000000  0  9G 7G19G31G27G28G10G 8G29G11
  22956345.624   -13346574.55649 -10384095.12446  22956344.973    22956353.512
  23708269.454    -6960061.97449  -5187034.15646  23708268.557    23708274.787
  20942405.520   -25331942.03349 -18587363.19947  20942404.965    20942411.080
  21381609.283     1265644.09449    989176.31847  21381609.020    21381615.933
  20676075.250   -25165813.50149 -19587478.08446  20676074.812    20676079.002
  24598026.313     5869516.97849   4687373.69045  24598025.102    24598035.196
  20246901.348    -1535854.37749  -1189687.22948  20246900.752    20246906.896
  22141264.069    -4523090.63649  -1669110.37445  22141264.132    22141270.518
  24343748.899    -6514629.08249  -4886704.40845  24343748.467    24343751.307
 04  7 21  3 30  0.0000000  0  9G 7G19G31G27G28G10G 8G29G11
  22937800.107   -13444034.77949 -10460038.08346  22937798.922    22937807.686
  23723336.919    -6880881.93249  -5125335.45346  23723335.966    23723342.352
  20928394.447   -25405568.89749 -18644734.76347  20928394.005    20928400.198
  21390279.192     1311204.46549   1024677.89447  21390278.838    21390285.745
  20672344.589   -25185417.26749 -19602753.72846  20672344.174    20672348.367
  24612502.244     5945594.68748   4746654.94645  24612501.811    24612512.243
  20249436.485    -1522531.19649  -1179305.54048  20249435.977    20249442.179
  22130036.875    -4582093.13349  -1715086.36345  22130036.484    22130042.807
  24333482.236    -6568574.47649  -4928739.73745  24333481.892    24333485.180
 04  7 21  3 30 30.0000000  0  9G 7G19G31G27G28G10G 8G29G11
  22919292.155   -13541293.28849 -10535823.87946  22919291.454    22919300.254
  23738474.089    -6801336.13749  -5063351.75046  23738473.197    23738479.335
  20914477.792   -25478701.77949 -18701721.38447  20914477.368    20914483.287
  21399008.767     1357078.62249   1060423.96047  21399008.415    21399015.223
  20668676.371   -25204693.64949 -19617774.24946  20668676.003    20668680.266
  24627011.650     6021855.28949   4806078.77545  24627012.316    24627024.303
  20252042.933    -1508834.91649  -1168633.12048  20252042.373    20252048.530
  22118896.024    -4640639.97149  -1760707.25445  22118895.448    22118901.679
  24323271.329    -6622229.26449  -4970548.68845  24323271.201    24323275.682
 04  7 21  3 31  0.0000000  0  9G 7G19G31G27G28G10G 8G29G11
  22900823.305   -13638348.95949 -10611451.59146  22900822.650    22900831.290
  23753680.141    -6721428.22049  -5001085.90146  23753679.310    23753685.378
  20900655.495   -25551339.15649 -18758321.91847  20900654.878    20900660.779
  21407797.810     1403265.56949   1096413.78347  21407797.440    21407804.195
  20665069.974   -25223644.42649 -19632541.08146  20665069.551    20665073.940
  24641558.830     6098294.19649   4865641.54645  24641558.253    24641570.517
  20254720.295    -1494765.43349  -1157669.90448  20254719.689    20254725.902
  22107841.323    -4698730.40049  -1805972.49745  22107841.011    22107847.518
  24313116.589    -6675591.74949  -5012129.78945  24313116.449    24313122.183
 04  7 21  3 31 30.0000000  0  9G 7G19G31G27G28G10G 8G29G11
  22882392.837   -13735201.52549 -10686921.04046  22882392.199    22882400.846
  23768954.452    -6641162.53849  -4938541.26246  23768953.665    23768959.722
  20886927.104   -25623480.59849 -18814536.01047  20886926.691    20886932.639
  21416646.079     1449763.60149   1132645.99647  21416645.814    21416652.325
  20661525.277   -25242272.17449 -19647056.17646  20661524.775    20661529.400
  24656138.484     6174906.71249   4925339.50445  24656137.191    24656149.541
  20257468.184    -1480324.23249  -1146417.02748  20257467.677    20257473.927
  22096873.384    -4756364.20249  -1850881.91045  22096873.333    22096880.121
  24303017.896    -6728661.53849  -5053482.81945  24303017.781    24303024.345
 04  7 21  3 32  0.0000000  0  9G 7G19G31G27G28G10G 8G29G11
  22864001.990   -13831846.74849 -10762228.93846  22864001.291    22864009.999
  23784296.947    -6560539.69549  -4875718.28946  23784295.875    23784301.918
  20873294.411   -25695122.10849 -18870360.52047  20873293.959    20873299.801
  21425554.089     1496574.68549   1169122.13347  21425553.817    21425560.024
  20658042.193   -25260575.58849 -19661318.56646  20658041.695    20658046.374
  24670750.021     6251691.05849   4985171.38445  24670749.295    24670760.904
  20260287.393    -1465509.07949  -1134872.75348  20260286.865    20260293.205
  22085993.459    -4813537.52249  -1895432.52245  22085993.465    22086000.448
  24292975.630    -6781434.14249  -5094604.27745  24292975.404    24292983.060
 04  7 21  3 32 30.0000000  0  9G 7G19G31G27G28G10G 8G29G11
  22845651.000   -13928282.40749 -10837373.54446  22845650.255    22845659.129
  23799706.141    -6479562.25349  -4812619.02346  23799705.078    23799711.471
  20859757.326   -25766261.21949 -18925793.56747  20859756.711    20859762.650
  21434521.687     1543699.06749   1205842.40947  21434521.429    21434527.402
  20654620.948   -25278555.17549 -19675328.59546  20654620.374    20654625.150
  24685394.031     6328644.47049   5045134.96045  24685393.396    24685404.607
  20263177.601    -1450319.77149  -1123036.93248  20263177.105    20263183.701
  22075202.331    -4870248.26149  -1939622.70646  22075201.825    22075208.790
  24282989.601    -6833906.91149  -5135492.06745  24282989.419    24282998.550
 04  7 21  3 33  0.0000000  0  9G 7G19G31G27G28G10G 8G29G11
  22827340.493   -14024505.97549 -10912352.85946  22827339.661    22827348.139
  23815182.477    -6398232.49849  -4749245.20846  23815181.573    23815187.906
  20846315.958   -25836895.37949 -18980833.17047  20846315.366    20846321.513
  21443548.895     1591137.23949   1242807.20547  21443548.600    21443554.497
  20651261.101   -25296211.27449 -19689086.59446  20651260.570    20651265.454
  24700070.534     6405764.18749   5105228.15845  24700069.526    24700080.267
  20266139.255    -1434754.60949  -1110908.23548  20266138.814    20266145.601
  22064499.197    -4926494.05349  -1983450.59646  22064498.645    22064505.527
  24273060.790    -6886076.95849  -5176143.95145  24273061.010    24273071.321
 04  7 21  3 33 30.0000000  0  9G 7G19G31G27G28G10G 8G29G11
  22809070.274   -14120516.00149 -10987165.79946  22809069.510    22809077.668
  23830725.598    -6316553.48649  -4685599.22546  23830724.533    23830730.859
  20832971.038   -25907023.08849 -19035478.09847  20832970.485    20832976.628
  21452635.754     1638888.43249   1280015.92847  21452635.429    21452641.280
  20647962.862   -25313545.25449 -19702593.57046  20647962.123    20647966.862
  24714777.599     6483046.08149   5165447.74545  24714776.016    24714786.529
  20269172.469    -1418814.41949  -1098487.29848  20269172.034    20269178.871
  22053884.819    -4982273.81649  -2026915.35746  22053884.144    22053890.917
  24263191.492    -6937942.85349  -5216558.88345  24263191.591    24263200.719
 04  7 21  3 34  0.0000000  0  9G 7G19G31G27G28G10G 8G29G11
  22790841.065   -14216309.88449 -11061810.30746  22790840.509    22790848.554
  23846334.673    -6234527.50449  -4621682.88046  23846333.437    23846339.733
  20819723.074   -25976641.78849 -19089726.38947  20819722.426    20819728.703
  21461782.237     1686953.02049   1317468.84347  21461781.818    21461787.743
  20644725.502   -25330557.35249 -19715849.75546  20644724.784    20644729.690
  24729514.621     6560487.30449   5225791.46045  24729512.953    24729523.298
  20272277.265    -1402498.51549  -1085773.61948  20272276.845    20272283.772
  22043359.588    -5037585.38749  -2070015.29446  22043358.661    22043365.284
  24253381.302    -6989501.34049  -5256734.29445  24253380.984    24253388.140
 04  7 21  3 34 30.0000000  0 10G 7G19G31G27G28G10G 8G29G26G11
  22772653.594   -14311884.83949 -11136284.26146  22772652.872    22772660.975
  23862009.305    -6152156.55449  -4557497.73346  23862008.135    23862014.603
  20806572.339   -26045748.65449 -19143575.86447  20806571.700    20806578.113
  21470988.369     1735332.05449   1355166.78347  21470988.005    21470994.084
  20641549.340   -25347247.68049 -19728855.21446  20641548.723    20641553.627
  24744280.533     6638085.33449   5286257.43845  24744279.393    24744289.577
  20275453.886    -1385805.67149  -1072766.22348  20275453.445    20275460.437
  22032923.943    -5092425.91249  -2112748.19046  22032922.905    22032929.328
                  -1141489.97749   -877613.35043
  24243629.491    -7040749.54249  -5296667.96745  24243629.014    24243634.780
 04  7 21  3 35  0.0000000  0  9G 7G19G31G27G28G10G 8G29G11
  22754508.008   -14407237.42749 -11210584.90546  22754507.403    22754515.808
  23877749.532    -6069442.11749  -4493044.95146  23877748.249    23877755.015
  20793519.707   -26114340.29649 -19197023.87147  20793519.046    20793525.504
  21480254.507     1784026.28949   1393110.32847  21480254.140    21480260.408
  20638434.487   -25363615.61749 -19741609.46946  20638433.800    20638438.968
  24759075.790     6715838.00249   5346843.82545  24759074.948    24759085.793
  20278702.517    -1368733.90949  -1059463.55548  20278702.117    20278709.084
  22022578.505    -5146792.61249  -2155111.83746  22022577.417    22022583.588
  24233936.731    -7091683.69849  -5336356.95345  24233936.406    24233942.321
 04  7 21  3 35 30.0000000  0  9G 7G19G31G27G28G10G 8G29G11
  22736405.182   -14502366.30049 -11284711.23246  22736404.466    22736413.475
  23893554.138    -5986387.16349  -4428326.86546  23893552.838    23893559.786
  20780565.441   -26182415.19949 -19250069.20047  20780564.735    20780571.221
  21489580.379     1833035.34349   1431299.17547  21489580.083    21489586.667
  20635380.702   -25379662.46149 -19754113.50446  20635380.144    20635385.478
  24773901.427     6793741.70249   5407547.96545  24773900.025    24773910.617
  20282023.279    -1351283.40549  -1045865.75948  20282022.878    20282029.798
  22012323.574    -5200684.21049  -2197105.29546  22012322.217    22012328.252
  24224304.001    -7142302.07349  -5375799.85245  24224303.564    24224310.655
 04  7 21  3 36  0.0000000  0 10G 7G19G31G27G28G10G 8G29G26G11
  22718344.887   -14597270.20349 -11358662.27546  22718344.458    22718353.907
  23909422.919    -5902995.63849  -4363346.50746  23909421.612    23909428.261
  20767709.501   -26249972.23449 -19302711.01147  20767708.835    20767715.625
  21498966.274     1882358.42149   1469732.71847  21498965.936    21498972.794
  20632387.484   -25395389.66449 -19766368.50446  20632387.106    20632392.725
  24788754.879     6871792.19449   5468366.48345  24788752.963    24788763.405
  20285415.893    -1333455.16549  -1031973.62748  20285415.489    20285422.457
  22002158.805    -5254099.72149  -2238727.76746  22002157.494    22002163.671
  22364374.773    -1342374.77449  -1034147.17045  22364372.237    22364379.901
  24214733.064    -7192603.10149  -5414995.43845  24214731.910    24214739.660
